<?xml version='1.0' encoding='UTF-8'?><gpx version="1.1" creator="JPX - https://github.com/jenetics/jpx" xmlns="http://www.topografix.com/GPX/1/1"><trk><trkseg><trkpt lat="39.95371" lon="8.4025183"><ele>3.0</ele><time>2026-04-28T08:42:44.066Z</time></trkpt><trkpt lat="39.9546633" lon="8.4029383"><ele>3.0</ele><time>2026-04-28T08:43:04.063Z</time></trkpt><trkpt lat="39.9547283" lon="8.4029417"><ele>3.0</ele><time>2026-04-28T08:43:05.065Z</time></trkpt><trkpt lat="39.95485" lon="8.40294"><ele>3.0</ele><time>2026-04-28T08:43:07.061Z</time></trkpt><trkpt lat="39.9550167" lon="8.40292"><ele>3.0</ele><time>2026-04-28T08:43:10.058Z</time></trkpt><trkpt lat="39.9551317" lon="8.40287"><ele>3.2</ele><time>2026-04-28T08:43:12.066Z</time></trkpt><trkpt lat="39.9551867" lon="8.402825"><ele>3.4</ele><time>2026-04-28T08:43:13.061Z</time></trkpt><trkpt lat="39.9552383" lon="8.4027767"><ele>3.6000000000000005</ele><time>2026-04-28T08:43:14.067Z</time></trkpt><trkpt lat="39.9553417" lon="8.4027067"><ele>3.8000000000000003</ele><time>2026-04-28T08:43:16.068Z</time></trkpt><trkpt lat="39.9554517" lon="8.4026933"><ele>4.0</ele><time>2026-04-28T08:43:18.067Z</time></trkpt><trkpt lat="39.955565" lon="8.4026783"><ele>4.0</ele><time>2026-04-28T08:43:20.066Z</time></trkpt><trkpt lat="39.95568" lon="8.4026217"><ele>4.0</ele><time>2026-04-28T08:43:22.07Z</time></trkpt><trkpt lat="39.9557867" lon="8.402565"><ele>4.0</ele><time>2026-04-28T08:43:24.069Z</time></trkpt><trkpt lat="39.9558867" lon="8.402535"><ele>4.0</ele><time>2026-04-28T08:43:26.064Z</time></trkpt><trkpt lat="39.9559933" lon="8.4024983"><ele>4.0</ele><time>2026-04-28T08:43:28.08Z</time></trkpt><trkpt lat="39.956095" lon="8.4024433"><ele>4.0</ele><time>2026-04-28T08:43:30.062Z</time></trkpt><trkpt lat="39.956195" lon="8.40238"><ele>4.0</ele><time>2026-04-28T08:43:32.063Z</time></trkpt><trkpt lat="39.9562933" lon="8.4023217"><ele>4.0</ele><time>2026-04-28T08:43:34.062Z</time></trkpt><trkpt lat="39.9563817" lon="8.4022617"><ele>4.0</ele><time>2026-04-28T08:43:36.071Z</time></trkpt><trkpt lat="39.9564667" lon="8.4021767"><ele>3.6</ele><time>2026-04-28T08:43:38.066Z</time></trkpt><trkpt lat="39.9565533" lon="8.4021033"><ele>3.2</ele><time>2026-04-28T08:43:40.066Z</time></trkpt><trkpt lat="39.9566567" lon="8.4020683"><ele>2.8000000000000003</ele><time>2026-04-28T08:43:42.07Z</time></trkpt><trkpt lat="39.956765" lon="8.4020633"><ele>2.4000000000000004</ele><time>2026-04-28T08:43:44.065Z</time></trkpt><trkpt lat="39.95688" lon="8.40206"><ele>2.0</ele><time>2026-04-28T08:43:46.064Z</time></trkpt><trkpt lat="39.9569983" lon="8.402045"><ele>1.75</ele><time>2026-04-28T08:43:48.065Z</time></trkpt><trkpt lat="39.9571183" lon="8.402045"><ele>1.5</ele><time>2026-04-28T08:43:50.061Z</time></trkpt><trkpt lat="39.957235" lon="8.4020817"><ele>1.25</ele><time>2026-04-28T08:43:52.068Z</time></trkpt><trkpt lat="39.95735" lon="8.40214"><ele>1.0</ele><time>2026-04-28T08:43:54.069Z</time></trkpt><trkpt lat="39.9574583" lon="8.4022"><ele>1.75</ele><time>2026-04-28T08:43:56.069Z</time></trkpt><trkpt lat="39.9575667" lon="8.4022633"><ele>2.5</ele><time>2026-04-28T08:43:58.069Z</time></trkpt><trkpt lat="39.957665" lon="8.4023483"><ele>3.25</ele><time>2026-04-28T08:44:00.066Z</time></trkpt><trkpt lat="39.9577617" lon="8.40243"><ele>4.0</ele><time>2026-04-28T08:44:02.064Z</time></trkpt><trkpt lat="39.9578717" lon="8.4024767"><ele>4.0</ele><time>2026-04-28T08:44:04.067Z</time></trkpt><trkpt lat="39.9579933" lon="8.4024617"><ele>4.0</ele><time>2026-04-28T08:44:06.065Z</time></trkpt><trkpt lat="39.9580583" lon="8.4024267"><ele>4.0</ele><time>2026-04-28T08:44:07.07Z</time></trkpt><trkpt lat="39.9581183" lon="8.4024017"><ele>4.0</ele><time>2026-04-28T08:44:08.062Z</time></trkpt><trkpt lat="39.95824" lon="8.4023883"><ele>4.0</ele><time>2026-04-28T08:44:10.063Z</time></trkpt><trkpt lat="39.9583517" lon="8.4023633"><ele>4.0</ele><time>2026-04-28T08:44:12.063Z</time></trkpt><trkpt lat="39.95844" lon="8.4022617"><ele>4.0</ele><time>2026-04-28T08:44:14.066Z</time></trkpt><trkpt lat="39.95851" lon="8.4021283"><ele>4.0</ele><time>2026-04-28T08:44:16.062Z</time></trkpt><trkpt lat="39.95858" lon="8.4020083"><ele>4.0</ele><time>2026-04-28T08:44:18.064Z</time></trkpt><trkpt lat="39.9586683" lon="8.4019167"><ele>4.0</ele><time>2026-04-28T08:44:20.066Z</time></trkpt><trkpt lat="39.95875" lon="8.40184"><ele>4.0</ele><time>2026-04-28T08:44:22.066Z</time></trkpt><trkpt lat="39.958835" lon="8.401765"><ele>4.0</ele><time>2026-04-28T08:44:24.076Z</time></trkpt><trkpt lat="39.958915" lon="8.4016667"><ele>4.0</ele><time>2026-04-28T08:44:26.059Z</time></trkpt><trkpt lat="39.958985" lon="8.4015667"><ele>4.0</ele><time>2026-04-28T08:44:28.062Z</time></trkpt><trkpt lat="39.95905" lon="8.4015033"><ele>4.0</ele><time>2026-04-28T08:44:30.068Z</time></trkpt><trkpt lat="39.959105" lon="8.4014533"><ele>4.0</ele><time>2026-04-28T08:44:32.058Z</time></trkpt><trkpt lat="39.95918" lon="8.4014017"><ele>4.0</ele><time>2026-04-28T08:44:34.062Z</time></trkpt><trkpt lat="39.9592767" lon="8.40135"><ele>4.0</ele><time>2026-04-28T08:44:36.066Z</time></trkpt><trkpt lat="39.9593817" lon="8.4013033"><ele>4.0</ele><time>2026-04-28T08:44:38.063Z</time></trkpt><trkpt lat="39.959485" lon="8.401255"><ele>3.333333333333333</ele><time>2026-04-28T08:44:40.062Z</time></trkpt><trkpt lat="39.9595617" lon="8.40121"><ele>2.6666666666666665</ele><time>2026-04-28T08:44:42.065Z</time></trkpt><trkpt lat="39.959625" lon="8.401165"><ele>2.0</ele><time>2026-04-28T08:44:44.062Z</time></trkpt><trkpt lat="39.9597" lon="8.4011133"><ele>1.3333333333333333</ele><time>2026-04-28T08:44:47.066Z</time></trkpt><trkpt lat="39.9597667" lon="8.4010983"><ele>0.6666666666666666</ele><time>2026-04-28T08:44:50.062Z</time></trkpt><trkpt lat="39.9598417" lon="8.40106"><ele>0.0</ele><time>2026-04-28T08:44:53.065Z</time></trkpt><trkpt lat="39.95991" lon="8.4010317"><ele>0.0</ele><time>2026-04-28T08:44:55.06Z</time></trkpt><trkpt lat="39.959995" lon="8.40103"><ele>0.0</ele><time>2026-04-28T08:44:57.068Z</time></trkpt><trkpt lat="39.9600783" lon="8.401055"><ele>0.0</ele><time>2026-04-28T08:44:59.063Z</time></trkpt><trkpt lat="39.96015" lon="8.4011267"><ele>0.0</ele><time>2026-04-28T08:45:01.062Z</time></trkpt><trkpt lat="39.9602283" lon="8.4012"><ele>0.0</ele><time>2026-04-28T08:45:03.066Z</time></trkpt><trkpt lat="39.960315" lon="8.401255"><ele>0.0</ele><time>2026-04-28T08:45:05.067Z</time></trkpt><trkpt lat="39.9603833" lon="8.40132"><ele>0.0</ele><time>2026-04-28T08:45:07.086Z</time></trkpt><trkpt lat="39.9604433" lon="8.40141"><ele>0.0</ele><time>2026-04-28T08:45:09.068Z</time></trkpt><trkpt lat="39.9604833" lon="8.4015167"><ele>0.0</ele><time>2026-04-28T08:45:11.071Z</time></trkpt><trkpt lat="39.96049" lon="8.40163"><ele>0.0</ele><time>2026-04-28T08:45:13.092Z</time></trkpt><trkpt lat="39.9604883" lon="8.401745"><ele>0.0</ele><time>2026-04-28T08:45:15.07Z</time></trkpt><trkpt lat="39.9604883" lon="8.40186"><ele>0.5</ele><time>2026-04-28T08:45:17.065Z</time></trkpt><trkpt lat="39.9604917" lon="8.4019833"><ele>1.0</ele><time>2026-04-28T08:45:19.087Z</time></trkpt><trkpt lat="39.9604883" lon="8.4021"><ele>1.5</ele><time>2026-04-28T08:45:21.069Z</time></trkpt><trkpt lat="39.960485" lon="8.4022017"><ele>2.0</ele><time>2026-04-28T08:45:23.061Z</time></trkpt><trkpt lat="39.9605033" lon="8.4023317"><ele>2.5</ele><time>2026-04-28T08:45:26.07Z</time></trkpt><trkpt lat="39.9605183" lon="8.402435"><ele>3.0</ele><time>2026-04-28T08:45:28.065Z</time></trkpt><trkpt lat="39.9605183" lon="8.4025483"><ele>3.2</ele><time>2026-04-28T08:45:30.063Z</time></trkpt><trkpt lat="39.9605" lon="8.40267"><ele>3.4</ele><time>2026-04-28T08:45:32.073Z</time></trkpt><trkpt lat="39.9604683" lon="8.402785"><ele>3.6000000000000005</ele><time>2026-04-28T08:45:34.061Z</time></trkpt><trkpt lat="39.9604483" lon="8.4029067"><ele>3.8000000000000003</ele><time>2026-04-28T08:45:36.06Z</time></trkpt><trkpt lat="39.9604617" lon="8.40304"><ele>4.0</ele><time>2026-04-28T08:45:38.066Z</time></trkpt><trkpt lat="39.96048" lon="8.4031633"><ele>5.0</ele><time>2026-04-28T08:45:40.067Z</time></trkpt><trkpt lat="39.960505" lon="8.4032783"><ele>6.0</ele><time>2026-04-28T08:45:42.067Z</time></trkpt><trkpt lat="39.9605383" lon="8.4033833"><ele>7.0</ele><time>2026-04-28T08:45:44.06Z</time></trkpt><trkpt lat="39.9605767" lon="8.403485"><ele>8.0</ele><time>2026-04-28T08:45:46.06Z</time></trkpt><trkpt lat="39.9606017" lon="8.4035683"><ele>9.0</ele><time>2026-04-28T08:45:48.062Z</time></trkpt><trkpt lat="39.9605983" lon="8.4036533"><ele>10.0</ele><time>2026-04-28T08:45:50.059Z</time></trkpt><trkpt lat="39.9605667" lon="8.4037483"><ele>10.5</ele><time>2026-04-28T08:45:52.062Z</time></trkpt><trkpt lat="39.960535" lon="8.40384"><ele>11.0</ele><time>2026-04-28T08:45:54.063Z</time></trkpt><trkpt lat="39.9605633" lon="8.4039417"><ele>11.5</ele><time>2026-04-28T08:45:57.064Z</time></trkpt><trkpt lat="39.960625" lon="8.4040067"><ele>12.0</ele><time>2026-04-28T08:46:07.091Z</time></trkpt><trkpt lat="39.960685" lon="8.40405"><ele>12.499999999999998</ele><time>2026-04-28T08:46:09.065Z</time></trkpt><trkpt lat="39.96078" lon="8.4040433"><ele>13.0</ele><time>2026-04-28T08:46:11.064Z</time></trkpt><trkpt lat="39.960855" lon="8.40401"><ele>13.428571428571427</ele><time>2026-04-28T08:46:13.092Z</time></trkpt><trkpt lat="39.9609183" lon="8.4039833"><ele>13.857142857142858</ele><time>2026-04-28T08:46:15.065Z</time></trkpt><trkpt lat="39.9609833" lon="8.4039883"><ele>14.285714285714285</ele><time>2026-04-28T08:46:17.065Z</time></trkpt><trkpt lat="39.9610467" lon="8.4039817"><ele>14.714285714285714</ele><time>2026-04-28T08:46:19.091Z</time></trkpt><trkpt lat="39.961115" lon="8.40393"><ele>15.142857142857142</ele><time>2026-04-28T08:46:21.066Z</time></trkpt><trkpt lat="39.9611817" lon="8.4038683"><ele>15.571428571428571</ele><time>2026-04-28T08:46:23.064Z</time></trkpt><trkpt lat="39.96126" lon="8.4038417"><ele>16.0</ele><time>2026-04-28T08:46:25.06Z</time></trkpt><trkpt lat="39.961345" lon="8.4038317"><ele>14.999999999999998</ele><time>2026-04-28T08:46:27.062Z</time></trkpt><trkpt lat="39.9614283" lon="8.40381"><ele>14.0</ele><time>2026-04-28T08:46:29.065Z</time></trkpt><trkpt lat="39.961495" lon="8.403775"><ele>13.0</ele><time>2026-04-28T08:46:31.063Z</time></trkpt><trkpt lat="39.9615467" lon="8.4037117"><ele>12.0</ele><time>2026-04-28T08:46:34.059Z</time></trkpt><trkpt lat="39.9615733" lon="8.4035933"><ele>11.0</ele><time>2026-04-28T08:46:37.104Z</time></trkpt><trkpt lat="39.9616167" lon="8.4035"><ele>10.0</ele><time>2026-04-28T08:46:39.068Z</time></trkpt><trkpt lat="39.961715" lon="8.4034467"><ele>9.4</ele><time>2026-04-28T08:46:41.068Z</time></trkpt><trkpt lat="39.9618333" lon="8.4034383"><ele>8.8</ele><time>2026-04-28T08:46:43.102Z</time></trkpt><trkpt lat="39.9619433" lon="8.403425"><ele>8.2</ele><time>2026-04-28T08:46:45.064Z</time></trkpt><trkpt lat="39.9620317" lon="8.40339"><ele>7.6</ele><time>2026-04-28T08:46:47.061Z</time></trkpt><trkpt lat="39.9621067" lon="8.40334"><ele>7.0</ele><time>2026-04-28T08:46:49.096Z</time></trkpt><trkpt lat="39.96219" lon="8.4032967"><ele>7.0</ele><time>2026-04-28T08:46:51.065Z</time></trkpt><trkpt lat="39.962285" lon="8.4032617"><ele>6.999999999999999</ele><time>2026-04-28T08:46:53.072Z</time></trkpt><trkpt lat="39.9623817" lon="8.40325"><ele>6.999999999999999</ele><time>2026-04-28T08:46:55.066Z</time></trkpt><trkpt lat="39.9624783" lon="8.40327"><ele>7.0</ele><time>2026-04-28T08:46:57.061Z</time></trkpt><trkpt lat="39.96255" lon="8.40334"><ele>7.0</ele><time>2026-04-28T08:46:59.063Z</time></trkpt><trkpt lat="39.9625867" lon="8.40345"><ele>7.000000000000001</ele><time>2026-04-28T08:47:01.07Z</time></trkpt><trkpt lat="39.9626117" lon="8.4035817"><ele>7.0</ele><time>2026-04-28T08:47:03.061Z</time></trkpt><trkpt lat="39.96263" lon="8.40369"><ele>7.0</ele><time>2026-04-28T08:47:05.065Z</time></trkpt><trkpt lat="39.9626467" lon="8.4038017"><ele>7.0</ele><time>2026-04-28T08:47:07.097Z</time></trkpt><trkpt lat="39.9626683" lon="8.4039083"><ele>7.000000000000001</ele><time>2026-04-28T08:47:09.059Z</time></trkpt><trkpt lat="39.962695" lon="8.4040167"><ele>7.0</ele><time>2026-04-28T08:47:11.09Z</time></trkpt><trkpt lat="39.96272" lon="8.4041333"><ele>7.666666666666667</ele><time>2026-04-28T08:47:13.098Z</time></trkpt><trkpt lat="39.9627517" lon="8.40425"><ele>8.333333333333334</ele><time>2026-04-28T08:47:15.068Z</time></trkpt><trkpt lat="39.96276" lon="8.40436"><ele>9.0</ele><time>2026-04-28T08:47:17.065Z</time></trkpt><trkpt lat="39.96275" lon="8.4044767"><ele>9.666666666666666</ele><time>2026-04-28T08:47:19.099Z</time></trkpt><trkpt lat="39.962745" lon="8.4045767"><ele>10.333333333333332</ele><time>2026-04-28T08:47:21.067Z</time></trkpt><trkpt lat="39.9627483" lon="8.4047083"><ele>11.0</ele><time>2026-04-28T08:47:23.065Z</time></trkpt><trkpt lat="39.9627483" lon="8.4048283"><ele>11.333333333333332</ele><time>2026-04-28T08:47:25.129Z</time></trkpt><trkpt lat="39.9627233" lon="8.40494"><ele>11.666666666666666</ele><time>2026-04-28T08:47:27.067Z</time></trkpt><trkpt lat="39.96268" lon="8.4050367"><ele>12.0</ele><time>2026-04-28T08:47:29.062Z</time></trkpt><trkpt lat="39.9626133" lon="8.4051117"><ele>12.333333333333332</ele><time>2026-04-28T08:47:31.059Z</time></trkpt><trkpt lat="39.9625167" lon="8.4051583"><ele>12.666666666666666</ele><time>2026-04-28T08:47:33.062Z</time></trkpt><trkpt lat="39.9624533" lon="8.4051783"><ele>13.0</ele><time>2026-04-28T08:47:34.061Z</time></trkpt><trkpt lat="39.9623867" lon="8.4052"><ele>13.499999999999998</ele><time>2026-04-28T08:47:35.066Z</time></trkpt><trkpt lat="39.962325" lon="8.4052233"><ele>14.0</ele><time>2026-04-28T08:47:36.062Z</time></trkpt><trkpt lat="39.9622067" lon="8.4052567"><ele>14.5</ele><time>2026-04-28T08:47:38.059Z</time></trkpt><trkpt lat="39.9621433" lon="8.4052617"><ele>15.0</ele><time>2026-04-28T08:47:39.065Z</time></trkpt><trkpt lat="39.9620767" lon="8.405265"><ele>15.499999999999998</ele><time>2026-04-28T08:47:40.061Z</time></trkpt><trkpt lat="39.9620083" lon="8.4052717"><ele>16.0</ele><time>2026-04-28T08:47:41.068Z</time></trkpt><trkpt lat="39.961935" lon="8.4052817"><ele>16.0</ele><time>2026-04-28T08:47:42.065Z</time></trkpt><trkpt lat="39.9618533" lon="8.40529"><ele>16.0</ele><time>2026-04-28T08:47:43.096Z</time></trkpt><trkpt lat="39.9617617" lon="8.4052983"><ele>16.0</ele><time>2026-04-28T08:47:44.057Z</time></trkpt><trkpt lat="39.96167" lon="8.4053117"><ele>16.0</ele><time>2026-04-28T08:47:45.063Z</time></trkpt><trkpt lat="39.9615783" lon="8.405325"><ele>16.0</ele><time>2026-04-28T08:47:46.063Z</time></trkpt><trkpt lat="39.9614867" lon="8.4053333"><ele>16.166666666666664</ele><time>2026-04-28T08:47:47.067Z</time></trkpt><trkpt lat="39.9613933" lon="8.4053433"><ele>16.333333333333332</ele><time>2026-04-28T08:47:48.069Z</time></trkpt><trkpt lat="39.9613" lon="8.405355"><ele>16.5</ele><time>2026-04-28T08:47:49.098Z</time></trkpt><trkpt lat="39.9612167" lon="8.4053667"><ele>16.666666666666668</ele><time>2026-04-28T08:47:50.059Z</time></trkpt><trkpt lat="39.9611383" lon="8.40538"><ele>16.833333333333336</ele><time>2026-04-28T08:47:51.06Z</time></trkpt><trkpt lat="39.96107" lon="8.4053933"><ele>17.0</ele><time>2026-04-28T08:47:52.058Z</time></trkpt><trkpt lat="39.9609517" lon="8.4054183"><ele>16.8</ele><time>2026-04-28T08:47:54.065Z</time></trkpt><trkpt lat="39.96085" lon="8.4054417"><ele>16.6</ele><time>2026-04-28T08:47:56.06Z</time></trkpt><trkpt lat="39.96075" lon="8.4054583"><ele>16.400000000000002</ele><time>2026-04-28T08:47:58.064Z</time></trkpt><trkpt lat="39.96063" lon="8.4054767"><ele>16.2</ele><time>2026-04-28T08:48:00.06Z</time></trkpt><trkpt lat="39.9605633" lon="8.4054867"><ele>16.0</ele><time>2026-04-28T08:48:01.067Z</time></trkpt><trkpt lat="39.96049" lon="8.405495"><ele>15.8</ele><time>2026-04-28T08:48:02.062Z</time></trkpt><trkpt lat="39.960415" lon="8.405505"><ele>15.600000000000001</ele><time>2026-04-28T08:48:03.069Z</time></trkpt><trkpt lat="39.9603383" lon="8.4055183"><ele>15.4</ele><time>2026-04-28T08:48:04.058Z</time></trkpt><trkpt lat="39.9601883" lon="8.405545"><ele>15.2</ele><time>2026-04-28T08:48:06.062Z</time></trkpt><trkpt lat="39.9601183" lon="8.40556"><ele>15.0</ele><time>2026-04-28T08:48:07.105Z</time></trkpt><trkpt lat="39.9599067" lon="8.4056133"><ele>14.8</ele><time>2026-04-28T08:48:10.066Z</time></trkpt><trkpt lat="39.9598283" lon="8.405645"><ele>14.6</ele><time>2026-04-28T08:48:11.059Z</time></trkpt><trkpt lat="39.95974" lon="8.4056767"><ele>14.399999999999999</ele><time>2026-04-28T08:48:12.066Z</time></trkpt><trkpt lat="39.959645" lon="8.4057117"><ele>14.2</ele><time>2026-04-28T08:48:13.102Z</time></trkpt><trkpt lat="39.9595417" lon="8.4057467"><ele>14.0</ele><time>2026-04-28T08:48:14.062Z</time></trkpt><trkpt lat="39.959435" lon="8.4057733"><ele>14.0</ele><time>2026-04-28T08:48:15.067Z</time></trkpt><trkpt lat="39.9593283" lon="8.405795"><ele>13.999999999999998</ele><time>2026-04-28T08:48:16.061Z</time></trkpt><trkpt lat="39.9592233" lon="8.4058067"><ele>13.999999999999998</ele><time>2026-04-28T08:48:17.056Z</time></trkpt><trkpt lat="39.9591233" lon="8.405815"><ele>14.0</ele><time>2026-04-28T08:48:18.061Z</time></trkpt><trkpt lat="39.959025" lon="8.40582"><ele>14.0</ele><time>2026-04-28T08:48:19.103Z</time></trkpt><trkpt lat="39.9589317" lon="8.405825"><ele>13.6</ele><time>2026-04-28T08:48:20.065Z</time></trkpt><trkpt lat="39.9588383" lon="8.40583"><ele>13.2</ele><time>2026-04-28T08:48:21.061Z</time></trkpt><trkpt lat="39.9587417" lon="8.4058367"><ele>12.799999999999999</ele><time>2026-04-28T08:48:22.057Z</time></trkpt><trkpt lat="39.958645" lon="8.4058433"><ele>12.399999999999999</ele><time>2026-04-28T08:48:23.056Z</time></trkpt><trkpt lat="39.9585533" lon="8.40585"><ele>12.0</ele><time>2026-04-28T08:48:24.064Z</time></trkpt><trkpt lat="39.95847" lon="8.4058483"><ele>12.0</ele><time>2026-04-28T08:48:25.059Z</time></trkpt><trkpt lat="39.9583933" lon="8.4058417"><ele>12.0</ele><time>2026-04-28T08:48:26.063Z</time></trkpt><trkpt lat="39.958295" lon="8.4058233"><ele>12.0</ele><time>2026-04-28T08:48:28.065Z</time></trkpt><trkpt lat="39.9582283" lon="8.4058417"><ele>12.0</ele><time>2026-04-28T08:48:33.061Z</time></trkpt><trkpt lat="39.95819" lon="8.4059083"><ele>12.0</ele><time>2026-04-28T08:48:35.064Z</time></trkpt><trkpt lat="39.95815" lon="8.4060083"><ele>12.0</ele><time>2026-04-28T08:48:37.108Z</time></trkpt><trkpt lat="39.9580933" lon="8.4061283"><ele>12.0</ele><time>2026-04-28T08:48:39.064Z</time></trkpt><trkpt lat="39.95803" lon="8.4062583"><ele>12.0</ele><time>2026-04-28T08:48:41.063Z</time></trkpt><trkpt lat="39.95798" lon="8.4063967"><ele>12.0</ele><time>2026-04-28T08:48:43.109Z</time></trkpt><trkpt lat="39.9579283" lon="8.406535"><ele>12.0</ele><time>2026-04-28T08:48:45.064Z</time></trkpt><trkpt lat="39.9578783" lon="8.40667"><ele>12.399999999999999</ele><time>2026-04-28T08:48:47.062Z</time></trkpt><trkpt lat="39.957825" lon="8.4067967"><ele>12.799999999999999</ele><time>2026-04-28T08:48:49.104Z</time></trkpt><trkpt lat="39.95779" lon="8.406935"><ele>13.2</ele><time>2026-04-28T08:48:51.062Z</time></trkpt><trkpt lat="39.9577917" lon="8.4070883"><ele>13.6</ele><time>2026-04-28T08:48:53.063Z</time></trkpt><trkpt lat="39.9577983" lon="8.40723"><ele>14.0</ele><time>2026-04-28T08:48:55.065Z</time></trkpt><trkpt lat="39.9578" lon="8.40736"><ele>14.000000000000002</ele><time>2026-04-28T08:48:57.06Z</time></trkpt><trkpt lat="39.9578217" lon="8.4074933"><ele>14.0</ele><time>2026-04-28T08:48:59.062Z</time></trkpt><trkpt lat="39.957865" lon="8.4076483"><ele>14.0</ele><time>2026-04-28T08:49:01.061Z</time></trkpt><trkpt lat="39.9579017" lon="8.4077283"><ele>14.0</ele><time>2026-04-28T08:49:02.067Z</time></trkpt><trkpt lat="39.95794" lon="8.4078083"><ele>14.000000000000002</ele><time>2026-04-28T08:49:03.063Z</time></trkpt><trkpt lat="39.95798" lon="8.4078883"><ele>14.0</ele><time>2026-04-28T08:49:04.064Z</time></trkpt><trkpt lat="39.958025" lon="8.4079717"><ele>14.000000000000002</ele><time>2026-04-28T08:49:05.067Z</time></trkpt><trkpt lat="39.9580767" lon="8.40806"><ele>14.0</ele><time>2026-04-28T08:49:06.065Z</time></trkpt><trkpt lat="39.95814" lon="8.40814"><ele>14.0</ele><time>2026-04-28T08:49:07.114Z</time></trkpt><trkpt lat="39.9582" lon="8.4082133"><ele>14.0</ele><time>2026-04-28T08:49:08.061Z</time></trkpt><trkpt lat="39.9582633" lon="8.4082867"><ele>14.000000000000002</ele><time>2026-04-28T08:49:09.067Z</time></trkpt><trkpt lat="39.9583283" lon="8.4083583"><ele>14.0</ele><time>2026-04-28T08:49:10.064Z</time></trkpt><trkpt lat="39.958395" lon="8.40843"><ele>14.0</ele><time>2026-04-28T08:49:11.063Z</time></trkpt><trkpt lat="39.958465" lon="8.4085017"><ele>13.999999999999998</ele><time>2026-04-28T08:49:12.062Z</time></trkpt><trkpt lat="39.95854" lon="8.4085683"><ele>13.999999999999998</ele><time>2026-04-28T08:49:13.114Z</time></trkpt><trkpt lat="39.9586183" lon="8.408635"><ele>14.0</ele><time>2026-04-28T08:49:14.062Z</time></trkpt><trkpt lat="39.9587017" lon="8.4087"><ele>14.0</ele><time>2026-04-28T08:49:15.06Z</time></trkpt><trkpt lat="39.958785" lon="8.408765"><ele>14.6</ele><time>2026-04-28T08:49:16.064Z</time></trkpt><trkpt lat="39.95887" lon="8.40883"><ele>15.2</ele><time>2026-04-28T08:49:17.067Z</time></trkpt><trkpt lat="39.9589533" lon="8.408895"><ele>15.799999999999999</ele><time>2026-04-28T08:49:18.063Z</time></trkpt><trkpt lat="39.959035" lon="8.4089567"><ele>16.4</ele><time>2026-04-28T08:49:19.11Z</time></trkpt><trkpt lat="39.9591133" lon="8.4090183"><ele>17.0</ele><time>2026-04-28T08:49:20.061Z</time></trkpt><trkpt lat="39.9591883" lon="8.40908"><ele>16.833333333333336</ele><time>2026-04-28T08:49:21.062Z</time></trkpt><trkpt lat="39.959265" lon="8.4091417"><ele>16.666666666666668</ele><time>2026-04-28T08:49:22.066Z</time></trkpt><trkpt lat="39.9593417" lon="8.409205"><ele>16.5</ele><time>2026-04-28T08:49:23.064Z</time></trkpt><trkpt lat="39.9594167" lon="8.4092683"><ele>16.333333333333332</ele><time>2026-04-28T08:49:24.065Z</time></trkpt><trkpt lat="39.9594883" lon="8.4093367"><ele>16.166666666666664</ele><time>2026-04-28T08:49:25.067Z</time></trkpt><trkpt lat="39.95956" lon="8.4094033"><ele>16.0</ele><time>2026-04-28T08:49:26.064Z</time></trkpt><trkpt lat="39.9596283" lon="8.40947"><ele>16.0</ele><time>2026-04-28T08:49:27.064Z</time></trkpt><trkpt lat="39.95969" lon="8.4095333"><ele>16.0</ele><time>2026-04-28T08:49:28.068Z</time></trkpt><trkpt lat="39.9597433" lon="8.4095933"><ele>16.0</ele><time>2026-04-28T08:49:29.061Z</time></trkpt><trkpt lat="39.9598183" lon="8.409705"><ele>16.0</ele><time>2026-04-28T08:49:31.072Z</time></trkpt><trkpt lat="39.9598583" lon="8.40986"><ele>16.0</ele><time>2026-04-28T08:49:33.068Z</time></trkpt><trkpt lat="39.95986" lon="8.4099467"><ele>16.57142857142857</ele><time>2026-04-28T08:49:34.06Z</time></trkpt><trkpt lat="39.95984" lon="8.4100383"><ele>17.142857142857142</ele><time>2026-04-28T08:49:35.074Z</time></trkpt><trkpt lat="39.95981" lon="8.410125"><ele>17.714285714285715</ele><time>2026-04-28T08:49:36.065Z</time></trkpt><trkpt lat="39.95978" lon="8.4102083"><ele>18.285714285714285</ele><time>2026-04-28T08:49:37.11Z</time></trkpt><trkpt lat="39.95975" lon="8.4102917"><ele>18.857142857142858</ele><time>2026-04-28T08:49:38.058Z</time></trkpt><trkpt lat="39.9597183" lon="8.4103767"><ele>19.428571428571427</ele><time>2026-04-28T08:49:39.066Z</time></trkpt><trkpt lat="39.9596917" lon="8.4104583"><ele>20.0</ele><time>2026-04-28T08:49:40.063Z</time></trkpt><trkpt lat="39.9596667" lon="8.4105417"><ele>20.6</ele><time>2026-04-28T08:49:41.06Z</time></trkpt><trkpt lat="39.9596433" lon="8.4106233"><ele>21.2</ele><time>2026-04-28T08:49:42.066Z</time></trkpt><trkpt lat="39.9596133" lon="8.4107783"><ele>21.799999999999997</ele><time>2026-04-28T08:49:44.061Z</time></trkpt><trkpt lat="39.95961" lon="8.4109117"><ele>22.4</ele><time>2026-04-28T08:49:46.059Z</time></trkpt><trkpt lat="39.9596533" lon="8.4110117"><ele>23.0</ele><time>2026-04-28T08:49:48.061Z</time></trkpt><trkpt lat="39.9597617" lon="8.41107"><ele>23.0</ele><time>2026-04-28T08:49:50.06Z</time></trkpt><trkpt lat="39.95983" lon="8.41108"><ele>23.0</ele><time>2026-04-28T08:49:51.063Z</time></trkpt><trkpt lat="39.9599033" lon="8.4110883"><ele>23.0</ele><time>2026-04-28T08:49:52.066Z</time></trkpt><trkpt lat="39.9599833" lon="8.4110983"><ele>23.0</ele><time>2026-04-28T08:49:53.068Z</time></trkpt><trkpt lat="39.9600633" lon="8.411105"><ele>23.0</ele><time>2026-04-28T08:49:54.063Z</time></trkpt><trkpt lat="39.9601467" lon="8.4110983"><ele>23.0</ele><time>2026-04-28T08:49:55.132Z</time></trkpt><trkpt lat="39.960235" lon="8.4110933"><ele>23.166666666666668</ele><time>2026-04-28T08:49:56.062Z</time></trkpt><trkpt lat="39.9603267" lon="8.4110767"><ele>23.333333333333336</ele><time>2026-04-28T08:49:57.061Z</time></trkpt><trkpt lat="39.9604133" lon="8.4110567"><ele>23.5</ele><time>2026-04-28T08:49:58.06Z</time></trkpt><trkpt lat="39.9605" lon="8.41103"><ele>23.666666666666668</ele><time>2026-04-28T08:49:59.065Z</time></trkpt><trkpt lat="39.960585" lon="8.4109967"><ele>23.833333333333332</ele><time>2026-04-28T08:50:00.059Z</time></trkpt><trkpt lat="39.9606583" lon="8.4109533"><ele>24.0</ele><time>2026-04-28T08:50:01.061Z</time></trkpt><trkpt lat="39.9607417" lon="8.4109117"><ele>24.0</ele><time>2026-04-28T08:50:02.06Z</time></trkpt><trkpt lat="39.960825" lon="8.4108667"><ele>24.0</ele><time>2026-04-28T08:50:03.061Z</time></trkpt><trkpt lat="39.96091" lon="8.4108183"><ele>24.0</ele><time>2026-04-28T08:50:04.062Z</time></trkpt><trkpt lat="39.9609933" lon="8.4107717"><ele>24.0</ele><time>2026-04-28T08:50:05.064Z</time></trkpt><trkpt lat="39.9610767" lon="8.4107233"><ele>24.0</ele><time>2026-04-28T08:50:06.063Z</time></trkpt><trkpt lat="39.9611633" lon="8.4106733"><ele>24.0</ele><time>2026-04-28T08:50:07.115Z</time></trkpt><trkpt lat="39.9612517" lon="8.4106233"><ele>24.0</ele><time>2026-04-28T08:50:08.066Z</time></trkpt><trkpt lat="39.9613417" lon="8.410575"><ele>24.0</ele><time>2026-04-28T08:50:09.061Z</time></trkpt><trkpt lat="39.9614317" lon="8.4105283"><ele>24.0</ele><time>2026-04-28T08:50:10.058Z</time></trkpt><trkpt lat="39.9615183" lon="8.4104817"><ele>24.0</ele><time>2026-04-28T08:50:11.061Z</time></trkpt><trkpt lat="39.9616033" lon="8.4104367"><ele>23.833333333333332</ele><time>2026-04-28T08:50:12.062Z</time></trkpt><trkpt lat="39.9616867" lon="8.4103933"><ele>23.666666666666668</ele><time>2026-04-28T08:50:13.12Z</time></trkpt><trkpt lat="39.9617633" lon="8.4103567"><ele>23.5</ele><time>2026-04-28T08:50:14.063Z</time></trkpt><trkpt lat="39.9618367" lon="8.410325"><ele>23.333333333333336</ele><time>2026-04-28T08:50:15.063Z</time></trkpt><trkpt lat="39.9619067" lon="8.410295"><ele>23.166666666666668</ele><time>2026-04-28T08:50:16.068Z</time></trkpt><trkpt lat="39.9619733" lon="8.4102617"><ele>23.0</ele><time>2026-04-28T08:50:17.066Z</time></trkpt><trkpt lat="39.9620367" lon="8.4102233"><ele>22.799999999999997</ele><time>2026-04-28T08:50:18.065Z</time></trkpt><trkpt lat="39.9620967" lon="8.4101767"><ele>22.6</ele><time>2026-04-28T08:50:19.107Z</time></trkpt><trkpt lat="39.9621517" lon="8.4101233"><ele>22.4</ele><time>2026-04-28T08:50:20.06Z</time></trkpt><trkpt lat="39.9622267" lon="8.409995"><ele>22.200000000000003</ele><time>2026-04-28T08:50:22.063Z</time></trkpt><trkpt lat="39.9622917" lon="8.4098517"><ele>22.0</ele><time>2026-04-28T08:50:24.063Z</time></trkpt><trkpt lat="39.96233" lon="8.4097817"><ele>22.0</ele><time>2026-04-28T08:50:25.064Z</time></trkpt><trkpt lat="39.962375" lon="8.4097117"><ele>22.0</ele><time>2026-04-28T08:50:26.063Z</time></trkpt><trkpt lat="39.9624317" lon="8.4096467"><ele>22.0</ele><time>2026-04-28T08:50:27.06Z</time></trkpt><trkpt lat="39.962495" lon="8.4095867"><ele>22.0</ele><time>2026-04-28T08:50:28.069Z</time></trkpt><trkpt lat="39.9625683" lon="8.40953"><ele>22.0</ele><time>2026-04-28T08:50:29.064Z</time></trkpt><trkpt lat="39.9626417" lon="8.409475"><ele>22.0</ele><time>2026-04-28T08:50:30.057Z</time></trkpt><trkpt lat="39.9627167" lon="8.4094233"><ele>21.8</ele><time>2026-04-28T08:50:31.057Z</time></trkpt><trkpt lat="39.9627917" lon="8.4093733"><ele>21.6</ele><time>2026-04-28T08:50:32.066Z</time></trkpt><trkpt lat="39.9628733" lon="8.4093217"><ele>21.400000000000002</ele><time>2026-04-28T08:50:33.06Z</time></trkpt><trkpt lat="39.9629583" lon="8.4092717"><ele>21.200000000000003</ele><time>2026-04-28T08:50:34.06Z</time></trkpt><trkpt lat="39.9630483" lon="8.409225"><ele>21.0</ele><time>2026-04-28T08:50:35.064Z</time></trkpt><trkpt lat="39.9631367" lon="8.4091817"><ele>21.0</ele><time>2026-04-28T08:50:36.063Z</time></trkpt><trkpt lat="39.96322" lon="8.40914"><ele>21.0</ele><time>2026-04-28T08:50:37.11Z</time></trkpt><trkpt lat="39.9633017" lon="8.409095"><ele>21.0</ele><time>2026-04-28T08:50:38.06Z</time></trkpt><trkpt lat="39.9633833" lon="8.409045"><ele>21.0</ele><time>2026-04-28T08:50:39.061Z</time></trkpt><trkpt lat="39.9634633" lon="8.40899"><ele>21.0</ele><time>2026-04-28T08:50:40.065Z</time></trkpt><trkpt lat="39.9635433" lon="8.4089267"><ele>21.200000000000003</ele><time>2026-04-28T08:50:41.06Z</time></trkpt><trkpt lat="39.9636267" lon="8.408855"><ele>21.400000000000002</ele><time>2026-04-28T08:50:42.06Z</time></trkpt><trkpt lat="39.9637067" lon="8.4087767"><ele>21.6</ele><time>2026-04-28T08:50:43.113Z</time></trkpt><trkpt lat="39.9637833" lon="8.408695"><ele>21.8</ele><time>2026-04-28T08:50:44.066Z</time></trkpt><trkpt lat="39.96386" lon="8.4086117"><ele>22.0</ele><time>2026-04-28T08:50:45.064Z</time></trkpt><trkpt lat="39.963935" lon="8.4085283"><ele>22.0</ele><time>2026-04-28T08:50:46.063Z</time></trkpt><trkpt lat="39.9640117" lon="8.4084417"><ele>22.0</ele><time>2026-04-28T08:50:47.062Z</time></trkpt><trkpt lat="39.9640883" lon="8.4083517"><ele>22.0</ele><time>2026-04-28T08:50:48.065Z</time></trkpt><trkpt lat="39.9641633" lon="8.4082617"><ele>22.0</ele><time>2026-04-28T08:50:49.104Z</time></trkpt><trkpt lat="39.9642417" lon="8.4081633"><ele>22.0</ele><time>2026-04-28T08:50:50.061Z</time></trkpt><trkpt lat="39.9643167" lon="8.40806"><ele>21.400000000000002</ele><time>2026-04-28T08:50:51.066Z</time></trkpt><trkpt lat="39.9643917" lon="8.4079583"><ele>20.8</ele><time>2026-04-28T08:50:52.066Z</time></trkpt><trkpt lat="39.96446" lon="8.4078583"><ele>20.2</ele><time>2026-04-28T08:50:53.063Z</time></trkpt><trkpt lat="39.96453" lon="8.4077583"><ele>19.6</ele><time>2026-04-28T08:50:54.065Z</time></trkpt><trkpt lat="39.9645983" lon="8.4076567"><ele>19.0</ele><time>2026-04-28T08:50:55.064Z</time></trkpt><trkpt lat="39.9646667" lon="8.4075533"><ele>19.0</ele><time>2026-04-28T08:50:56.062Z</time></trkpt><trkpt lat="39.9647333" lon="8.407445"><ele>19.0</ele><time>2026-04-28T08:50:57.068Z</time></trkpt><trkpt lat="39.9648017" lon="8.4073433"><ele>19.0</ele><time>2026-04-28T08:50:58.069Z</time></trkpt><trkpt lat="39.9648683" lon="8.40724"><ele>19.0</ele><time>2026-04-28T08:50:59.061Z</time></trkpt><trkpt lat="39.9649333" lon="8.4071367"><ele>19.0</ele><time>2026-04-28T08:51:00.061Z</time></trkpt><trkpt lat="39.9649983" lon="8.407035"><ele>18.8</ele><time>2026-04-28T08:51:01.065Z</time></trkpt><trkpt lat="39.9650617" lon="8.4069333"><ele>18.599999999999998</ele><time>2026-04-28T08:51:02.06Z</time></trkpt><trkpt lat="39.9651283" lon="8.4068333"><ele>18.4</ele><time>2026-04-28T08:51:03.058Z</time></trkpt><trkpt lat="39.9651967" lon="8.4067317"><ele>18.2</ele><time>2026-04-28T08:51:04.065Z</time></trkpt><trkpt lat="39.9652683" lon="8.4066283"><ele>18.0</ele><time>2026-04-28T08:51:05.062Z</time></trkpt><trkpt lat="39.965345" lon="8.4065267"><ele>18.0</ele><time>2026-04-28T08:51:06.06Z</time></trkpt><trkpt lat="39.9654183" lon="8.40643"><ele>18.0</ele><time>2026-04-28T08:51:07.108Z</time></trkpt><trkpt lat="39.9654967" lon="8.40634"><ele>18.0</ele><time>2026-04-28T08:51:08.061Z</time></trkpt><trkpt lat="39.9655783" lon="8.4062533"><ele>18.0</ele><time>2026-04-28T08:51:09.06Z</time></trkpt><trkpt lat="39.9656617" lon="8.4061683"><ele>18.0</ele><time>2026-04-28T08:51:10.056Z</time></trkpt><trkpt lat="39.9657433" lon="8.406085"><ele>17.6</ele><time>2026-04-28T08:51:11.059Z</time></trkpt><trkpt lat="39.96582" lon="8.4060033"><ele>17.200000000000003</ele><time>2026-04-28T08:51:12.061Z</time></trkpt><trkpt lat="39.9659" lon="8.4059167"><ele>16.8</ele><time>2026-04-28T08:51:13.106Z</time></trkpt><trkpt lat="39.9659767" lon="8.40583"><ele>16.400000000000002</ele><time>2026-04-28T08:51:14.06Z</time></trkpt><trkpt lat="39.96605" lon="8.40574"><ele>16.0</ele><time>2026-04-28T08:51:15.066Z</time></trkpt><trkpt lat="39.9661267" lon="8.405645"><ele>16.0</ele><time>2026-04-28T08:51:16.062Z</time></trkpt><trkpt lat="39.966205" lon="8.4055483"><ele>16.0</ele><time>2026-04-28T08:51:17.064Z</time></trkpt><trkpt lat="39.9662867" lon="8.4054567"><ele>16.0</ele><time>2026-04-28T08:51:18.061Z</time></trkpt><trkpt lat="39.96637" lon="8.4053683"><ele>16.0</ele><time>2026-04-28T08:51:19.105Z</time></trkpt><trkpt lat="39.9664567" lon="8.4052783"><ele>16.0</ele><time>2026-04-28T08:51:20.063Z</time></trkpt><trkpt lat="39.966545" lon="8.4051933"><ele>15.8</ele><time>2026-04-28T08:51:21.066Z</time></trkpt><trkpt lat="39.9666333" lon="8.4051067"><ele>15.600000000000001</ele><time>2026-04-28T08:51:22.057Z</time></trkpt><trkpt lat="39.966725" lon="8.4050233"><ele>15.4</ele><time>2026-04-28T08:51:23.064Z</time></trkpt><trkpt lat="39.9668183" lon="8.40494"><ele>15.2</ele><time>2026-04-28T08:51:24.07Z</time></trkpt><trkpt lat="39.9669083" lon="8.404865"><ele>15.0</ele><time>2026-04-28T08:51:25.129Z</time></trkpt><trkpt lat="39.966995" lon="8.4047967"><ele>15.0</ele><time>2026-04-28T08:51:26.057Z</time></trkpt><trkpt lat="39.967075" lon="8.4047333"><ele>15.0</ele><time>2026-04-28T08:51:27.062Z</time></trkpt><trkpt lat="39.967145" lon="8.40467"><ele>15.0</ele><time>2026-04-28T08:51:28.064Z</time></trkpt><trkpt lat="39.9672083" lon="8.40461"><ele>15.0</ele><time>2026-04-28T08:51:29.065Z</time></trkpt><trkpt lat="39.967275" lon="8.40455"><ele>15.0</ele><time>2026-04-28T08:51:30.063Z</time></trkpt><trkpt lat="39.9673417" lon="8.4044883"><ele>15.0</ele><time>2026-04-28T08:51:31.061Z</time></trkpt><trkpt lat="39.9674033" lon="8.4044283"><ele>14.714285714285715</ele><time>2026-04-28T08:51:32.062Z</time></trkpt><trkpt lat="39.9674617" lon="8.4043783"><ele>14.428571428571427</ele><time>2026-04-28T08:51:33.064Z</time></trkpt><trkpt lat="39.9675167" lon="8.4043317"><ele>14.142857142857142</ele><time>2026-04-28T08:51:34.065Z</time></trkpt><trkpt lat="39.9675767" lon="8.4042917"><ele>13.857142857142858</ele><time>2026-04-28T08:51:35.067Z</time></trkpt><trkpt lat="39.9676383" lon="8.404255"><ele>13.571428571428573</ele><time>2026-04-28T08:51:36.057Z</time></trkpt><trkpt lat="39.9677033" lon="8.4042217"><ele>13.285714285714285</ele><time>2026-04-28T08:51:37.109Z</time></trkpt><trkpt lat="39.967765" lon="8.40419"><ele>13.0</ele><time>2026-04-28T08:51:38.059Z</time></trkpt><trkpt lat="39.9678267" lon="8.4041583"><ele>13.0</ele><time>2026-04-28T08:51:39.062Z</time></trkpt><trkpt lat="39.967885" lon="8.4041233"><ele>13.0</ele><time>2026-04-28T08:51:40.066Z</time></trkpt><trkpt lat="39.9679483" lon="8.40409"><ele>13.0</ele><time>2026-04-28T08:51:41.064Z</time></trkpt><trkpt lat="39.968015" lon="8.4040567"><ele>13.0</ele><time>2026-04-28T08:51:42.066Z</time></trkpt><trkpt lat="39.968085" lon="8.404025"><ele>13.0</ele><time>2026-04-28T08:51:43.106Z</time></trkpt><trkpt lat="39.9681583" lon="8.4039983"><ele>13.0</ele><time>2026-04-28T08:51:44.059Z</time></trkpt><trkpt lat="39.96824" lon="8.4039767"><ele>13.0</ele><time>2026-04-28T08:51:45.06Z</time></trkpt><trkpt lat="39.96833" lon="8.4039533"><ele>13.4</ele><time>2026-04-28T08:51:46.072Z</time></trkpt><trkpt lat="39.9684233" lon="8.4039367"><ele>13.8</ele><time>2026-04-28T08:51:47.068Z</time></trkpt><trkpt lat="39.96852" lon="8.4039217"><ele>14.2</ele><time>2026-04-28T08:51:48.069Z</time></trkpt><trkpt lat="39.9686167" lon="8.403905"><ele>14.6</ele><time>2026-04-28T08:51:49.109Z</time></trkpt><trkpt lat="39.9687133" lon="8.4038817"><ele>15.0</ele><time>2026-04-28T08:51:50.057Z</time></trkpt><trkpt lat="39.96882" lon="8.4038567"><ele>15.0</ele><time>2026-04-28T08:51:51.064Z</time></trkpt><trkpt lat="39.968925" lon="8.403835"><ele>15.0</ele><time>2026-04-28T08:51:52.058Z</time></trkpt><trkpt lat="39.9690333" lon="8.4038133"><ele>15.0</ele><time>2026-04-28T08:51:53.062Z</time></trkpt><trkpt lat="39.9691433" lon="8.4037933"><ele>15.0</ele><time>2026-04-28T08:51:54.062Z</time></trkpt><trkpt lat="39.9692483" lon="8.4037733"><ele>15.0</ele><time>2026-04-28T08:51:55.058Z</time></trkpt><trkpt lat="39.9693533" lon="8.40375"><ele>14.6</ele><time>2026-04-28T08:51:56.062Z</time></trkpt><trkpt lat="39.969455" lon="8.4037233"><ele>14.2</ele><time>2026-04-28T08:51:57.06Z</time></trkpt><trkpt lat="39.9695533" lon="8.4037"><ele>13.8</ele><time>2026-04-28T08:51:58.067Z</time></trkpt><trkpt lat="39.9696533" lon="8.4036783"><ele>13.4</ele><time>2026-04-28T08:51:59.065Z</time></trkpt><trkpt lat="39.9697517" lon="8.4036533"><ele>13.0</ele><time>2026-04-28T08:52:00.066Z</time></trkpt><trkpt lat="39.969845" lon="8.4036283"><ele>12.999999999999998</ele><time>2026-04-28T08:52:01.066Z</time></trkpt><trkpt lat="39.9699267" lon="8.4036067"><ele>13.0</ele><time>2026-04-28T08:52:02.068Z</time></trkpt><trkpt lat="39.97" lon="8.403585"><ele>13.0</ele><time>2026-04-28T08:52:03.062Z</time></trkpt><trkpt lat="39.9700633" lon="8.4035633"><ele>13.0</ele><time>2026-04-28T08:52:04.067Z</time></trkpt><trkpt lat="39.9701783" lon="8.4035183"><ele>12.999999999999998</ele><time>2026-04-28T08:52:06.062Z</time></trkpt><trkpt lat="39.97026" lon="8.4034683"><ele>13.0</ele><time>2026-04-28T08:52:08.06Z</time></trkpt><trkpt lat="39.97031" lon="8.4034133"><ele>12.999999999999998</ele><time>2026-04-28T08:52:10.066Z</time></trkpt><trkpt lat="39.9703433" lon="8.4033417"><ele>13.0</ele><time>2026-04-28T08:52:12.063Z</time></trkpt><trkpt lat="39.9703233" lon="8.4032367"><ele>13.0</ele><time>2026-04-28T08:52:14.059Z</time></trkpt><trkpt lat="39.97028" lon="8.403165"><ele>13.0</ele><time>2026-04-28T08:52:15.061Z</time></trkpt><trkpt lat="39.97023" lon="8.4030783"><ele>12.999999999999998</ele><time>2026-04-28T08:52:16.062Z</time></trkpt><trkpt lat="39.9701733" lon="8.40298"><ele>13.0</ele><time>2026-04-28T08:52:17.063Z</time></trkpt><trkpt lat="39.97011" lon="8.4028683"><ele>12.5</ele><time>2026-04-28T08:52:18.065Z</time></trkpt><trkpt lat="39.9700417" lon="8.4027483"><ele>12.0</ele><time>2026-04-28T08:52:19.109Z</time></trkpt><trkpt lat="39.9699733" lon="8.4026267"><ele>11.5</ele><time>2026-04-28T08:52:20.058Z</time></trkpt><trkpt lat="39.9699017" lon="8.4025"><ele>11.0</ele><time>2026-04-28T08:52:21.06Z</time></trkpt><trkpt lat="39.9698333" lon="8.40237"><ele>11.0</ele><time>2026-04-28T08:52:22.061Z</time></trkpt><trkpt lat="39.9697667" lon="8.4022433"><ele>11.0</ele><time>2026-04-28T08:52:23.06Z</time></trkpt><trkpt lat="39.9697017" lon="8.4021067"><ele>11.0</ele><time>2026-04-28T08:52:24.062Z</time></trkpt><trkpt lat="39.9696367" lon="8.4019783"><ele>11.0</ele><time>2026-04-28T08:52:25.128Z</time></trkpt><trkpt lat="39.969575" lon="8.40186"><ele>10.0</ele><time>2026-04-28T08:52:26.062Z</time></trkpt><trkpt lat="39.9695183" lon="8.40175"><ele>9.0</ele><time>2026-04-28T08:52:27.064Z</time></trkpt><trkpt lat="39.9694683" lon="8.4016383"><ele>8.0</ele><time>2026-04-28T08:52:28.061Z</time></trkpt><trkpt lat="39.9694167" lon="8.4015333"><ele>7.0</ele><time>2026-04-28T08:52:29.062Z</time></trkpt><trkpt lat="39.9693633" lon="8.4014333"><ele>6.0</ele><time>2026-04-28T08:52:30.057Z</time></trkpt><trkpt lat="39.96931" lon="8.40133"><ele>5.6</ele><time>2026-04-28T08:52:31.063Z</time></trkpt><trkpt lat="39.9692567" lon="8.40123"><ele>5.199999999999999</ele><time>2026-04-28T08:52:32.06Z</time></trkpt><trkpt lat="39.969205" lon="8.4011317"><ele>4.800000000000001</ele><time>2026-04-28T08:52:33.059Z</time></trkpt><trkpt lat="39.9691517" lon="8.4010333"><ele>4.4</ele><time>2026-04-28T08:52:34.062Z</time></trkpt><trkpt lat="39.9691017" lon="8.4009383"><ele>4.0</ele><time>2026-04-28T08:52:35.056Z</time></trkpt><trkpt lat="39.9690483" lon="8.4008533"><ele>3.8000000000000003</ele><time>2026-04-28T08:52:36.066Z</time></trkpt><trkpt lat="39.9689983" lon="8.4007767"><ele>3.6000000000000005</ele><time>2026-04-28T08:52:37.109Z</time></trkpt><trkpt lat="39.9689567" lon="8.400645"><ele>3.4</ele><time>2026-04-28T08:52:39.06Z</time></trkpt><trkpt lat="39.96896" lon="8.4005483"><ele>3.2</ele><time>2026-04-28T08:52:41.061Z</time></trkpt><trkpt lat="39.9690417" lon="8.4004917"><ele>3.0</ele><time>2026-04-28T08:52:43.105Z</time></trkpt><trkpt lat="39.9691467" lon="8.400455"><ele>2.6</ele><time>2026-04-28T08:52:45.067Z</time></trkpt><trkpt lat="39.9692417" lon="8.400405"><ele>2.1999999999999997</ele><time>2026-04-28T08:52:47.059Z</time></trkpt><trkpt lat="39.969335" lon="8.4003483"><ele>1.8</ele><time>2026-04-28T08:52:49.105Z</time></trkpt><trkpt lat="39.9694183" lon="8.4002933"><ele>1.4</ele><time>2026-04-28T08:52:51.064Z</time></trkpt><trkpt lat="39.9694967" lon="8.4002517"><ele>1.0</ele><time>2026-04-28T08:52:53.058Z</time></trkpt><trkpt lat="39.9695817" lon="8.4001967"><ele>1.0</ele><time>2026-04-28T08:52:55.057Z</time></trkpt><trkpt lat="39.96967" lon="8.400145"><ele>1.0</ele><time>2026-04-28T08:52:57.063Z</time></trkpt><trkpt lat="39.969735" lon="8.400115"><ele>1.0</ele><time>2026-04-28T08:52:59.07Z</time></trkpt><trkpt lat="39.9698033" lon="8.4000883"><ele>1.0</ele><time>2026-04-28T08:53:04.061Z</time></trkpt><trkpt lat="39.96993" lon="8.4000083"><ele>1.0</ele><time>2026-04-28T08:53:16.063Z</time></trkpt><trkpt lat="39.9700183" lon="8.3999483"><ele>1.6666666666666665</ele><time>2026-04-28T08:53:17.062Z</time></trkpt><trkpt lat="39.970135" lon="8.3998667"><ele>2.3333333333333335</ele><time>2026-04-28T08:53:18.066Z</time></trkpt><trkpt lat="39.9702767" lon="8.3997717"><ele>3.0</ele><time>2026-04-28T08:53:19.108Z</time></trkpt><trkpt lat="39.970425" lon="8.3996733"><ele>2.3333333333333335</ele><time>2026-04-28T08:53:20.061Z</time></trkpt><trkpt lat="39.9705767" lon="8.3995717"><ele>1.6666666666666665</ele><time>2026-04-28T08:53:21.062Z</time></trkpt><trkpt lat="39.9707233" lon="8.39948"><ele>1.0</ele><time>2026-04-28T08:53:22.059Z</time></trkpt><trkpt lat="39.9708567" lon="8.399395"><ele>1.5</ele><time>2026-04-28T08:53:23.065Z</time></trkpt><trkpt lat="39.9709867" lon="8.3993117"><ele>2.0</ele><time>2026-04-28T08:53:24.065Z</time></trkpt><trkpt lat="39.9711167" lon="8.39923"><ele>2.5</ele><time>2026-04-28T08:53:25.06Z</time></trkpt><trkpt lat="39.9712467" lon="8.3991467"><ele>3.0</ele><time>2026-04-28T08:53:26.057Z</time></trkpt><trkpt lat="39.9713783" lon="8.3990617"><ele>3.0</ele><time>2026-04-28T08:53:27.06Z</time></trkpt><trkpt lat="39.97151" lon="8.3989767"><ele>3.0</ele><time>2026-04-28T08:53:28.064Z</time></trkpt><trkpt lat="39.9716383" lon="8.3988933"><ele>3.0</ele><time>2026-04-28T08:53:29.063Z</time></trkpt><trkpt lat="39.971765" lon="8.398815"><ele>3.0</ele><time>2026-04-28T08:53:30.068Z</time></trkpt><trkpt lat="39.97189" lon="8.39874"><ele>2.5</ele><time>2026-04-28T08:53:31.06Z</time></trkpt><trkpt lat="39.9720183" lon="8.3986633"><ele>2.0</ele><time>2026-04-28T08:53:32.067Z</time></trkpt><trkpt lat="39.9721433" lon="8.3985917"><ele>1.5</ele><time>2026-04-28T08:53:33.059Z</time></trkpt><trkpt lat="39.9722617" lon="8.3985217"><ele>1.0</ele><time>2026-04-28T08:53:34.064Z</time></trkpt><trkpt lat="39.9723767" lon="8.3984483"><ele>1.0</ele><time>2026-04-28T08:53:35.062Z</time></trkpt><trkpt lat="39.97249" lon="8.3983617"><ele>1.0</ele><time>2026-04-28T08:53:36.06Z</time></trkpt><trkpt lat="39.972595" lon="8.3982633"><ele>1.0</ele><time>2026-04-28T08:53:37.113Z</time></trkpt><trkpt lat="39.9726917" lon="8.3981517"><ele>1.0</ele><time>2026-04-28T08:53:38.055Z</time></trkpt><trkpt lat="39.9727883" lon="8.3980167"><ele>1.5</ele><time>2026-04-28T08:53:39.059Z</time></trkpt><trkpt lat="39.9728817" lon="8.3978783"><ele>2.0</ele><time>2026-04-28T08:53:40.065Z</time></trkpt><trkpt lat="39.9729733" lon="8.3977317"><ele>2.5</ele><time>2026-04-28T08:53:41.062Z</time></trkpt><trkpt lat="39.9730717" lon="8.397575"><ele>3.0</ele><time>2026-04-28T08:53:42.057Z</time></trkpt><trkpt lat="39.973165" lon="8.39742"><ele>3.0</ele><time>2026-04-28T08:53:43.105Z</time></trkpt><trkpt lat="39.973255" lon="8.3972783"><ele>3.0</ele><time>2026-04-28T08:53:44.062Z</time></trkpt><trkpt lat="39.97334" lon="8.3971367"><ele>3.0</ele><time>2026-04-28T08:53:45.061Z</time></trkpt><trkpt lat="39.97342" lon="8.3969917"><ele>3.0</ele><time>2026-04-28T08:53:46.062Z</time></trkpt><trkpt lat="39.97349" lon="8.3968467"><ele>2.75</ele><time>2026-04-28T08:53:47.061Z</time></trkpt><trkpt lat="39.9735533" lon="8.3966967"><ele>2.5</ele><time>2026-04-28T08:53:48.059Z</time></trkpt><trkpt lat="39.9736067" lon="8.3965417"><ele>2.25</ele><time>2026-04-28T08:53:49.112Z</time></trkpt><trkpt lat="39.9736633" lon="8.3963883"><ele>2.0</ele><time>2026-04-28T08:53:50.06Z</time></trkpt><trkpt lat="39.973715" lon="8.3962433"><ele>1.8</ele><time>2026-04-28T08:53:51.063Z</time></trkpt><trkpt lat="39.9737617" lon="8.396105"><ele>1.6</ele><time>2026-04-28T08:53:52.058Z</time></trkpt><trkpt lat="39.9737983" lon="8.3959717"><ele>1.4000000000000001</ele><time>2026-04-28T08:53:53.058Z</time></trkpt><trkpt lat="39.9738267" lon="8.395835"><ele>1.2000000000000002</ele><time>2026-04-28T08:53:54.068Z</time></trkpt><trkpt lat="39.9738483" lon="8.39571"><ele>1.0</ele><time>2026-04-28T08:53:55.062Z</time></trkpt><trkpt lat="39.9738617" lon="8.39559"><ele>1.2000000000000002</ele><time>2026-04-28T08:53:56.059Z</time></trkpt><trkpt lat="39.9738617" lon="8.3954717"><ele>1.4000000000000001</ele><time>2026-04-28T08:53:57.057Z</time></trkpt><trkpt lat="39.9738517" lon="8.39535"><ele>1.6</ele><time>2026-04-28T08:53:58.061Z</time></trkpt><trkpt lat="39.9738283" lon="8.39523"><ele>1.8</ele><time>2026-04-28T08:53:59.065Z</time></trkpt><trkpt lat="39.9737867" lon="8.395115"><ele>2.0</ele><time>2026-04-28T08:54:00.058Z</time></trkpt><trkpt lat="39.97372" lon="8.3950033"><ele>1.9999999999999998</ele><time>2026-04-28T08:54:01.063Z</time></trkpt><trkpt lat="39.9736517" lon="8.394905"><ele>2.0</ele><time>2026-04-28T08:54:02.058Z</time></trkpt><trkpt lat="39.9735817" lon="8.394815"><ele>2.0</ele><time>2026-04-28T08:54:03.056Z</time></trkpt><trkpt lat="39.9735183" lon="8.3947367"><ele>2.0</ele><time>2026-04-28T08:54:04.064Z</time></trkpt><trkpt lat="39.9734583" lon="8.39467"><ele>1.9999999999999998</ele><time>2026-04-28T08:54:05.06Z</time></trkpt><trkpt lat="39.9734083" lon="8.394615"><ele>2.0</ele><time>2026-04-28T08:54:06.07Z</time></trkpt><trkpt lat="39.97332" lon="8.394515"><ele>2.0</ele><time>2026-04-28T08:54:08.06Z</time></trkpt><trkpt lat="39.9732467" lon="8.3944133"><ele>2.0</ele><time>2026-04-28T08:54:10.058Z</time></trkpt><trkpt lat="39.973195" lon="8.3943117"><ele>2.0</ele><time>2026-04-28T08:54:12.068Z</time></trkpt><trkpt lat="39.97316" lon="8.3942017"><ele>2.0</ele><time>2026-04-28T08:54:14.06Z</time></trkpt><trkpt lat="39.973155" lon="8.3940583"><ele>2.0</ele><time>2026-04-28T08:54:16.057Z</time></trkpt><trkpt lat="39.9731683" lon="8.3939683"><ele>1.9999999999999998</ele><time>2026-04-28T08:54:17.064Z</time></trkpt><trkpt lat="39.9731817" lon="8.39388"><ele>2.0</ele><time>2026-04-28T08:54:18.06Z</time></trkpt><trkpt lat="39.9731917" lon="8.39379"><ele>2.0</ele><time>2026-04-28T08:54:19.11Z</time></trkpt><trkpt lat="39.9731933" lon="8.3937"><ele>2.0</ele><time>2026-04-28T08:54:20.062Z</time></trkpt><trkpt lat="39.97319" lon="8.3936133"><ele>1.9999999999999998</ele><time>2026-04-28T08:54:21.058Z</time></trkpt><trkpt lat="39.9731733" lon="8.3934567"><ele>2.0</ele><time>2026-04-28T08:54:23.066Z</time></trkpt><trkpt lat="39.9731833" lon="8.3933"><ele>2.0</ele><time>2026-04-28T08:54:25.066Z</time></trkpt><trkpt lat="39.9732433" lon="8.3931767"><ele>2.0</ele><time>2026-04-28T08:54:27.062Z</time></trkpt><trkpt lat="39.9733333" lon="8.3930933"><ele>2.0</ele><time>2026-04-28T08:54:29.061Z</time></trkpt><trkpt lat="39.97344" lon="8.3930133"><ele>2.0</ele><time>2026-04-28T08:54:31.066Z</time></trkpt><trkpt lat="39.9735" lon="8.3929817"><ele>2.0</ele><time>2026-04-28T08:54:32.061Z</time></trkpt><trkpt lat="39.9736133" lon="8.392945"><ele>1.6666666666666665</ele><time>2026-04-28T08:54:34.063Z</time></trkpt><trkpt lat="39.9737183" lon="8.3929233"><ele>1.3333333333333333</ele><time>2026-04-28T08:54:36.065Z</time></trkpt><trkpt lat="39.9738033" lon="8.3929167"><ele>1.0</ele><time>2026-04-28T08:54:38.058Z</time></trkpt><trkpt lat="39.9738933" lon="8.3928983"><ele>0.6666666666666666</ele><time>2026-04-28T08:54:41.062Z</time></trkpt><trkpt lat="39.9739567" lon="8.3928717"><ele>0.3333333333333333</ele><time>2026-04-28T08:54:43.109Z</time></trkpt><trkpt lat="39.9740267" lon="8.3928317"><ele>0.0</ele><time>2026-04-28T08:54:45.063Z</time></trkpt><trkpt lat="39.9740933" lon="8.392785"><ele>0.0</ele><time>2026-04-28T08:54:47.066Z</time></trkpt><trkpt lat="39.974135" lon="8.3927233"><ele>0.0</ele><time>2026-04-28T08:54:49.104Z</time></trkpt><trkpt lat="39.974175" lon="8.392655"><ele>0.0</ele><time>2026-04-28T08:54:51.057Z</time></trkpt><trkpt lat="39.974245" lon="8.39259"><ele>0.0</ele><time>2026-04-28T08:54:53.067Z</time></trkpt><trkpt lat="39.974325" lon="8.3925483"><ele>0.0</ele><time>2026-04-28T08:54:55.133Z</time></trkpt><trkpt lat="39.9744033" lon="8.3925"><ele>0.0</ele><time>2026-04-28T08:54:57.057Z</time></trkpt><trkpt lat="39.9745033" lon="8.39246"><ele>0.0</ele><time>2026-04-28T08:54:59.062Z</time></trkpt><trkpt lat="39.9746083" lon="8.3924483"><ele>0.0</ele><time>2026-04-28T08:55:01.059Z</time></trkpt><trkpt lat="39.974705" lon="8.392435"><ele>0.0</ele><time>2026-04-28T08:55:03.062Z</time></trkpt><trkpt lat="39.974795" lon="8.3924067"><ele>0.0</ele><time>2026-04-28T08:55:05.06Z</time></trkpt><trkpt lat="39.97488" lon="8.392365"><ele>0.0</ele><time>2026-04-28T08:55:07.106Z</time></trkpt><trkpt lat="39.974945" lon="8.392335"><ele>0.0</ele><time>2026-04-28T08:55:09.057Z</time></trkpt><trkpt lat="39.97502" lon="8.392275"><ele>0.0</ele><time>2026-04-28T08:55:12.059Z</time></trkpt><trkpt lat="39.9750867" lon="8.392215"><ele>0.0</ele><time>2026-04-28T08:55:14.062Z</time></trkpt><trkpt lat="39.9751583" lon="8.3921533"><ele>0.0</ele><time>2026-04-28T08:55:16.063Z</time></trkpt><trkpt lat="39.9752333" lon="8.3920967"><ele>0.0</ele><time>2026-04-28T08:55:18.058Z</time></trkpt><trkpt lat="39.9752933" lon="8.39205"><ele>0.0</ele><time>2026-04-28T08:55:20.057Z</time></trkpt><trkpt lat="39.9753583" lon="8.3920183"><ele>0.0</ele><time>2026-04-28T08:55:23.062Z</time></trkpt><trkpt lat="39.9754133" lon="8.3920717"><ele>0.0</ele><time>2026-04-28T08:55:34.064Z</time></trkpt><trkpt lat="39.9754167" lon="8.3921633"><ele>0.0</ele><time>2026-04-28T08:55:36.065Z</time></trkpt><trkpt lat="39.9753933" lon="8.392295"><ele>0.0</ele><time>2026-04-28T08:55:38.06Z</time></trkpt><trkpt lat="39.97537" lon="8.392435"><ele>0.0</ele><time>2026-04-28T08:55:40.057Z</time></trkpt><trkpt lat="39.9753567" lon="8.3925467"><ele>0.0</ele><time>2026-04-28T08:55:42.062Z</time></trkpt><trkpt lat="39.9753533" lon="8.392665"><ele>0.0</ele><time>2026-04-28T08:55:45.062Z</time></trkpt><trkpt lat="39.9754183" lon="8.3927733"><ele>0.0</ele><time>2026-04-28T08:55:48.063Z</time></trkpt><trkpt lat="39.9755033" lon="8.392875"><ele>0.0</ele><time>2026-04-28T08:55:50.057Z</time></trkpt><trkpt lat="39.975595" lon="8.3929483"><ele>0.0</ele><time>2026-04-28T08:55:52.059Z</time></trkpt><trkpt lat="39.975685" lon="8.39302"><ele>0.0</ele><time>2026-04-28T08:55:54.056Z</time></trkpt><trkpt lat="39.97576" lon="8.39312"><ele>0.16666666666666666</ele><time>2026-04-28T08:55:56.057Z</time></trkpt><trkpt lat="39.9758483" lon="8.3932217"><ele>0.3333333333333333</ele><time>2026-04-28T08:55:58.062Z</time></trkpt><trkpt lat="39.9759017" lon="8.39327"><ele>0.5</ele><time>2026-04-28T08:55:59.063Z</time></trkpt><trkpt lat="39.9759633" lon="8.393315"><ele>0.6666666666666666</ele><time>2026-04-28T08:56:00.064Z</time></trkpt><trkpt lat="39.97602" lon="8.3933583"><ele>0.8333333333333333</ele><time>2026-04-28T08:56:01.121Z</time></trkpt><trkpt lat="39.976075" lon="8.393405"><ele>1.0</ele><time>2026-04-28T08:56:02.056Z</time></trkpt><trkpt lat="39.9761667" lon="8.39349"><ele>1.5</ele><time>2026-04-28T08:56:04.056Z</time></trkpt><trkpt lat="39.97623" lon="8.3935833"><ele>2.0</ele><time>2026-04-28T08:56:06.063Z</time></trkpt><trkpt lat="39.9763033" lon="8.3936533"><ele>2.5</ele><time>2026-04-28T08:56:08.056Z</time></trkpt><trkpt lat="39.976415" lon="8.39367"><ele>3.0</ele><time>2026-04-28T08:56:10.066Z</time></trkpt><trkpt lat="39.976485" lon="8.3936783"><ele>3.4999999999999996</ele><time>2026-04-28T08:56:11.06Z</time></trkpt><trkpt lat="39.97656" lon="8.3936917"><ele>4.0</ele><time>2026-04-28T08:56:12.064Z</time></trkpt><trkpt lat="39.976635" lon="8.3937083"><ele>3.4285714285714284</ele><time>2026-04-28T08:56:13.105Z</time></trkpt><trkpt lat="39.976705" lon="8.3937283"><ele>2.8571428571428568</ele><time>2026-04-28T08:56:14.056Z</time></trkpt><trkpt lat="39.9767733" lon="8.3937417"><ele>2.2857142857142856</ele><time>2026-04-28T08:56:15.062Z</time></trkpt><trkpt lat="39.976845" lon="8.39375"><ele>1.7142857142857142</ele><time>2026-04-28T08:56:16.058Z</time></trkpt><trkpt lat="39.9769133" lon="8.3937633"><ele>1.1428571428571428</ele><time>2026-04-28T08:56:17.061Z</time></trkpt><trkpt lat="39.9769833" lon="8.39378"><ele>0.5714285714285714</ele><time>2026-04-28T08:56:18.058Z</time></trkpt><trkpt lat="39.9770567" lon="8.393795"><ele>0.0</ele><time>2026-04-28T08:56:19.106Z</time></trkpt><trkpt lat="39.9771233" lon="8.3938067"><ele>0.0</ele><time>2026-04-28T08:56:20.054Z</time></trkpt><trkpt lat="39.977245" lon="8.39383"><ele>0.0</ele><time>2026-04-28T08:56:22.068Z</time></trkpt><trkpt lat="39.9773083" lon="8.3938417"><ele>0.0</ele><time>2026-04-28T08:56:23.058Z</time></trkpt><trkpt lat="39.9773733" lon="8.3938583"><ele>0.0</ele><time>2026-04-28T08:56:24.059Z</time></trkpt><trkpt lat="39.97744" lon="8.393875"><ele>0.0</ele><time>2026-04-28T08:56:25.124Z</time></trkpt><trkpt lat="39.977505" lon="8.3938933"><ele>0.0</ele><time>2026-04-28T08:56:26.056Z</time></trkpt><trkpt lat="39.97757" lon="8.39391"><ele>0.3333333333333333</ele><time>2026-04-28T08:56:27.061Z</time></trkpt><trkpt lat="39.9776317" lon="8.3939333"><ele>0.6666666666666666</ele><time>2026-04-28T08:56:28.06Z</time></trkpt><trkpt lat="39.97773" lon="8.3940083"><ele>1.0</ele><time>2026-04-28T08:56:30.057Z</time></trkpt><trkpt lat="39.9778283" lon="8.3941067"><ele>1.3333333333333333</ele><time>2026-04-28T08:56:32.056Z</time></trkpt><trkpt lat="39.9778817" lon="8.3941667"><ele>1.6666666666666665</ele><time>2026-04-28T08:56:33.056Z</time></trkpt><trkpt lat="39.9779383" lon="8.3942233"><ele>2.0</ele><time>2026-04-28T08:56:34.063Z</time></trkpt><trkpt lat="39.9779967" lon="8.394275"><ele>2.0</ele><time>2026-04-28T08:56:35.06Z</time></trkpt><trkpt lat="39.9780567" lon="8.3943117"><ele>1.9999999999999998</ele><time>2026-04-28T08:56:36.063Z</time></trkpt><trkpt lat="39.9781183" lon="8.3943383"><ele>2.0</ele><time>2026-04-28T08:56:37.115Z</time></trkpt><trkpt lat="39.9781833" lon="8.39436"><ele>2.0</ele><time>2026-04-28T08:56:38.058Z</time></trkpt><trkpt lat="39.9782483" lon="8.3943867"><ele>1.9999999999999998</ele><time>2026-04-28T08:56:39.058Z</time></trkpt><trkpt lat="39.9783083" lon="8.3944183"><ele>2.0</ele><time>2026-04-28T08:56:40.064Z</time></trkpt><trkpt lat="39.9783617" lon="8.394465"><ele>2.0</ele><time>2026-04-28T08:56:41.058Z</time></trkpt><trkpt lat="39.97846" lon="8.3945667"><ele>1.8</ele><time>2026-04-28T08:56:43.104Z</time></trkpt><trkpt lat="39.9785133" lon="8.3946117"><ele>1.6</ele><time>2026-04-28T08:56:44.06Z</time></trkpt><trkpt lat="39.9786233" lon="8.3946917"><ele>1.4000000000000001</ele><time>2026-04-28T08:56:46.059Z</time></trkpt><trkpt lat="39.9786817" lon="8.3947267"><ele>1.2000000000000002</ele><time>2026-04-28T08:56:47.06Z</time></trkpt><trkpt lat="39.9787933" lon="8.3947533"><ele>1.0</ele><time>2026-04-28T08:56:49.106Z</time></trkpt><trkpt lat="39.978905" lon="8.3947733"><ele>1.25</ele><time>2026-04-28T08:56:51.064Z</time></trkpt><trkpt lat="39.9790067" lon="8.3948417"><ele>1.5</ele><time>2026-04-28T08:56:53.059Z</time></trkpt><trkpt lat="39.9791033" lon="8.3949183"><ele>1.75</ele><time>2026-04-28T08:56:55.118Z</time></trkpt><trkpt lat="39.979205" lon="8.394995"><ele>2.0</ele><time>2026-04-28T08:56:57.061Z</time></trkpt><trkpt lat="39.9793133" lon="8.3950883"><ele>2.0</ele><time>2026-04-28T08:56:59.059Z</time></trkpt><trkpt lat="39.97937" lon="8.3951367"><ele>1.9999999999999998</ele><time>2026-04-28T08:57:00.061Z</time></trkpt><trkpt lat="39.9794317" lon="8.395185"><ele>2.0</ele><time>2026-04-28T08:57:01.118Z</time></trkpt><trkpt lat="39.9794933" lon="8.3952383"><ele>2.0</ele><time>2026-04-28T08:57:02.062Z</time></trkpt><trkpt lat="39.979555" lon="8.3952967"><ele>1.9999999999999998</ele><time>2026-04-28T08:57:03.056Z</time></trkpt><trkpt lat="39.9796117" lon="8.3953617"><ele>2.0</ele><time>2026-04-28T08:57:04.059Z</time></trkpt><trkpt lat="39.9796717" lon="8.3954267"><ele>2.0</ele><time>2026-04-28T08:57:05.057Z</time></trkpt><trkpt lat="39.979735" lon="8.3954833"><ele>1.8333333333333333</ele><time>2026-04-28T08:57:06.06Z</time></trkpt><trkpt lat="39.9798017" lon="8.3955383"><ele>1.6666666666666665</ele><time>2026-04-28T08:57:07.109Z</time></trkpt><trkpt lat="39.9798667" lon="8.3955917"><ele>1.5</ele><time>2026-04-28T08:57:08.057Z</time></trkpt><trkpt lat="39.9799283" lon="8.395645"><ele>1.3333333333333333</ele><time>2026-04-28T08:57:09.06Z</time></trkpt><trkpt lat="39.9799833" lon="8.3956933"><ele>1.1666666666666665</ele><time>2026-04-28T08:57:10.062Z</time></trkpt><trkpt lat="39.9800767" lon="8.3957917"><ele>1.0</ele><time>2026-04-28T08:57:12.066Z</time></trkpt><trkpt lat="39.980125" lon="8.39585"><ele>1.0</ele><time>2026-04-28T08:57:13.107Z</time></trkpt><trkpt lat="39.9802017" lon="8.3959783"><ele>1.0</ele><time>2026-04-28T08:57:15.057Z</time></trkpt><trkpt lat="39.98026" lon="8.396125"><ele>1.0</ele><time>2026-04-28T08:57:17.056Z</time></trkpt><trkpt lat="39.9803017" lon="8.39619"><ele>1.0</ele><time>2026-04-28T08:57:18.064Z</time></trkpt><trkpt lat="39.9803517" lon="8.39625"><ele>1.0</ele><time>2026-04-28T08:57:19.108Z</time></trkpt><trkpt lat="39.980405" lon="8.396305"><ele>3.25</ele><time>2026-04-28T08:57:20.056Z</time></trkpt><trkpt lat="39.98051" lon="8.3963967"><ele>5.5</ele><time>2026-04-28T08:57:22.061Z</time></trkpt><trkpt lat="39.9806067" lon="8.3964883"><ele>7.75</ele><time>2026-04-28T08:57:24.057Z</time></trkpt><trkpt lat="39.9807083" lon="8.3965417"><ele>10.0</ele><time>2026-04-28T08:57:26.053Z</time></trkpt><trkpt lat="39.9808133" lon="8.3965183"><ele>9.6</ele><time>2026-04-28T08:57:28.065Z</time></trkpt><trkpt lat="39.9809317" lon="8.3965267"><ele>9.2</ele><time>2026-04-28T08:57:30.059Z</time></trkpt><trkpt lat="39.9810333" lon="8.3965717"><ele>8.8</ele><time>2026-04-28T08:57:32.054Z</time></trkpt><trkpt lat="39.9811233" lon="8.3966417"><ele>8.4</ele><time>2026-04-28T08:57:34.063Z</time></trkpt><trkpt lat="39.98121" lon="8.39672"><ele>8.0</ele><time>2026-04-28T08:57:36.058Z</time></trkpt><trkpt lat="39.981275" lon="8.3968117"><ele>8.0</ele><time>2026-04-28T08:57:38.053Z</time></trkpt><trkpt lat="39.9813383" lon="8.3968983"><ele>8.0</ele><time>2026-04-28T08:57:40.057Z</time></trkpt><trkpt lat="39.9814133" lon="8.3969933"><ele>8.0</ele><time>2026-04-28T08:57:42.061Z</time></trkpt><trkpt lat="39.981495" lon="8.39709"><ele>8.0</ele><time>2026-04-28T08:57:44.058Z</time></trkpt><trkpt lat="39.9815717" lon="8.3971967"><ele>8.0</ele><time>2026-04-28T08:57:46.059Z</time></trkpt><trkpt lat="39.9816533" lon="8.397315"><ele>7.75</ele><time>2026-04-28T08:57:48.059Z</time></trkpt><trkpt lat="39.9817283" lon="8.397435"><ele>7.5</ele><time>2026-04-28T08:57:50.058Z</time></trkpt><trkpt lat="39.9817967" lon="8.3975533"><ele>7.25</ele><time>2026-04-28T08:57:52.062Z</time></trkpt><trkpt lat="39.9818717" lon="8.3976617"><ele>7.0</ele><time>2026-04-28T08:57:54.06Z</time></trkpt><trkpt lat="39.9819617" lon="8.397755"><ele>7.000000000000001</ele><time>2026-04-28T08:57:56.066Z</time></trkpt><trkpt lat="39.9820117" lon="8.397805"><ele>7.0</ele><time>2026-04-28T08:57:57.061Z</time></trkpt><trkpt lat="39.9820667" lon="8.39786"><ele>7.0</ele><time>2026-04-28T08:57:58.055Z</time></trkpt><trkpt lat="39.9821183" lon="8.3979117"><ele>7.0</ele><time>2026-04-28T08:57:59.055Z</time></trkpt><trkpt lat="39.982215" lon="8.3980083"><ele>7.000000000000001</ele><time>2026-04-28T08:58:01.115Z</time></trkpt><trkpt lat="39.9823083" lon="8.3981033"><ele>7.0</ele><time>2026-04-28T08:58:03.058Z</time></trkpt><trkpt lat="39.9823533" lon="8.3981617"><ele>6.714285714285714</ele><time>2026-04-28T08:58:04.056Z</time></trkpt><trkpt lat="39.9824333" lon="8.398275"><ele>6.428571428571429</ele><time>2026-04-28T08:58:06.057Z</time></trkpt><trkpt lat="39.9824767" lon="8.398335"><ele>6.142857142857142</ele><time>2026-04-28T08:58:07.104Z</time></trkpt><trkpt lat="39.9825233" lon="8.3983967"><ele>5.857142857142858</ele><time>2026-04-28T08:58:08.059Z</time></trkpt><trkpt lat="39.982575" lon="8.398445"><ele>5.571428571428571</ele><time>2026-04-28T08:58:09.063Z</time></trkpt><trkpt lat="39.9826283" lon="8.3985"><ele>5.285714285714286</ele><time>2026-04-28T08:58:10.059Z</time></trkpt><trkpt lat="39.98268" lon="8.3985583"><ele>5.0</ele><time>2026-04-28T08:58:11.063Z</time></trkpt><trkpt lat="39.98273" lon="8.398625"><ele>5.0</ele><time>2026-04-28T08:58:12.066Z</time></trkpt><trkpt lat="39.982775" lon="8.3986933"><ele>5.0</ele><time>2026-04-28T08:58:13.104Z</time></trkpt><trkpt lat="39.9828117" lon="8.3987617"><ele>5.0</ele><time>2026-04-28T08:58:14.056Z</time></trkpt><trkpt lat="39.9828683" lon="8.39888"><ele>5.0</ele><time>2026-04-28T08:58:16.062Z</time></trkpt><trkpt lat="39.98295" lon="8.3990033"><ele>5.0</ele><time>2026-04-28T08:58:18.068Z</time></trkpt><trkpt lat="39.9830617" lon="8.3991"><ele>6.285714285714286</ele><time>2026-04-28T08:58:20.059Z</time></trkpt><trkpt lat="39.9831217" lon="8.3991483"><ele>7.571428571428571</ele><time>2026-04-28T08:58:21.067Z</time></trkpt><trkpt lat="39.9831883" lon="8.3991967"><ele>8.857142857142858</ele><time>2026-04-28T08:58:22.059Z</time></trkpt><trkpt lat="39.9832517" lon="8.39924"><ele>10.142857142857142</ele><time>2026-04-28T08:58:23.063Z</time></trkpt><trkpt lat="39.9833167" lon="8.399285"><ele>11.428571428571429</ele><time>2026-04-28T08:58:24.063Z</time></trkpt><trkpt lat="39.9833783" lon="8.3993267"><ele>12.714285714285714</ele><time>2026-04-28T08:58:25.087Z</time></trkpt><trkpt lat="39.9834433" lon="8.3993717"><ele>14.0</ele><time>2026-04-28T08:58:26.062Z</time></trkpt><trkpt lat="39.98351" lon="8.3994167"><ele>14.000000000000002</ele><time>2026-04-28T08:58:27.065Z</time></trkpt><trkpt lat="39.9835883" lon="8.3994583"><ele>14.0</ele><time>2026-04-28T08:58:28.062Z</time></trkpt><trkpt lat="39.9836667" lon="8.3994967"><ele>14.0</ele><time>2026-04-28T08:58:29.055Z</time></trkpt><trkpt lat="39.983745" lon="8.3995283"><ele>14.0</ele><time>2026-04-28T08:58:30.063Z</time></trkpt><trkpt lat="39.9838217" lon="8.3995483"><ele>14.000000000000002</ele><time>2026-04-28T08:58:31.062Z</time></trkpt><trkpt lat="39.9839" lon="8.39956"><ele>14.0</ele><time>2026-04-28T08:58:32.065Z</time></trkpt><trkpt lat="39.9839733" lon="8.3995617"><ele>14.0</ele><time>2026-04-28T08:58:33.064Z</time></trkpt><trkpt lat="39.98404" lon="8.3995483"><ele>14.0</ele><time>2026-04-28T08:58:34.061Z</time></trkpt><trkpt lat="39.9841033" lon="8.39952"><ele>14.0</ele><time>2026-04-28T08:58:35.061Z</time></trkpt><trkpt lat="39.984165" lon="8.3994717"><ele>14.0</ele><time>2026-04-28T08:58:36.069Z</time></trkpt><trkpt lat="39.984215" lon="8.3994"><ele>14.0</ele><time>2026-04-28T08:58:37.107Z</time></trkpt><trkpt lat="39.9842633" lon="8.39933"><ele>14.0</ele><time>2026-04-28T08:58:38.053Z</time></trkpt><trkpt lat="39.9843083" lon="8.3992617"><ele>14.0</ele><time>2026-04-28T08:58:39.057Z</time></trkpt><trkpt lat="39.9843633" lon="8.3992067"><ele>14.428571428571429</ele><time>2026-04-28T08:58:40.059Z</time></trkpt><trkpt lat="39.98442" lon="8.3991683"><ele>14.857142857142858</ele><time>2026-04-28T08:58:41.061Z</time></trkpt><trkpt lat="39.984485" lon="8.3991367"><ele>15.285714285714285</ele><time>2026-04-28T08:58:42.057Z</time></trkpt><trkpt lat="39.9845517" lon="8.3991117"><ele>15.714285714285714</ele><time>2026-04-28T08:58:43.103Z</time></trkpt><trkpt lat="39.9846217" lon="8.3991"><ele>16.142857142857142</ele><time>2026-04-28T08:58:44.066Z</time></trkpt><trkpt lat="39.9846917" lon="8.3990983"><ele>16.57142857142857</ele><time>2026-04-28T08:58:45.063Z</time></trkpt><trkpt lat="39.98476" lon="8.3991033"><ele>17.0</ele><time>2026-04-28T08:58:46.058Z</time></trkpt><trkpt lat="39.9848217" lon="8.3991267"><ele>16.999999999999996</ele><time>2026-04-28T08:58:47.059Z</time></trkpt><trkpt lat="39.9848817" lon="8.3991583"><ele>17.0</ele><time>2026-04-28T08:58:48.058Z</time></trkpt><trkpt lat="39.9849467" lon="8.3991833"><ele>17.0</ele><time>2026-04-28T08:58:49.106Z</time></trkpt><trkpt lat="39.985015" lon="8.3991983"><ele>17.0</ele><time>2026-04-28T08:58:50.06Z</time></trkpt><trkpt lat="39.9850917" lon="8.399205"><ele>17.0</ele><time>2026-04-28T08:58:51.062Z</time></trkpt><trkpt lat="39.9851667" lon="8.39921"><ele>16.999999999999996</ele><time>2026-04-28T08:58:52.052Z</time></trkpt><trkpt lat="39.9852383" lon="8.3992217"><ele>17.0</ele><time>2026-04-28T08:58:53.057Z</time></trkpt><trkpt lat="39.98531" lon="8.3992317"><ele>16.428571428571427</ele><time>2026-04-28T08:58:54.057Z</time></trkpt><trkpt lat="39.9853783" lon="8.3992467"><ele>15.857142857142858</ele><time>2026-04-28T08:58:55.122Z</time></trkpt><trkpt lat="39.98544" lon="8.39927"><ele>15.285714285714285</ele><time>2026-04-28T08:58:56.055Z</time></trkpt><trkpt lat="39.9855033" lon="8.399305"><ele>14.714285714285714</ele><time>2026-04-28T08:58:57.059Z</time></trkpt><trkpt lat="39.9855683" lon="8.3993367"><ele>14.142857142857142</ele><time>2026-04-28T08:58:58.058Z</time></trkpt><trkpt lat="39.9856383" lon="8.3993717"><ele>13.571428571428571</ele><time>2026-04-28T08:58:59.064Z</time></trkpt><trkpt lat="39.9857" lon="8.39942"><ele>13.0</ele><time>2026-04-28T08:59:00.06Z</time></trkpt><trkpt lat="39.9857617" lon="8.399475"><ele>13.0</ele><time>2026-04-28T08:59:01.125Z</time></trkpt><trkpt lat="39.9858167" lon="8.3995333"><ele>13.0</ele><time>2026-04-28T08:59:02.062Z</time></trkpt><trkpt lat="39.9858733" lon="8.3995917"><ele>13.0</ele><time>2026-04-28T08:59:03.069Z</time></trkpt><trkpt lat="39.98593" lon="8.3996483"><ele>13.0</ele><time>2026-04-28T08:59:04.053Z</time></trkpt><trkpt lat="39.9859867" lon="8.39971"><ele>13.0</ele><time>2026-04-28T08:59:05.056Z</time></trkpt><trkpt lat="39.9860483" lon="8.3997733"><ele>13.0</ele><time>2026-04-28T08:59:06.055Z</time></trkpt><trkpt lat="39.986115" lon="8.3998367"><ele>13.0</ele><time>2026-04-28T08:59:07.111Z</time></trkpt><trkpt lat="39.9861817" lon="8.3998967"><ele>13.166666666666666</ele><time>2026-04-28T08:59:08.059Z</time></trkpt><trkpt lat="39.9862467" lon="8.3999567"><ele>13.333333333333332</ele><time>2026-04-28T08:59:09.059Z</time></trkpt><trkpt lat="39.98631" lon="8.40002"><ele>13.5</ele><time>2026-04-28T08:59:10.061Z</time></trkpt><trkpt lat="39.9863767" lon="8.400085"><ele>13.666666666666668</ele><time>2026-04-28T08:59:11.057Z</time></trkpt><trkpt lat="39.9864467" lon="8.4001567"><ele>13.833333333333334</ele><time>2026-04-28T08:59:12.061Z</time></trkpt><trkpt lat="39.98651" lon="8.400235"><ele>14.0</ele><time>2026-04-28T08:59:13.109Z</time></trkpt><trkpt lat="39.986575" lon="8.4003083"><ele>14.000000000000002</ele><time>2026-04-28T08:59:14.059Z</time></trkpt><trkpt lat="39.9866417" lon="8.4003767"><ele>14.0</ele><time>2026-04-28T08:59:15.058Z</time></trkpt><trkpt lat="39.9867067" lon="8.4004483"><ele>14.0</ele><time>2026-04-28T08:59:16.061Z</time></trkpt><trkpt lat="39.9867767" lon="8.4005233"><ele>14.0</ele><time>2026-04-28T08:59:17.062Z</time></trkpt><trkpt lat="39.9868467" lon="8.4005933"><ele>14.000000000000002</ele><time>2026-04-28T08:59:18.061Z</time></trkpt><trkpt lat="39.9869167" lon="8.4006567"><ele>14.0</ele><time>2026-04-28T08:59:19.102Z</time></trkpt><trkpt lat="39.986985" lon="8.400725"><ele>14.000000000000002</ele><time>2026-04-28T08:59:20.054Z</time></trkpt><trkpt lat="39.98705" lon="8.4007883"><ele>14.0</ele><time>2026-04-28T08:59:21.071Z</time></trkpt><trkpt lat="39.9871167" lon="8.4008533"><ele>14.0</ele><time>2026-04-28T08:59:22.067Z</time></trkpt><trkpt lat="39.98718" lon="8.4009167"><ele>14.0</ele><time>2026-04-28T08:59:23.061Z</time></trkpt><trkpt lat="39.9872433" lon="8.4009733"><ele>14.000000000000002</ele><time>2026-04-28T08:59:24.062Z</time></trkpt><trkpt lat="39.9873133" lon="8.4010233"><ele>14.0</ele><time>2026-04-28T08:59:25.127Z</time></trkpt><trkpt lat="39.987385" lon="8.4010733"><ele>14.000000000000002</ele><time>2026-04-28T08:59:26.06Z</time></trkpt><trkpt lat="39.987465" lon="8.4011267"><ele>14.0</ele><time>2026-04-28T08:59:27.058Z</time></trkpt><trkpt lat="39.987535" lon="8.4011833"><ele>14.0</ele><time>2026-04-28T08:59:28.064Z</time></trkpt><trkpt lat="39.9875983" lon="8.401245"><ele>14.0</ele><time>2026-04-28T08:59:29.06Z</time></trkpt><trkpt lat="39.9876633" lon="8.4013"><ele>14.000000000000002</ele><time>2026-04-28T08:59:30.062Z</time></trkpt><trkpt lat="39.98772" lon="8.40135"><ele>14.0</ele><time>2026-04-28T08:59:31.122Z</time></trkpt><trkpt lat="39.9878133" lon="8.4014367"><ele>14.5</ele><time>2026-04-28T08:59:33.06Z</time></trkpt><trkpt lat="39.9878983" lon="8.4015233"><ele>15.0</ele><time>2026-04-28T08:59:35.059Z</time></trkpt><trkpt lat="39.9879917" lon="8.4016017"><ele>15.5</ele><time>2026-04-28T08:59:37.111Z</time></trkpt><trkpt lat="39.9880933" lon="8.4016767"><ele>16.0</ele><time>2026-04-28T08:59:39.062Z</time></trkpt><trkpt lat="39.9882" lon="8.4017583"><ele>16.0</ele><time>2026-04-28T08:59:41.062Z</time></trkpt><trkpt lat="39.988255" lon="8.4018"><ele>15.999999999999998</ele><time>2026-04-28T08:59:42.064Z</time></trkpt><trkpt lat="39.988315" lon="8.4018417"><ele>16.0</ele><time>2026-04-28T08:59:43.115Z</time></trkpt><trkpt lat="39.9883783" lon="8.401885"><ele>16.0</ele><time>2026-04-28T08:59:44.062Z</time></trkpt><trkpt lat="39.9884467" lon="8.4019283"><ele>15.999999999999998</ele><time>2026-04-28T08:59:45.059Z</time></trkpt><trkpt lat="39.9885183" lon="8.401975"><ele>16.0</ele><time>2026-04-28T08:59:46.063Z</time></trkpt><trkpt lat="39.988585" lon="8.4020167"><ele>16.0</ele><time>2026-04-28T08:59:47.058Z</time></trkpt><trkpt lat="39.9886467" lon="8.4020583"><ele>16.833333333333332</ele><time>2026-04-28T08:59:48.072Z</time></trkpt><trkpt lat="39.9887067" lon="8.4021"><ele>17.666666666666664</ele><time>2026-04-28T08:59:49.101Z</time></trkpt><trkpt lat="39.9887967" lon="8.4021783"><ele>18.5</ele><time>2026-04-28T08:59:51.06Z</time></trkpt><trkpt lat="39.9888767" lon="8.4022233"><ele>19.333333333333332</ele><time>2026-04-28T08:59:53.057Z</time></trkpt><trkpt lat="39.9889417" lon="8.4022483"><ele>20.166666666666668</ele><time>2026-04-28T08:59:55.127Z</time></trkpt><trkpt lat="39.9890067" lon="8.4022633"><ele>21.0</ele><time>2026-04-28T08:59:57.064Z</time></trkpt><trkpt lat="39.989095" lon="8.4022733"><ele>20.0</ele><time>2026-04-28T08:59:59.065Z</time></trkpt><trkpt lat="39.9892033" lon="8.4022583"><ele>19.0</ele><time>2026-04-28T09:00:01.098Z</time></trkpt><trkpt lat="39.9893267" lon="8.4022467"><ele>18.0</ele><time>2026-04-28T09:00:03.062Z</time></trkpt><trkpt lat="39.9894067" lon="8.4022467"><ele>17.0</ele><time>2026-04-28T09:00:04.059Z</time></trkpt><trkpt lat="39.9894767" lon="8.4022483"><ele>16.0</ele><time>2026-04-28T09:00:05.061Z</time></trkpt><trkpt lat="39.989595" lon="8.4022517"><ele>16.0</ele><time>2026-04-28T09:00:07.11Z</time></trkpt><trkpt lat="39.9896917" lon="8.4022283"><ele>16.0</ele><time>2026-04-28T09:00:09.065Z</time></trkpt><trkpt lat="39.9898017" lon="8.4022183"><ele>16.0</ele><time>2026-04-28T09:00:11.062Z</time></trkpt><trkpt lat="39.98992" lon="8.4022833"><ele>16.0</ele><time>2026-04-28T09:00:13.105Z</time></trkpt><trkpt lat="39.9899917" lon="8.4023083"><ele>16.0</ele><time>2026-04-28T09:00:14.057Z</time></trkpt><trkpt lat="39.9900517" lon="8.4023483"><ele>13.4</ele><time>2026-04-28T09:00:15.057Z</time></trkpt><trkpt lat="39.990105" lon="8.4023933"><ele>10.8</ele><time>2026-04-28T09:00:16.064Z</time></trkpt><trkpt lat="39.9901933" lon="8.402505"><ele>8.2</ele><time>2026-04-28T09:00:18.06Z</time></trkpt><trkpt lat="39.9902683" lon="8.4026467"><ele>5.6</ele><time>2026-04-28T09:00:20.061Z</time></trkpt><trkpt lat="39.990305" lon="8.4027233"><ele>3.0</ele><time>2026-04-28T09:00:21.064Z</time></trkpt><trkpt lat="39.990355" lon="8.4028617"><ele>4.0</ele><time>2026-04-28T09:00:23.059Z</time></trkpt><trkpt lat="39.99039" lon="8.403"><ele>5.0</ele><time>2026-04-28T09:00:25.128Z</time></trkpt><trkpt lat="39.9904167" lon="8.4031533"><ele>6.000000000000001</ele><time>2026-04-28T09:00:27.065Z</time></trkpt><trkpt lat="39.9904583" lon="8.40331"><ele>7.0</ele><time>2026-04-28T09:00:29.065Z</time></trkpt><trkpt lat="39.9904867" lon="8.4033883"><ele>8.0</ele><time>2026-04-28T09:00:30.059Z</time></trkpt><trkpt lat="39.9905133" lon="8.40347"><ele>8.0</ele><time>2026-04-28T09:00:31.122Z</time></trkpt><trkpt lat="39.9905433" lon="8.403555"><ele>7.999999999999999</ele><time>2026-04-28T09:00:32.057Z</time></trkpt><trkpt lat="39.9905733" lon="8.4036433"><ele>8.0</ele><time>2026-04-28T09:00:33.06Z</time></trkpt><trkpt lat="39.9906" lon="8.4037217"><ele>8.0</ele><time>2026-04-28T09:00:34.059Z</time></trkpt><trkpt lat="39.99063" lon="8.4037967"><ele>7.999999999999999</ele><time>2026-04-28T09:00:35.065Z</time></trkpt><trkpt lat="39.9906567" lon="8.4038717"><ele>8.0</ele><time>2026-04-28T09:00:36.063Z</time></trkpt><trkpt lat="39.9906883" lon="8.4039567"><ele>8.0</ele><time>2026-04-28T09:00:37.11Z</time></trkpt><trkpt lat="39.9907183" lon="8.4040367"><ele>8.0</ele><time>2026-04-28T09:00:38.062Z</time></trkpt><trkpt lat="39.9907517" lon="8.4041133"><ele>7.999999999999999</ele><time>2026-04-28T09:00:39.06Z</time></trkpt><trkpt lat="39.99079" lon="8.4041817"><ele>8.0</ele><time>2026-04-28T09:00:40.061Z</time></trkpt><trkpt lat="39.9908383" lon="8.40425"><ele>8.0</ele><time>2026-04-28T09:00:41.061Z</time></trkpt><trkpt lat="39.9909" lon="8.404305"><ele>7.999999999999999</ele><time>2026-04-28T09:00:42.063Z</time></trkpt><trkpt lat="39.9909683" lon="8.4043517"><ele>8.0</ele><time>2026-04-28T09:00:43.112Z</time></trkpt><trkpt lat="39.9910383" lon="8.404395"><ele>8.0</ele><time>2026-04-28T09:00:44.058Z</time></trkpt><trkpt lat="39.9911017" lon="8.4044333"><ele>7.999999999999999</ele><time>2026-04-28T09:00:45.064Z</time></trkpt><trkpt lat="39.99117" lon="8.40447"><ele>8.0</ele><time>2026-04-28T09:00:46.061Z</time></trkpt><trkpt lat="39.9912417" lon="8.4045"><ele>8.0</ele><time>2026-04-28T09:00:47.055Z</time></trkpt><trkpt lat="39.9913133" lon="8.40453"><ele>8.0</ele><time>2026-04-28T09:00:48.059Z</time></trkpt><trkpt lat="39.9913833" lon="8.404555"><ele>7.999999999999999</ele><time>2026-04-28T09:00:49.108Z</time></trkpt><trkpt lat="39.9914583" lon="8.404585"><ele>8.0</ele><time>2026-04-28T09:00:50.056Z</time></trkpt><trkpt lat="39.9915283" lon="8.4046317"><ele>7.666666666666666</ele><time>2026-04-28T09:00:51.059Z</time></trkpt><trkpt lat="39.9915883" lon="8.4046867"><ele>7.333333333333333</ele><time>2026-04-28T09:00:52.056Z</time></trkpt><trkpt lat="39.9916317" lon="8.40475"><ele>7.0</ele><time>2026-04-28T09:00:53.06Z</time></trkpt><trkpt lat="39.9917117" lon="8.4048817"><ele>6.666666666666666</ele><time>2026-04-28T09:00:55.075Z</time></trkpt><trkpt lat="39.9917517" lon="8.4049467"><ele>6.333333333333333</ele><time>2026-04-28T09:00:56.056Z</time></trkpt><trkpt lat="39.991795" lon="8.405015"><ele>6.0</ele><time>2026-04-28T09:00:57.06Z</time></trkpt><trkpt lat="39.9918417" lon="8.4050783"><ele>6.0</ele><time>2026-04-28T09:00:58.064Z</time></trkpt><trkpt lat="39.99189" lon="8.4051367"><ele>6.0</ele><time>2026-04-28T09:00:59.061Z</time></trkpt><trkpt lat="39.99194" lon="8.405195"><ele>6.0</ele><time>2026-04-28T09:01:00.061Z</time></trkpt><trkpt lat="39.9919867" lon="8.4052583"><ele>6.0</ele><time>2026-04-28T09:01:01.121Z</time></trkpt><trkpt lat="39.9920333" lon="8.4053183"><ele>6.0</ele><time>2026-04-28T09:01:02.064Z</time></trkpt><trkpt lat="39.9920833" lon="8.4053683"><ele>6.0</ele><time>2026-04-28T09:01:03.058Z</time></trkpt><trkpt lat="39.9921883" lon="8.40546"><ele>7.666666666666666</ele><time>2026-04-28T09:01:05.062Z</time></trkpt><trkpt lat="39.9922433" lon="8.4055033"><ele>9.333333333333332</ele><time>2026-04-28T09:01:06.061Z</time></trkpt><trkpt lat="39.9923567" lon="8.405575"><ele>11.0</ele><time>2026-04-28T09:01:08.057Z</time></trkpt><trkpt lat="39.9924233" lon="8.40561"><ele>12.666666666666666</ele><time>2026-04-28T09:01:09.065Z</time></trkpt><trkpt lat="39.992485" lon="8.405645"><ele>14.333333333333332</ele><time>2026-04-28T09:01:10.057Z</time></trkpt><trkpt lat="39.99255" lon="8.4056767"><ele>16.0</ele><time>2026-04-28T09:01:11.066Z</time></trkpt><trkpt lat="39.99261" lon="8.4057067"><ele>15.999999999999998</ele><time>2026-04-28T09:01:12.054Z</time></trkpt><trkpt lat="39.99267" lon="8.4057333"><ele>16.0</ele><time>2026-04-28T09:01:13.111Z</time></trkpt><trkpt lat="39.9927333" lon="8.4057533"><ele>16.0</ele><time>2026-04-28T09:01:14.061Z</time></trkpt><trkpt lat="39.9927967" lon="8.4057717"><ele>16.0</ele><time>2026-04-28T09:01:15.061Z</time></trkpt><trkpt lat="39.99286" lon="8.40579"><ele>15.999999999999998</ele><time>2026-04-28T09:01:16.061Z</time></trkpt><trkpt lat="39.9929717" lon="8.40582"><ele>16.0</ele><time>2026-04-28T09:01:18.066Z</time></trkpt><trkpt lat="39.9930633" lon="8.405845"><ele>16.0</ele><time>2026-04-28T09:01:20.056Z</time></trkpt><trkpt lat="39.993155" lon="8.40588"><ele>16.0</ele><time>2026-04-28T09:01:22.061Z</time></trkpt><trkpt lat="39.9932517" lon="8.4059583"><ele>16.0</ele><time>2026-04-28T09:01:24.062Z</time></trkpt><trkpt lat="39.9933317" lon="8.406055"><ele>16.0</ele><time>2026-04-28T09:01:26.057Z</time></trkpt><trkpt lat="39.9934083" lon="8.4061483"><ele>16.0</ele><time>2026-04-28T09:01:28.063Z</time></trkpt><trkpt lat="39.993495" lon="8.406235"><ele>15.499999999999998</ele><time>2026-04-28T09:01:30.065Z</time></trkpt><trkpt lat="39.99358" lon="8.40627"><ele>15.0</ele><time>2026-04-28T09:01:32.065Z</time></trkpt><trkpt lat="39.993665" lon="8.4062417"><ele>14.5</ele><time>2026-04-28T09:01:34.065Z</time></trkpt><trkpt lat="39.99372" lon="8.4061633"><ele>14.0</ele><time>2026-04-28T09:01:36.061Z</time></trkpt><trkpt lat="39.993765" lon="8.4060717"><ele>13.499999999999998</ele><time>2026-04-28T09:01:38.057Z</time></trkpt><trkpt lat="39.9938233" lon="8.406"><ele>13.0</ele><time>2026-04-28T09:01:40.063Z</time></trkpt><trkpt lat="39.9939017" lon="8.4059383"><ele>13.0</ele><time>2026-04-28T09:01:42.057Z</time></trkpt><trkpt lat="39.993965" lon="8.4058667"><ele>13.0</ele><time>2026-04-28T09:01:44.055Z</time></trkpt><trkpt lat="39.99403" lon="8.4057783"><ele>13.0</ele><time>2026-04-28T09:01:46.057Z</time></trkpt><trkpt lat="39.994115" lon="8.405685"><ele>13.0</ele><time>2026-04-28T09:01:48.057Z</time></trkpt><trkpt lat="39.9942067" lon="8.4055767"><ele>13.0</ele><time>2026-04-28T09:01:50.055Z</time></trkpt><trkpt lat="39.9942883" lon="8.4054833"><ele>12.200000000000001</ele><time>2026-04-28T09:01:52.057Z</time></trkpt><trkpt lat="39.99437" lon="8.4054233"><ele>11.4</ele><time>2026-04-28T09:01:54.063Z</time></trkpt><trkpt lat="39.994465" lon="8.4054067"><ele>10.600000000000001</ele><time>2026-04-28T09:01:56.057Z</time></trkpt><trkpt lat="39.9945583" lon="8.405445"><ele>9.8</ele><time>2026-04-28T09:01:58.06Z</time></trkpt><trkpt lat="39.99465" lon="8.4055133"><ele>9.0</ele><time>2026-04-28T09:02:00.059Z</time></trkpt><trkpt lat="39.994735" lon="8.405615"><ele>9.0</ele><time>2026-04-28T09:02:02.058Z</time></trkpt><trkpt lat="39.9948183" lon="8.4057383"><ele>9.0</ele><time>2026-04-28T09:02:04.059Z</time></trkpt><trkpt lat="39.9948617" lon="8.4058033"><ele>9.0</ele><time>2026-04-28T09:02:05.058Z</time></trkpt><trkpt lat="39.99494" lon="8.405925"><ele>9.0</ele><time>2026-04-28T09:02:07.11Z</time></trkpt><trkpt lat="39.9950083" lon="8.4060383"><ele>9.0</ele><time>2026-04-28T09:02:09.058Z</time></trkpt><trkpt lat="39.9950467" lon="8.4061433"><ele>7.666666666666667</ele><time>2026-04-28T09:02:11.06Z</time></trkpt><trkpt lat="39.9950683" lon="8.406235"><ele>6.333333333333333</ele><time>2026-04-28T09:02:12.06Z</time></trkpt><trkpt lat="39.9950883" lon="8.4063267"><ele>5.0</ele><time>2026-04-28T09:02:13.106Z</time></trkpt><trkpt lat="39.9950983" lon="8.4064233"><ele>3.6666666666666665</ele><time>2026-04-28T09:02:14.062Z</time></trkpt><trkpt lat="39.995085" lon="8.4065217"><ele>2.333333333333333</ele><time>2026-04-28T09:02:15.056Z</time></trkpt><trkpt lat="39.9950617" lon="8.4066267"><ele>1.0</ele><time>2026-04-28T09:02:16.053Z</time></trkpt><trkpt lat="39.9950417" lon="8.4067317"><ele>0.9999999999999999</ele><time>2026-04-28T09:02:17.064Z</time></trkpt><trkpt lat="39.99504" lon="8.4068283"><ele>1.0</ele><time>2026-04-28T09:02:18.059Z</time></trkpt><trkpt lat="39.995035" lon="8.4069183"><ele>1.0</ele><time>2026-04-28T09:02:19.109Z</time></trkpt><trkpt lat="39.9950233" lon="8.407005"><ele>1.0</ele><time>2026-04-28T09:02:20.062Z</time></trkpt><trkpt lat="39.9950117" lon="8.4070883"><ele>0.9999999999999999</ele><time>2026-04-28T09:02:21.06Z</time></trkpt><trkpt lat="39.9950117" lon="8.40725"><ele>1.0</ele><time>2026-04-28T09:02:23.06Z</time></trkpt><trkpt lat="39.9950133" lon="8.407335"><ele>0.9999999999999999</ele><time>2026-04-28T09:02:24.063Z</time></trkpt><trkpt lat="39.99501" lon="8.4074183"><ele>1.0</ele><time>2026-04-28T09:02:25.125Z</time></trkpt><trkpt lat="39.9950067" lon="8.4075033"><ele>1.0</ele><time>2026-04-28T09:02:26.06Z</time></trkpt><trkpt lat="39.9950067" lon="8.4076583"><ele>1.0</ele><time>2026-04-28T09:02:28.062Z</time></trkpt><trkpt lat="39.9950167" lon="8.4078217"><ele>0.9999999999999999</ele><time>2026-04-28T09:02:30.057Z</time></trkpt><trkpt lat="39.995025" lon="8.4079067"><ele>1.0</ele><time>2026-04-28T09:02:31.115Z</time></trkpt><trkpt lat="39.9950367" lon="8.4080767"><ele>1.5714285714285714</ele><time>2026-04-28T09:02:33.057Z</time></trkpt><trkpt lat="39.9950483" lon="8.4081633"><ele>2.142857142857143</ele><time>2026-04-28T09:02:34.061Z</time></trkpt><trkpt lat="39.9950817" lon="8.4082533"><ele>2.7142857142857144</ele><time>2026-04-28T09:02:35.061Z</time></trkpt><trkpt lat="39.9951233" lon="8.4083317"><ele>3.2857142857142856</ele><time>2026-04-28T09:02:36.061Z</time></trkpt><trkpt lat="39.99517" lon="8.4084"><ele>3.857142857142857</ele><time>2026-04-28T09:02:37.109Z</time></trkpt><trkpt lat="39.99522" lon="8.4084667"><ele>4.428571428571429</ele><time>2026-04-28T09:02:38.058Z</time></trkpt><trkpt lat="39.9952733" lon="8.408525"><ele>5.0</ele><time>2026-04-28T09:02:39.058Z</time></trkpt><trkpt lat="39.99533" lon="8.4085733"><ele>5.0</ele><time>2026-04-28T09:02:40.059Z</time></trkpt><trkpt lat="39.99539" lon="8.4086117"><ele>5.0</ele><time>2026-04-28T09:02:41.061Z</time></trkpt><trkpt lat="39.9954517" lon="8.4086517"><ele>5.0</ele><time>2026-04-28T09:02:42.056Z</time></trkpt><trkpt lat="39.9955117" lon="8.4086967"><ele>5.0</ele><time>2026-04-28T09:02:43.109Z</time></trkpt><trkpt lat="39.9955717" lon="8.408745"><ele>5.0</ele><time>2026-04-28T09:02:44.061Z</time></trkpt><trkpt lat="39.9956333" lon="8.40879"><ele>5.0</ele><time>2026-04-28T09:02:45.06Z</time></trkpt><trkpt lat="39.9957333" lon="8.408855"><ele>5.6</ele><time>2026-04-28T09:02:47.063Z</time></trkpt><trkpt lat="39.99586" lon="8.4088883"><ele>6.2</ele><time>2026-04-28T09:08:52.057Z</time></trkpt><trkpt lat="39.995905" lon="8.4089833"><ele>6.800000000000001</ele><time>2026-04-28T09:08:55.116Z</time></trkpt><trkpt lat="39.9959733" lon="8.4090983"><ele>7.4</ele><time>2026-04-28T09:08:57.051Z</time></trkpt><trkpt lat="39.9960667" lon="8.4091917"><ele>8.0</ele><time>2026-04-28T09:08:59.061Z</time></trkpt><trkpt lat="39.9961633" lon="8.4092283"><ele>8.0</ele><time>2026-04-28T09:09:01.123Z</time></trkpt><trkpt lat="39.9962667" lon="8.40928"><ele>8.0</ele><time>2026-04-28T09:09:03.056Z</time></trkpt><trkpt lat="39.9963683" lon="8.40935"><ele>8.0</ele><time>2026-04-28T09:09:05.058Z</time></trkpt><trkpt lat="39.9964683" lon="8.4094167"><ele>8.0</ele><time>2026-04-28T09:09:07.107Z</time></trkpt><trkpt lat="39.9965533" lon="8.409465"><ele>8.0</ele><time>2026-04-28T09:09:09.06Z</time></trkpt><trkpt lat="39.9966183" lon="8.4094933"><ele>7.4</ele><time>2026-04-28T09:09:11.054Z</time></trkpt><trkpt lat="39.9966967" lon="8.4095233"><ele>6.800000000000001</ele><time>2026-04-28T09:09:13.112Z</time></trkpt><trkpt lat="39.9968133" lon="8.4095267"><ele>6.2</ele><time>2026-04-28T09:09:15.054Z</time></trkpt><trkpt lat="39.9968783" lon="8.409535"><ele>5.6</ele><time>2026-04-28T09:09:16.051Z</time></trkpt><trkpt lat="39.9969417" lon="8.409555"><ele>5.0</ele><time>2026-04-28T09:09:17.051Z</time></trkpt><trkpt lat="39.99706" lon="8.409615"><ele>5.0</ele><time>2026-04-28T09:09:19.116Z</time></trkpt><trkpt lat="39.9971817" lon="8.4096517"><ele>5.0</ele><time>2026-04-28T09:09:21.053Z</time></trkpt><trkpt lat="39.9972967" lon="8.40967"><ele>5.0</ele><time>2026-04-28T09:09:23.053Z</time></trkpt><trkpt lat="39.9973967" lon="8.4097"><ele>5.0</ele><time>2026-04-28T09:09:25.113Z</time></trkpt><trkpt lat="39.9974767" lon="8.4097567"><ele>5.0</ele><time>2026-04-28T09:09:27.058Z</time></trkpt><trkpt lat="39.9975533" lon="8.40982"><ele>6.25</ele><time>2026-04-28T09:09:29.054Z</time></trkpt><trkpt lat="39.99765" lon="8.4098417"><ele>7.5</ele><time>2026-04-28T09:09:31.118Z</time></trkpt><trkpt lat="39.997745" lon="8.4098317"><ele>8.75</ele><time>2026-04-28T09:09:33.052Z</time></trkpt><trkpt lat="39.9979667" lon="8.40981"><ele>10.0</ele><time>2026-04-28T09:09:38.055Z</time></trkpt><trkpt lat="39.9980667" lon="8.4098317"><ele>10.0</ele><time>2026-04-28T09:09:40.064Z</time></trkpt><trkpt lat="39.998175" lon="8.4098717"><ele>10.0</ele><time>2026-04-28T09:09:42.06Z</time></trkpt><trkpt lat="39.99826" lon="8.4099183"><ele>10.0</ele><time>2026-04-28T09:09:44.054Z</time></trkpt><trkpt lat="39.9983367" lon="8.409965"><ele>10.0</ele><time>2026-04-28T09:09:46.052Z</time></trkpt><trkpt lat="39.9984" lon="8.4100217"><ele>10.0</ele><time>2026-04-28T09:09:48.062Z</time></trkpt><trkpt lat="39.9984467" lon="8.4100967"><ele>10.0</ele><time>2026-04-28T09:09:50.057Z</time></trkpt><trkpt lat="39.998495" lon="8.41018"><ele>9.4</ele><time>2026-04-28T09:09:52.061Z</time></trkpt><trkpt lat="39.9985767" lon="8.4102467"><ele>8.8</ele><time>2026-04-28T09:09:54.08Z</time></trkpt><trkpt lat="39.9986717" lon="8.4102933"><ele>8.2</ele><time>2026-04-28T09:09:56.057Z</time></trkpt><trkpt lat="39.9987617" lon="8.4103533"><ele>7.6</ele><time>2026-04-28T09:09:58.059Z</time></trkpt><trkpt lat="39.9988333" lon="8.4104533"><ele>7.0</ele><time>2026-04-28T09:10:00.052Z</time></trkpt><trkpt lat="39.9989033" lon="8.4105917"><ele>7.000000000000001</ele><time>2026-04-28T09:10:02.053Z</time></trkpt><trkpt lat="39.998935" lon="8.4106667"><ele>7.0</ele><time>2026-04-28T09:10:03.052Z</time></trkpt><trkpt lat="39.998965" lon="8.4107483"><ele>7.0</ele><time>2026-04-28T09:10:04.057Z</time></trkpt><trkpt lat="39.9989883" lon="8.4108267"><ele>7.0</ele><time>2026-04-28T09:10:05.055Z</time></trkpt><trkpt lat="39.99903" lon="8.41096"><ele>7.000000000000001</ele><time>2026-04-28T09:10:07.112Z</time></trkpt><trkpt lat="39.999085" lon="8.411065"><ele>7.0</ele><time>2026-04-28T09:10:09.054Z</time></trkpt><trkpt lat="39.99915" lon="8.4111767"><ele>7.8</ele><time>2026-04-28T09:10:11.059Z</time></trkpt><trkpt lat="39.9992383" lon="8.4112683"><ele>8.6</ele><time>2026-04-28T09:10:13.11Z</time></trkpt><trkpt lat="39.99934" lon="8.41134"><ele>9.4</ele><time>2026-04-28T09:10:15.055Z</time></trkpt><trkpt lat="39.9994367" lon="8.4113867"><ele>10.200000000000001</ele><time>2026-04-28T09:10:17.059Z</time></trkpt><trkpt lat="39.9995317" lon="8.411445"><ele>11.0</ele><time>2026-04-28T09:10:19.108Z</time></trkpt><trkpt lat="39.9996317" lon="8.4114617"><ele>11.0</ele><time>2026-04-28T09:10:21.062Z</time></trkpt><trkpt lat="39.99975" lon="8.4114667"><ele>11.0</ele><time>2026-04-28T09:10:23.054Z</time></trkpt><trkpt lat="39.99987" lon="8.4114867"><ele>11.0</ele><time>2026-04-28T09:10:25.132Z</time></trkpt><trkpt lat="39.9999333" lon="8.4114883"><ele>11.0</ele><time>2026-04-28T09:10:26.054Z</time></trkpt><trkpt lat="40.000055" lon="8.4114967"><ele>11.0</ele><time>2026-04-28T09:10:28.055Z</time></trkpt><trkpt lat="40.0001667" lon="8.4115"><ele>11.0</ele><time>2026-04-28T09:10:30.052Z</time></trkpt><trkpt lat="40.0002283" lon="8.4115183"><ele>11.0</ele><time>2026-04-28T09:10:31.118Z</time></trkpt><trkpt lat="40.0003467" lon="8.411595"><ele>11.0</ele><time>2026-04-28T09:10:33.061Z</time></trkpt><trkpt lat="40.00042" lon="8.4116417"><ele>11.0</ele><time>2026-04-28T09:10:34.057Z</time></trkpt><trkpt lat="40.0005017" lon="8.4116817"><ele>11.0</ele><time>2026-04-28T09:10:35.058Z</time></trkpt><trkpt lat="40.0005783" lon="8.4117167"><ele>11.0</ele><time>2026-04-28T09:10:36.063Z</time></trkpt><trkpt lat="40.0006417" lon="8.4117433"><ele>11.0</ele><time>2026-04-28T09:10:37.112Z</time></trkpt><trkpt lat="40.0007533" lon="8.4117717"><ele>11.0</ele><time>2026-04-28T09:10:39.06Z</time></trkpt><trkpt lat="40.0008717" lon="8.411785"><ele>11.0</ele><time>2026-04-28T09:10:41.063Z</time></trkpt><trkpt lat="40.0009633" lon="8.411795"><ele>11.0</ele><time>2026-04-28T09:10:43.107Z</time></trkpt><trkpt lat="40.001035" lon="8.4117717"><ele>11.0</ele><time>2026-04-28T09:10:45.054Z</time></trkpt><trkpt lat="40.0011033" lon="8.411745"><ele>11.25</ele><time>2026-04-28T09:10:47.053Z</time></trkpt><trkpt lat="40.00118" lon="8.4117317"><ele>11.5</ele><time>2026-04-28T09:10:49.109Z</time></trkpt><trkpt lat="40.0013283" lon="8.41166"><ele>11.75</ele><time>2026-04-28T09:11:38.05Z</time></trkpt><trkpt lat="40.0014167" lon="8.4115667"><ele>12.0</ele><time>2026-04-28T09:11:40.052Z</time></trkpt><trkpt lat="40.0014967" lon="8.4114567"><ele>12.0</ele><time>2026-04-28T09:11:42.052Z</time></trkpt><trkpt lat="40.0015783" lon="8.411365"><ele>12.0</ele><time>2026-04-28T09:11:44.061Z</time></trkpt><trkpt lat="40.0016533" lon="8.4112783"><ele>12.0</ele><time>2026-04-28T09:11:46.055Z</time></trkpt><trkpt lat="40.0017133" lon="8.4112183"><ele>12.0</ele><time>2026-04-28T09:11:48.054Z</time></trkpt><trkpt lat="40.0017967" lon="8.4112017"><ele>12.0</ele><time>2026-04-28T09:11:51.057Z</time></trkpt><trkpt lat="40.0018667" lon="8.4111867"><ele>12.0</ele><time>2026-04-28T09:12:26.054Z</time></trkpt><trkpt lat="40.0019517" lon="8.41117"><ele>12.833333333333334</ele><time>2026-04-28T09:12:29.053Z</time></trkpt><trkpt lat="40.0020183" lon="8.4111667"><ele>13.666666666666668</ele><time>2026-04-28T09:12:31.089Z</time></trkpt><trkpt lat="40.002105" lon="8.4111733"><ele>14.5</ele><time>2026-04-28T09:12:34.056Z</time></trkpt><trkpt lat="40.0021633" lon="8.411215"><ele>15.333333333333334</ele><time>2026-04-28T09:12:36.055Z</time></trkpt><trkpt lat="40.0022317" lon="8.41129"><ele>16.166666666666668</ele><time>2026-04-28T09:12:38.052Z</time></trkpt><trkpt lat="40.0022917" lon="8.411355"><ele>17.0</ele><time>2026-04-28T09:12:40.052Z</time></trkpt><trkpt lat="40.0023767" lon="8.4113783"><ele>17.0</ele><time>2026-04-28T09:12:43.106Z</time></trkpt><trkpt lat="40.0024533" lon="8.41137"><ele>17.0</ele><time>2026-04-28T09:12:48.052Z</time></trkpt><trkpt lat="40.00253" lon="8.4113267"><ele>17.0</ele><time>2026-04-28T09:16:11.058Z</time></trkpt><trkpt lat="40.002615" lon="8.41133"><ele>17.0</ele><time>2026-04-28T09:16:14.057Z</time></trkpt><trkpt lat="40.0027133" lon="8.4113917"><ele>17.0</ele><time>2026-04-28T09:16:17.061Z</time></trkpt><trkpt lat="40.0029033" lon="8.4113567"><ele>16.75</ele><time>2026-04-28T09:16:21.056Z</time></trkpt><trkpt lat="40.0030033" lon="8.41133"><ele>16.5</ele><time>2026-04-28T09:16:23.059Z</time></trkpt><trkpt lat="40.0031067" lon="8.4113033"><ele>16.25</ele><time>2026-04-28T09:16:25.12Z</time></trkpt><trkpt lat="40.0032667" lon="8.411225"><ele>16.0</ele><time>2026-04-28T09:16:28.055Z</time></trkpt><trkpt lat="40.003435" lon="8.4110917"><ele>14.5</ele><time>2026-04-28T09:16:31.118Z</time></trkpt><trkpt lat="40.0035083" lon="8.4110533"><ele>13.0</ele><time>2026-04-28T09:16:32.055Z</time></trkpt><trkpt lat="40.0036617" lon="8.4109533"><ele>11.5</ele><time>2026-04-28T09:16:34.055Z</time></trkpt><trkpt lat="40.0037317" lon="8.4108933"><ele>10.0</ele><time>2026-04-28T09:16:35.054Z</time></trkpt><trkpt lat="40.0038567" lon="8.4107733"><ele>10.0</ele><time>2026-04-28T09:16:37.123Z</time></trkpt><trkpt lat="40.0039883" lon="8.41064"><ele>10.0</ele><time>2026-04-28T09:16:40.056Z</time></trkpt><trkpt lat="40.0042633" lon="8.410495"><ele>10.166666666666668</ele><time>2026-04-28T09:16:46.058Z</time></trkpt><trkpt lat="40.0043467" lon="8.4104867"><ele>10.333333333333334</ele><time>2026-04-28T09:16:48.056Z</time></trkpt><trkpt lat="40.00441" lon="8.41052"><ele>10.5</ele><time>2026-04-28T09:16:50.056Z</time></trkpt><trkpt lat="40.0044767" lon="8.41058"><ele>10.666666666666666</ele><time>2026-04-28T09:16:52.055Z</time></trkpt><trkpt lat="40.0045617" lon="8.4106333"><ele>10.833333333333332</ele><time>2026-04-28T09:16:54.056Z</time></trkpt><trkpt lat="40.0046483" lon="8.41066"><ele>11.0</ele><time>2026-04-28T09:16:56.062Z</time></trkpt><trkpt lat="40.0047117" lon="8.4106733"><ele>11.0</ele><time>2026-04-28T09:16:58.054Z</time></trkpt><trkpt lat="40.00485" lon="8.410755"><ele>11.0</ele><time>2026-04-28T09:17:04.052Z</time></trkpt><trkpt lat="40.0050533" lon="8.4107817"><ele>11.0</ele><time>2026-04-28T09:17:09.061Z</time></trkpt><trkpt lat="40.0052133" lon="8.41066"><ele>12.0</ele><time>2026-04-28T09:17:13.131Z</time></trkpt><trkpt lat="40.0053267" lon="8.410595"><ele>13.0</ele><time>2026-04-28T09:17:17.053Z</time></trkpt><trkpt lat="40.0054533" lon="8.4106567"><ele>14.0</ele><time>2026-04-28T09:17:20.052Z</time></trkpt><trkpt lat="40.0055133" lon="8.4107333"><ele>15.0</ele><time>2026-04-28T09:17:22.056Z</time></trkpt><trkpt lat="40.00555" lon="8.4109067"><ele>15.0</ele><time>2026-04-28T09:17:25.122Z</time></trkpt><trkpt lat="40.0054567" lon="8.4110667"><ele>15.0</ele><time>2026-04-28T09:17:29.063Z</time></trkpt><trkpt lat="40.0055333" lon="8.4111633"><ele>15.0</ele><time>2026-04-28T09:17:33.057Z</time></trkpt><trkpt lat="40.0056117" lon="8.4110567"><ele>15.0</ele><time>2026-04-28T09:17:36.053Z</time></trkpt><trkpt lat="40.005715" lon="8.4108917"><ele>14.75</ele><time>2026-04-28T09:17:40.06Z</time></trkpt><trkpt lat="40.0058317" lon="8.4108133"><ele>14.5</ele><time>2026-04-28T09:17:43.112Z</time></trkpt><trkpt lat="40.0059867" lon="8.4107833"><ele>14.25</ele><time>2026-04-28T09:17:47.055Z</time></trkpt><trkpt lat="40.0061217" lon="8.410775"><ele>14.0</ele><time>2026-04-28T09:17:51.058Z</time></trkpt><trkpt lat="40.0062467" lon="8.4108083"><ele>14.0</ele><time>2026-04-28T09:17:55.118Z</time></trkpt><trkpt lat="40.0063133" lon="8.410865"><ele>13.999999999999998</ele><time>2026-04-28T09:17:58.054Z</time></trkpt><trkpt lat="40.0063817" lon="8.4108383"><ele>13.999999999999998</ele><time>2026-04-28T09:18:02.056Z</time></trkpt><trkpt lat="40.006415" lon="8.41071"><ele>14.0</ele><time>2026-04-28T09:18:05.058Z</time></trkpt><trkpt lat="40.0065233" lon="8.410625"><ele>14.0</ele><time>2026-04-28T09:18:09.056Z</time></trkpt><trkpt lat="40.0066533" lon="8.4106333"><ele>13.666666666666668</ele><time>2026-04-28T09:18:12.053Z</time></trkpt><trkpt lat="40.0068083" lon="8.4108017"><ele>13.333333333333332</ele><time>2026-04-28T09:18:16.063Z</time></trkpt><trkpt lat="40.0070067" lon="8.410875"><ele>13.0</ele><time>2026-04-28T09:18:20.06Z</time></trkpt><trkpt lat="40.00714" lon="8.4108533"><ele>13.0</ele><time>2026-04-28T09:18:52.061Z</time></trkpt><trkpt lat="40.0072667" lon="8.410855"><ele>13.0</ele><time>2026-04-28T09:18:55.114Z</time></trkpt><trkpt lat="40.0074133" lon="8.410895"><ele>13.0</ele><time>2026-04-28T09:19:01.116Z</time></trkpt><trkpt lat="40.007485" lon="8.4109183"><ele>13.0</ele><time>2026-04-28T09:19:03.056Z</time></trkpt><trkpt lat="40.007555" lon="8.410935"><ele>13.0</ele><time>2026-04-28T09:19:05.069Z</time></trkpt><trkpt lat="40.0076267" lon="8.4109483"><ele>12.600000000000001</ele><time>2026-04-28T09:19:08.057Z</time></trkpt><trkpt lat="40.0076967" lon="8.4109467"><ele>12.200000000000001</ele><time>2026-04-28T09:19:11.061Z</time></trkpt><trkpt lat="40.0077583" lon="8.4109717"><ele>11.8</ele><time>2026-04-28T09:19:13.112Z</time></trkpt><trkpt lat="40.0078467" lon="8.411"><ele>11.4</ele><time>2026-04-28T09:19:15.057Z</time></trkpt><trkpt lat="40.0080033" lon="8.4110117"><ele>11.0</ele><time>2026-04-28T09:19:18.061Z</time></trkpt><trkpt lat="40.008135" lon="8.41105"><ele>11.0</ele><time>2026-04-28T09:19:21.057Z</time></trkpt><trkpt lat="40.00824" lon="8.4110917"><ele>11.0</ele><time>2026-04-28T09:19:25.119Z</time></trkpt><trkpt lat="40.0082983" lon="8.4110567"><ele>11.0</ele><time>2026-04-28T09:19:28.056Z</time></trkpt><trkpt lat="40.008375" lon="8.4110167"><ele>11.0</ele><time>2026-04-28T09:25:50.059Z</time></trkpt><trkpt lat="40.0084533" lon="8.4110033"><ele>11.0</ele><time>2026-04-28T09:25:53.064Z</time></trkpt><trkpt lat="40.0085217" lon="8.4109867"><ele>11.0</ele><time>2026-04-28T09:25:55.119Z</time></trkpt><trkpt lat="40.0086017" lon="8.4109617"><ele>10.5</ele><time>2026-04-28T09:25:57.071Z</time></trkpt><trkpt lat="40.0086783" lon="8.4109217"><ele>10.0</ele><time>2026-04-28T09:25:59.057Z</time></trkpt><trkpt lat="40.008755" lon="8.4109033"><ele>9.5</ele><time>2026-04-28T09:26:01.157Z</time></trkpt><trkpt lat="40.0088183" lon="8.41089"><ele>9.0</ele><time>2026-04-28T09:26:03.063Z</time></trkpt><trkpt lat="40.00889" lon="8.4109083"><ele>8.5</ele><time>2026-04-28T09:26:05.063Z</time></trkpt><trkpt lat="40.00897" lon="8.41095"><ele>8.0</ele><time>2026-04-28T09:26:07.129Z</time></trkpt><trkpt lat="40.009055" lon="8.41098"><ele>7.999999999999999</ele><time>2026-04-28T09:26:09.062Z</time></trkpt><trkpt lat="40.0091333" lon="8.4109917"><ele>8.0</ele><time>2026-04-28T09:26:11.082Z</time></trkpt><trkpt lat="40.0092017" lon="8.411"><ele>8.0</ele><time>2026-04-28T09:26:14.06Z</time></trkpt><trkpt lat="40.0092867" lon="8.4110067"><ele>8.0</ele><time>2026-04-28T09:26:18.054Z</time></trkpt><trkpt lat="40.0093483" lon="8.4110333"><ele>7.999999999999999</ele><time>2026-04-28T09:26:20.056Z</time></trkpt><trkpt lat="40.0094917" lon="8.4110817"><ele>8.0</ele><time>2026-04-28T09:26:24.06Z</time></trkpt><trkpt lat="40.00956" lon="8.4110917"><ele>7.800000000000001</ele><time>2026-04-28T09:26:26.061Z</time></trkpt><trkpt lat="40.0097017" lon="8.41112"><ele>7.6000000000000005</ele><time>2026-04-28T09:26:32.055Z</time></trkpt><trkpt lat="40.0097017" lon="8.41112"><ele>7.3999999999999995</ele><time>2026-04-28T09:26:32.055Z</time></trkpt><trkpt lat="40.0097017" lon="8.41112"><ele>7.199999999999999</ele><time>2026-04-28T09:26:32.055Z</time></trkpt><trkpt lat="40.0098483" lon="8.4112233"><ele>7.0</ele><time>2026-04-28T09:29:18.053Z</time></trkpt><trkpt lat="40.0100033" lon="8.4113133"><ele>8.333333333333334</ele><time>2026-04-28T09:29:29.06Z</time></trkpt><trkpt lat="40.0100633" lon="8.4113883"><ele>9.666666666666666</ele><time>2026-04-28T09:29:31.141Z</time></trkpt><trkpt lat="40.0101667" lon="8.4116233"><ele>11.0</ele><time>2026-04-28T09:29:39.063Z</time></trkpt><trkpt lat="40.010285" lon="8.4118117"><ele>10.5</ele><time>2026-04-28T09:29:46.055Z</time></trkpt><trkpt lat="40.01056" lon="8.412265"><ele>10.0</ele><time>2026-04-28T09:30:01.136Z</time></trkpt><trkpt lat="40.01087" lon="8.4126683"><ele>11.0</ele><time>2026-04-28T09:30:09.063Z</time></trkpt><trkpt lat="40.0113167" lon="8.413205"><ele>11.0</ele><time>2026-04-28T09:30:21.058Z</time></trkpt><trkpt lat="40.0113867" lon="8.41329"><ele>11.0</ele><time>2026-04-28T09:30:23.07Z</time></trkpt><trkpt lat="40.0114667" lon="8.4133583"><ele>11.0</ele><time>2026-04-28T09:30:25.124Z</time></trkpt><trkpt lat="40.0115517" lon="8.413415"><ele>11.0</ele><time>2026-04-28T09:30:27.06Z</time></trkpt><trkpt lat="40.0116417" lon="8.41347"><ele>11.0</ele><time>2026-04-28T09:30:29.059Z</time></trkpt><trkpt lat="40.0117333" lon="8.4135383"><ele>10.600000000000001</ele><time>2026-04-28T09:30:31.12Z</time></trkpt><trkpt lat="40.011815" lon="8.413625"><ele>10.200000000000001</ele><time>2026-04-28T09:30:33.063Z</time></trkpt><trkpt lat="40.0118833" lon="8.4137267"><ele>9.8</ele><time>2026-04-28T09:30:35.062Z</time></trkpt><trkpt lat="40.0119333" lon="8.4138583"><ele>9.4</ele><time>2026-04-28T09:30:37.112Z</time></trkpt><trkpt lat="40.0119533" lon="8.4139367"><ele>9.0</ele><time>2026-04-28T09:30:38.054Z</time></trkpt><trkpt lat="40.011995" lon="8.41409"><ele>9.0</ele><time>2026-04-28T09:30:40.055Z</time></trkpt><trkpt lat="40.012085" lon="8.4142083"><ele>9.0</ele><time>2026-04-28T09:30:42.051Z</time></trkpt><trkpt lat="40.0121417" lon="8.4142483"><ele>9.0</ele><time>2026-04-28T09:30:43.108Z</time></trkpt><trkpt lat="40.0122017" lon="8.4142817"><ele>9.0</ele><time>2026-04-28T09:30:44.056Z</time></trkpt><trkpt lat="40.0123117" lon="8.4143367"><ele>9.0</ele><time>2026-04-28T09:30:46.056Z</time></trkpt><trkpt lat="40.0124067" lon="8.4143933"><ele>8.0</ele><time>2026-04-28T09:30:48.056Z</time></trkpt><trkpt lat="40.0125083" lon="8.4144383"><ele>7.0</ele><time>2026-04-28T09:30:50.058Z</time></trkpt><trkpt lat="40.0126083" lon="8.4144867"><ele>6.0</ele><time>2026-04-28T09:30:52.058Z</time></trkpt><trkpt lat="40.0127067" lon="8.414535"><ele>5.0</ele><time>2026-04-28T09:30:54.057Z</time></trkpt><trkpt lat="40.0128033" lon="8.41458"><ele>4.0</ele><time>2026-04-28T09:30:56.062Z</time></trkpt><trkpt lat="40.0129117" lon="8.414625"><ele>4.2</ele><time>2026-04-28T09:30:58.053Z</time></trkpt><trkpt lat="40.0129717" lon="8.414655"><ele>4.4</ele><time>2026-04-28T09:30:59.056Z</time></trkpt><trkpt lat="40.0130333" lon="8.41469"><ele>4.6</ele><time>2026-04-28T09:31:00.069Z</time></trkpt><trkpt lat="40.0130917" lon="8.4147233"><ele>4.8</ele><time>2026-04-28T09:31:01.148Z</time></trkpt><trkpt lat="40.0132683" lon="8.4147683"><ele>5.0</ele><time>2026-04-28T09:31:04.083Z</time></trkpt><trkpt lat="40.0139217" lon="8.4147183"><ele>4.0</ele><time>2026-04-28T09:31:13.195Z</time></trkpt><trkpt lat="40.0139883" lon="8.414715"><ele>3.0</ele><time>2026-04-28T09:31:14.1Z</time></trkpt><trkpt lat="40.0146233" lon="8.4147383"><ele>3.0</ele><time>2026-04-28T09:31:23.076Z</time></trkpt><trkpt lat="40.0147" lon="8.4147417"><ele>3.0</ele><time>2026-04-28T09:31:24.08Z</time></trkpt><trkpt lat="40.01509" lon="8.4147567"><ele>3.333333333333333</ele><time>2026-04-28T09:31:29.061Z</time></trkpt><trkpt lat="40.01523" lon="8.4147633"><ele>3.6666666666666665</ele><time>2026-04-28T09:31:31.117Z</time></trkpt><trkpt lat="40.0152983" lon="8.4147733"><ele>4.0</ele><time>2026-04-28T09:31:32.077Z</time></trkpt><trkpt lat="40.015725" lon="8.41475"><ele>4.333333333333333</ele><time>2026-04-28T09:31:38.055Z</time></trkpt><trkpt lat="40.015875" lon="8.4147333"><ele>4.666666666666667</ele><time>2026-04-28T09:31:40.063Z</time></trkpt><trkpt lat="40.0159417" lon="8.414725"><ele>5.0</ele><time>2026-04-28T09:31:41.062Z</time></trkpt><trkpt lat="40.0164117" lon="8.4146233"><ele>1.0</ele><time>2026-04-28T09:31:48.061Z</time></trkpt><trkpt lat="40.0168583" lon="8.4145383"><ele>1.0</ele><time>2026-04-28T09:31:55.121Z</time></trkpt><trkpt lat="40.0169217" lon="8.4145317"><ele>1.0</ele><time>2026-04-28T09:31:56.05Z</time></trkpt><trkpt lat="40.0172333" lon="8.4144983"><ele>1.0</ele><time>2026-04-28T09:32:01.126Z</time></trkpt><trkpt lat="40.01765" lon="8.41436"><ele>1.3333333333333333</ele><time>2026-04-28T09:32:07.12Z</time></trkpt><trkpt lat="40.0177183" lon="8.414335"><ele>1.6666666666666665</ele><time>2026-04-28T09:32:08.057Z</time></trkpt><trkpt lat="40.017785" lon="8.41431"><ele>2.0</ele><time>2026-04-28T09:32:09.054Z</time></trkpt><trkpt lat="40.018215" lon="8.4141667"><ele>2.0</ele><time>2026-04-28T09:32:16.062Z</time></trkpt><trkpt lat="40.0182783" lon="8.4141433"><ele>2.0</ele><time>2026-04-28T09:32:17.064Z</time></trkpt><trkpt lat="40.0188" lon="8.4140067"><ele>1.5</ele><time>2026-04-28T09:32:24.058Z</time></trkpt><trkpt lat="40.0188833" lon="8.4139867"><ele>1.0</ele><time>2026-04-28T09:32:25.124Z</time></trkpt><trkpt lat="40.0195383" lon="8.4137433"><ele>1.0</ele><time>2026-04-28T09:32:33.066Z</time></trkpt><trkpt lat="40.0196133" lon="8.4137083"><ele>1.0</ele><time>2026-04-28T09:32:34.051Z</time></trkpt><trkpt lat="40.0200933" lon="8.4136267"><ele>3.0</ele><time>2026-04-28T09:32:44.075Z</time></trkpt><trkpt lat="40.0202117" lon="8.4136517"><ele>5.0</ele><time>2026-04-28T09:32:48.053Z</time></trkpt><trkpt lat="40.020805" lon="8.4137133"><ele>4.0</ele><time>2026-04-28T09:32:57.063Z</time></trkpt><trkpt lat="40.0218133" lon="8.41398"><ele>4.0</ele><time>2026-04-28T09:33:12.051Z</time></trkpt><trkpt lat="40.0220583" lon="8.4139433"><ele>4.0</ele><time>2026-04-28T09:33:15.057Z</time></trkpt><trkpt lat="40.022225" lon="8.413865"><ele>4.0</ele><time>2026-04-28T09:33:18.052Z</time></trkpt><trkpt lat="40.022365" lon="8.4137533"><ele>4.5</ele><time>2026-04-28T09:33:21.059Z</time></trkpt><trkpt lat="40.0224783" lon="8.41361"><ele>5.0</ele><time>2026-04-28T09:33:24.052Z</time></trkpt><trkpt lat="40.0227017" lon="8.4132483"><ele>5.5</ele><time>2026-04-28T09:33:30.054Z</time></trkpt><trkpt lat="40.022785" lon="8.4131433"><ele>6.0</ele><time>2026-04-28T09:33:32.063Z</time></trkpt><trkpt lat="40.0229383" lon="8.4129683"><ele>6.5</ele><time>2026-04-28T09:33:35.077Z</time></trkpt><trkpt lat="40.0229917" lon="8.4129117"><ele>7.0</ele><time>2026-04-28T09:33:36.054Z</time></trkpt><trkpt lat="40.0233867" lon="8.412495"><ele>7.0</ele><time>2026-04-28T09:33:44.061Z</time></trkpt><trkpt lat="40.023555" lon="8.4123733"><ele>7.0</ele><time>2026-04-28T09:33:52.057Z</time></trkpt><trkpt lat="40.0237433" lon="8.4122733"><ele>7.0</ele><time>2026-04-28T09:33:56.069Z</time></trkpt><trkpt lat="40.0238167" lon="8.4122367"><ele>6.0</ele><time>2026-04-28T09:33:57.053Z</time></trkpt><trkpt lat="40.0243167" lon="8.4119467"><ele>6.0</ele><time>2026-04-28T09:34:03.058Z</time></trkpt><trkpt lat="40.0243983" lon="8.4118867"><ele>6.0</ele><time>2026-04-28T09:34:04.06Z</time></trkpt><trkpt lat="40.0251083" lon="8.4114333"><ele>6.0</ele><time>2026-04-28T09:34:14.059Z</time></trkpt><trkpt lat="40.0251883" lon="8.41137"><ele>6.0</ele><time>2026-04-28T09:34:15.054Z</time></trkpt><trkpt lat="40.0259783" lon="8.410845"><ele>6.0</ele><time>2026-04-28T09:34:25.129Z</time></trkpt><trkpt lat="40.0260483" lon="8.4108"><ele>6.0</ele><time>2026-04-28T09:34:26.055Z</time></trkpt><trkpt lat="40.0265117" lon="8.410365"><ele>4.0</ele><time>2026-04-28T09:34:33.055Z</time></trkpt><trkpt lat="40.0270033" lon="8.4097217"><ele>3.5</ele><time>2026-04-28T09:34:42.054Z</time></trkpt><trkpt lat="40.02706" lon="8.4096517"><ele>3.0</ele><time>2026-04-28T09:34:43.105Z</time></trkpt><trkpt lat="40.0273583" lon="8.4093283"><ele>3.0</ele><time>2026-04-28T09:34:48.057Z</time></trkpt><trkpt lat="40.02742" lon="8.4092567"><ele>3.0</ele><time>2026-04-28T09:34:49.116Z</time></trkpt><trkpt lat="40.0276167" lon="8.40906"><ele>3.0</ele><time>2026-04-28T09:34:52.056Z</time></trkpt><trkpt lat="40.0276767" lon="8.4090033"><ele>3.0</ele><time>2026-04-28T09:34:53.062Z</time></trkpt><trkpt lat="40.0277333" lon="8.4089483"><ele>3.5</ele><time>2026-04-28T09:34:54.057Z</time></trkpt><trkpt lat="40.0278967" lon="8.4087983"><ele>4.0</ele><time>2026-04-28T09:34:57.069Z</time></trkpt><trkpt lat="40.028225" lon="8.4085133"><ele>4.0</ele><time>2026-04-28T09:35:03.069Z</time></trkpt><trkpt lat="40.0284917" lon="8.4084733"><ele>4.0</ele><time>2026-04-28T09:35:10.054Z</time></trkpt><trkpt lat="40.0286067" lon="8.4082117"><ele>4.0</ele><time>2026-04-28T09:35:59.063Z</time></trkpt><trkpt lat="40.0287217" lon="8.408065"><ele>4.0</ele><time>2026-04-28T09:36:04.053Z</time></trkpt><trkpt lat="40.0287933" lon="8.4080367"><ele>4.0</ele><time>2026-04-28T09:36:06.055Z</time></trkpt><trkpt lat="40.0289383" lon="8.4075483"><ele>0.0</ele><time>2026-04-28T09:36:14.056Z</time></trkpt><trkpt lat="40.0294217" lon="8.407005"><ele>0.0</ele><time>2026-04-28T09:36:22.051Z</time></trkpt><trkpt lat="40.029625" lon="8.40679"><ele>0.0</ele><time>2026-04-28T09:36:25.119Z</time></trkpt><trkpt lat="40.0296967" lon="8.40672"><ele>0.0</ele><time>2026-04-28T09:36:26.055Z</time></trkpt><trkpt lat="40.0299767" lon="8.4064217"><ele>0.3333333333333333</ele><time>2026-04-28T09:36:30.054Z</time></trkpt><trkpt lat="40.03004" lon="8.406355"><ele>0.6666666666666666</ele><time>2026-04-28T09:36:31.111Z</time></trkpt><trkpt lat="40.0302833" lon="8.4060867"><ele>1.0</ele><time>2026-04-28T09:36:35.052Z</time></trkpt><trkpt lat="40.0304533" lon="8.4058933"><ele>1.0</ele><time>2026-04-28T09:36:38.052Z</time></trkpt><trkpt lat="40.0305133" lon="8.4058283"><ele>1.0</ele><time>2026-04-28T09:36:39.054Z</time></trkpt><trkpt lat="40.0306967" lon="8.4056433"><ele>1.0</ele><time>2026-04-28T09:36:42.054Z</time></trkpt><trkpt lat="40.0308133" lon="8.405515"><ele>1.3333333333333333</ele><time>2026-04-28T09:36:44.052Z</time></trkpt><trkpt lat="40.03099" lon="8.40532"><ele>1.6666666666666665</ele><time>2026-04-28T09:36:47.059Z</time></trkpt><trkpt lat="40.0310467" lon="8.405255"><ele>2.0</ele><time>2026-04-28T09:36:48.054Z</time></trkpt><trkpt lat="40.0313617" lon="8.404835"><ele>1.5</ele><time>2026-04-28T09:36:54.053Z</time></trkpt><trkpt lat="40.0316067" lon="8.4044133"><ele>1.0</ele><time>2026-04-28T09:36:59.079Z</time></trkpt><trkpt lat="40.0316517" lon="8.404325"><ele>1.0</ele><time>2026-04-28T09:37:00.055Z</time></trkpt><trkpt lat="40.0318417" lon="8.4039783"><ele>1.0</ele><time>2026-04-28T09:37:04.054Z</time></trkpt><trkpt lat="40.0318883" lon="8.4038883"><ele>1.0</ele><time>2026-04-28T09:37:05.052Z</time></trkpt><trkpt lat="40.032085" lon="8.40352"><ele>0.6666666666666666</ele><time>2026-04-28T09:37:10.075Z</time></trkpt><trkpt lat="40.0322783" lon="8.4031417"><ele>0.3333333333333333</ele><time>2026-04-28T09:37:15.054Z</time></trkpt><trkpt lat="40.0323167" lon="8.4030633"><ele>0.0</ele><time>2026-04-28T09:37:16.061Z</time></trkpt><trkpt lat="40.032385" lon="8.40293"><ele>0.0</ele><time>2026-04-28T09:37:18.055Z</time></trkpt><trkpt lat="40.03245" lon="8.4028017"><ele>0.0</ele><time>2026-04-28T09:37:20.051Z</time></trkpt><trkpt lat="40.0327567" lon="8.4021767"><ele>0.0</ele><time>2026-04-28T09:37:27.061Z</time></trkpt><trkpt lat="40.0330033" lon="8.401555"><ele>2.0</ele><time>2026-04-28T09:37:34.055Z</time></trkpt><trkpt lat="40.0333967" lon="8.400295"><ele>1.9999999999999998</ele><time>2026-04-28T09:37:49.123Z</time></trkpt><trkpt lat="40.03343" lon="8.4002067"><ele>2.0</ele><time>2026-04-28T09:37:50.07Z</time></trkpt><trkpt lat="40.0334617" lon="8.4001217"><ele>2.0</ele><time>2026-04-28T09:37:51.055Z</time></trkpt><trkpt lat="40.0334967" lon="8.4000483"><ele>2.0</ele><time>2026-04-28T09:37:52.049Z</time></trkpt><trkpt lat="40.03356" lon="8.39992"><ele>1.9999999999999998</ele><time>2026-04-28T09:37:54.051Z</time></trkpt><trkpt lat="40.0336017" lon="8.3998583"><ele>2.0</ele><time>2026-04-28T09:37:55.117Z</time></trkpt><trkpt lat="40.03368" lon="8.39976"><ele>1.9999999999999998</ele><time>2026-04-28T09:37:57.059Z</time></trkpt><trkpt lat="40.03373" lon="8.3996967"><ele>2.0</ele><time>2026-04-28T09:37:59.045Z</time></trkpt><trkpt lat="40.0337733" lon="8.3995967"><ele>2.0</ele><time>2026-04-28T09:38:02.046Z</time></trkpt><trkpt lat="40.0337933" lon="8.39947"><ele>2.0</ele><time>2026-04-28T09:38:04.051Z</time></trkpt><trkpt lat="40.0338033" lon="8.3993233"><ele>1.9999999999999998</ele><time>2026-04-28T09:38:06.049Z</time></trkpt><trkpt lat="40.0338033" lon="8.3992367"><ele>2.0</ele><time>2026-04-28T09:38:07.109Z</time></trkpt><trkpt lat="40.033805" lon="8.3991467"><ele>1.9999999999999998</ele><time>2026-04-28T09:38:08.05Z</time></trkpt><trkpt lat="40.0338033" lon="8.3990517"><ele>2.0</ele><time>2026-04-28T09:38:09.049Z</time></trkpt><trkpt lat="40.0338017" lon="8.3989533"><ele>2.0</ele><time>2026-04-28T09:38:10.047Z</time></trkpt><trkpt lat="40.0338033" lon="8.39885"><ele>2.0</ele><time>2026-04-28T09:38:11.051Z</time></trkpt><trkpt lat="40.0338033" lon="8.3987567"><ele>1.9999999999999998</ele><time>2026-04-28T09:38:12.054Z</time></trkpt><trkpt lat="40.0338017" lon="8.3986733"><ele>2.0</ele><time>2026-04-28T09:38:13.107Z</time></trkpt><trkpt lat="40.033805" lon="8.3985083"><ele>2.0</ele><time>2026-04-28T09:38:15.055Z</time></trkpt><trkpt lat="40.0338067" lon="8.3984217"><ele>1.9999999999999998</ele><time>2026-04-28T09:38:16.043Z</time></trkpt><trkpt lat="40.0338067" lon="8.39833"><ele>2.0</ele><time>2026-04-28T09:38:17.049Z</time></trkpt><trkpt lat="40.0338067" lon="8.39823"><ele>2.0</ele><time>2026-04-28T09:38:18.052Z</time></trkpt><trkpt lat="40.0338067" lon="8.3981283"><ele>1.9999999999999998</ele><time>2026-04-28T09:38:19.096Z</time></trkpt><trkpt lat="40.0338067" lon="8.3980283"><ele>2.0</ele><time>2026-04-28T09:38:20.048Z</time></trkpt><trkpt lat="40.0338067" lon="8.3979283"><ele>2.0</ele><time>2026-04-28T09:38:21.047Z</time></trkpt><trkpt lat="40.033805" lon="8.3978367"><ele>1.9999999999999998</ele><time>2026-04-28T09:38:22.05Z</time></trkpt><trkpt lat="40.0338067" lon="8.3977467"><ele>2.0</ele><time>2026-04-28T09:38:23.054Z</time></trkpt><trkpt lat="40.0338083" lon="8.3976567"><ele>2.0</ele><time>2026-04-28T09:38:24.047Z</time></trkpt><trkpt lat="40.0338083" lon="8.3975733"><ele>2.0</ele><time>2026-04-28T09:38:25.102Z</time></trkpt><trkpt lat="40.0338067" lon="8.39749"><ele>1.9999999999999998</ele><time>2026-04-28T09:38:26.048Z</time></trkpt><trkpt lat="40.0337933" lon="8.3973233"><ele>2.0</ele><time>2026-04-28T09:38:28.049Z</time></trkpt><trkpt lat="40.0337833" lon="8.3972333"><ele>2.142857142857143</ele><time>2026-04-28T09:38:29.055Z</time></trkpt><trkpt lat="40.0337717" lon="8.3971467"><ele>2.2857142857142856</ele><time>2026-04-28T09:38:30.05Z</time></trkpt><trkpt lat="40.0337517" lon="8.3970617"><ele>2.4285714285714284</ele><time>2026-04-28T09:38:31.116Z</time></trkpt><trkpt lat="40.033725" lon="8.3969717"><ele>2.571428571428571</ele><time>2026-04-28T09:38:32.05Z</time></trkpt><trkpt lat="40.03369" lon="8.3968867"><ele>2.7142857142857144</ele><time>2026-04-28T09:38:33.052Z</time></trkpt><trkpt lat="40.0336583" lon="8.3967983"><ele>2.8571428571428568</ele><time>2026-04-28T09:38:34.049Z</time></trkpt><trkpt lat="40.033625" lon="8.3967083"><ele>3.0</ele><time>2026-04-28T09:38:35.049Z</time></trkpt><trkpt lat="40.0335867" lon="8.3966317"><ele>3.0</ele><time>2026-04-28T09:38:36.05Z</time></trkpt><trkpt lat="40.033555" lon="8.3965517"><ele>3.0</ele><time>2026-04-28T09:38:37.102Z</time></trkpt><trkpt lat="40.0335217" lon="8.3964733"><ele>3.0</ele><time>2026-04-28T09:38:38.053Z</time></trkpt><trkpt lat="40.03349" lon="8.39639"><ele>3.0</ele><time>2026-04-28T09:38:39.044Z</time></trkpt><trkpt lat="40.0334567" lon="8.3963"><ele>3.0</ele><time>2026-04-28T09:38:40.048Z</time></trkpt><trkpt lat="40.03342" lon="8.3962033"><ele>3.0</ele><time>2026-04-28T09:38:41.051Z</time></trkpt><trkpt lat="40.0333783" lon="8.3961033"><ele>3.1666666666666665</ele><time>2026-04-28T09:38:42.053Z</time></trkpt><trkpt lat="40.03334" lon="8.3960033"><ele>3.333333333333333</ele><time>2026-04-28T09:38:43.098Z</time></trkpt><trkpt lat="40.033305" lon="8.3959"><ele>3.5</ele><time>2026-04-28T09:38:44.057Z</time></trkpt><trkpt lat="40.033265" lon="8.3957967"><ele>3.6666666666666665</ele><time>2026-04-28T09:38:45.048Z</time></trkpt><trkpt lat="40.0332283" lon="8.3956983"><ele>3.833333333333333</ele><time>2026-04-28T09:38:46.05Z</time></trkpt><trkpt lat="40.0331883" lon="8.3956"><ele>4.0</ele><time>2026-04-28T09:38:47.046Z</time></trkpt><trkpt lat="40.03315" lon="8.3955067"><ele>4.0</ele><time>2026-04-28T09:38:48.048Z</time></trkpt><trkpt lat="40.033115" lon="8.3954217"><ele>3.9999999999999996</ele><time>2026-04-28T09:38:49.097Z</time></trkpt><trkpt lat="40.03308" lon="8.3953367"><ele>4.0</ele><time>2026-04-28T09:38:50.047Z</time></trkpt><trkpt lat="40.0330467" lon="8.395255"><ele>4.0</ele><time>2026-04-28T09:38:51.047Z</time></trkpt><trkpt lat="40.033015" lon="8.3951767"><ele>3.9999999999999996</ele><time>2026-04-28T09:38:52.045Z</time></trkpt><trkpt lat="40.0329817" lon="8.395095"><ele>4.0</ele><time>2026-04-28T09:38:53.047Z</time></trkpt><trkpt lat="40.0329483" lon="8.3950117"><ele>4.0</ele><time>2026-04-28T09:38:54.048Z</time></trkpt><trkpt lat="40.03292" lon="8.39493"><ele>4.0</ele><time>2026-04-28T09:38:55.108Z</time></trkpt><trkpt lat="40.0328883" lon="8.3948433"><ele>3.9999999999999996</ele><time>2026-04-28T09:38:56.045Z</time></trkpt><trkpt lat="40.0328567" lon="8.3947583"><ele>4.0</ele><time>2026-04-28T09:38:57.05Z</time></trkpt><trkpt lat="40.0328267" lon="8.39468"><ele>4.0</ele><time>2026-04-28T09:38:58.043Z</time></trkpt><trkpt lat="40.032795" lon="8.3946017"><ele>3.9999999999999996</ele><time>2026-04-28T09:38:59.041Z</time></trkpt><trkpt lat="40.0327683" lon="8.394525"><ele>4.0</ele><time>2026-04-28T09:39:00.051Z</time></trkpt><trkpt lat="40.032745" lon="8.3944483"><ele>4.0</ele><time>2026-04-28T09:39:01.099Z</time></trkpt><trkpt lat="40.0326983" lon="8.3943"><ele>4.0</ele><time>2026-04-28T09:39:03.054Z</time></trkpt><trkpt lat="40.0326417" lon="8.3941683"><ele>4.0</ele><time>2026-04-28T09:39:05.051Z</time></trkpt><trkpt lat="40.0324967" lon="8.3940333"><ele>4.0</ele><time>2026-04-28T09:39:08.047Z</time></trkpt><trkpt lat="40.0320233" lon="8.393805"><ele>4.0</ele><time>2026-04-28T09:39:14.046Z</time></trkpt><trkpt lat="40.0319417" lon="8.3937717"><ele>4.0</ele><time>2026-04-28T09:39:15.045Z</time></trkpt><trkpt lat="40.0314967" lon="8.3935433"><ele>4.0</ele><time>2026-04-28T09:39:21.048Z</time></trkpt><trkpt lat="40.0313483" lon="8.39346"><ele>4.0</ele><time>2026-04-28T09:39:23.051Z</time></trkpt><trkpt lat="40.031285" lon="8.3934083"><ele>4.0</ele><time>2026-04-28T09:39:24.052Z</time></trkpt><trkpt lat="40.0311183" lon="8.393235"><ele>4.0</ele><time>2026-04-28T09:39:27.049Z</time></trkpt><trkpt lat="40.0310767" lon="8.3931617"><ele>4.0</ele><time>2026-04-28T09:39:28.045Z</time></trkpt><trkpt lat="40.031045" lon="8.3930883"><ele>4.0</ele><time>2026-04-28T09:39:29.049Z</time></trkpt><trkpt lat="40.0309917" lon="8.39292"><ele>4.0</ele><time>2026-04-28T09:39:31.097Z</time></trkpt><trkpt lat="40.0309167" lon="8.3926717"><ele>4.0</ele><time>2026-04-28T09:39:35.048Z</time></trkpt><trkpt lat="40.0309283" lon="8.39245"><ele>4.333333333333333</ele><time>2026-04-28T09:39:38.044Z</time></trkpt><trkpt lat="40.0310617" lon="8.392115"><ele>4.666666666666667</ele><time>2026-04-28T09:39:42.047Z</time></trkpt><trkpt lat="40.0310983" lon="8.3920283"><ele>5.0</ele><time>2026-04-28T09:39:43.103Z</time></trkpt><trkpt lat="40.0311983" lon="8.3917817"><ele>5.0</ele><time>2026-04-28T09:39:46.052Z</time></trkpt><trkpt lat="40.03129" lon="8.3914317"><ele>5.0</ele><time>2026-04-28T09:39:50.047Z</time></trkpt><trkpt lat="40.0313483" lon="8.39107"><ele>5.2</ele><time>2026-04-28T09:39:54.049Z</time></trkpt><trkpt lat="40.0313583" lon="8.3909683"><ele>5.4</ele><time>2026-04-28T09:39:55.108Z</time></trkpt><trkpt lat="40.0313783" lon="8.3907217"><ele>5.6</ele><time>2026-04-28T09:39:58.047Z</time></trkpt><trkpt lat="40.031365" lon="8.3906333"><ele>5.8</ele><time>2026-04-28T09:40:02.046Z</time></trkpt><trkpt lat="40.031325" lon="8.3905533"><ele>6.0</ele><time>2026-04-28T09:40:07.098Z</time></trkpt><trkpt lat="40.0313767" lon="8.390505"><ele>6.333333333333334</ele><time>2026-04-28T09:40:11.052Z</time></trkpt><trkpt lat="40.031365" lon="8.3903233"><ele>6.666666666666667</ele><time>2026-04-28T09:40:39.052Z</time></trkpt><trkpt lat="40.0313133" lon="8.39008"><ele>7.0</ele><time>2026-04-28T09:40:43.097Z</time></trkpt><trkpt lat="40.0312533" lon="8.3897083"><ele>7.0</ele><time>2026-04-28T09:40:48.045Z</time></trkpt><trkpt lat="40.0312283" lon="8.3895783"><ele>7.0</ele><time>2026-04-28T09:40:50.051Z</time></trkpt><trkpt lat="40.0311667" lon="8.3894383"><ele>7.0</ele><time>2026-04-28T09:40:54.045Z</time></trkpt><trkpt lat="40.0310283" lon="8.3894683"><ele>7.0</ele><time>2026-04-28T09:40:59.054Z</time></trkpt><trkpt lat="40.0308217" lon="8.38948"><ele>6.0</ele><time>2026-04-28T09:41:04.05Z</time></trkpt><trkpt lat="40.0307283" lon="8.389235"><ele>5.0</ele><time>2026-04-28T09:41:08.047Z</time></trkpt><trkpt lat="40.030685" lon="8.3891683"><ele>4.0</ele><time>2026-04-28T09:41:09.047Z</time></trkpt><trkpt lat="40.0306233" lon="8.3889467"><ele>4.25</ele><time>2026-04-28T09:41:12.043Z</time></trkpt><trkpt lat="40.0305333" lon="8.38864"><ele>4.5</ele><time>2026-04-28T09:41:17.047Z</time></trkpt><trkpt lat="40.0305033" lon="8.3885617"><ele>4.75</ele><time>2026-04-28T09:41:21.053Z</time></trkpt><trkpt lat="40.0305467" lon="8.3884567"><ele>5.0</ele><time>2026-04-28T09:41:26.042Z</time></trkpt><trkpt lat="40.0307567" lon="8.3883167"><ele>5.333333333333334</ele><time>2026-04-28T09:41:31.103Z</time></trkpt><trkpt lat="40.0308633" lon="8.38818"><ele>5.666666666666667</ele><time>2026-04-28T09:41:35.047Z</time></trkpt><trkpt lat="40.0309317" lon="8.3880233"><ele>6.0</ele><time>2026-04-28T09:41:38.043Z</time></trkpt><trkpt lat="40.0309867" lon="8.3877583"><ele>6.5</ele><time>2026-04-28T09:41:42.049Z</time></trkpt><trkpt lat="40.030985" lon="8.3876533"><ele>7.0</ele><time>2026-04-28T09:41:43.096Z</time></trkpt><trkpt lat="40.030975" lon="8.38754"><ele>7.5</ele><time>2026-04-28T09:41:44.045Z</time></trkpt><trkpt lat="40.030945" lon="8.3871767"><ele>8.0</ele><time>2026-04-28T09:41:47.042Z</time></trkpt><trkpt lat="40.0309317" lon="8.3870533"><ele>8.25</ele><time>2026-04-28T09:41:48.047Z</time></trkpt><trkpt lat="40.0308983" lon="8.3867117"><ele>8.5</ele><time>2026-04-28T09:41:51.04Z</time></trkpt><trkpt lat="40.0308967" lon="8.3866067"><ele>8.75</ele><time>2026-04-28T09:41:52.046Z</time></trkpt><trkpt lat="40.0309" lon="8.386505"><ele>9.0</ele><time>2026-04-28T09:41:53.047Z</time></trkpt><trkpt lat="40.0309183" lon="8.386225"><ele>9.25</ele><time>2026-04-28T09:41:56.042Z</time></trkpt><trkpt lat="40.0309217" lon="8.3861217"><ele>9.5</ele><time>2026-04-28T09:41:57.053Z</time></trkpt><trkpt lat="40.0309433" lon="8.3859333"><ele>9.75</ele><time>2026-04-28T09:41:59.045Z</time></trkpt><trkpt lat="40.030955" lon="8.38584"><ele>10.0</ele><time>2026-04-28T09:42:00.063Z</time></trkpt><trkpt lat="40.030995" lon="8.3855233"><ele>10.5</ele><time>2026-04-28T09:42:03.043Z</time></trkpt><trkpt lat="40.03101" lon="8.3854133"><ele>11.0</ele><time>2026-04-28T09:42:04.049Z</time></trkpt><trkpt lat="40.0310383" lon="8.3852"><ele>11.5</ele><time>2026-04-28T09:42:06.05Z</time></trkpt><trkpt lat="40.0310533" lon="8.3850967"><ele>12.0</ele><time>2026-04-28T09:42:07.101Z</time></trkpt><trkpt lat="40.0310833" lon="8.3848967"><ele>12.0</ele><time>2026-04-28T09:42:09.045Z</time></trkpt><trkpt lat="40.0311033" lon="8.3848017"><ele>12.0</ele><time>2026-04-28T09:42:10.044Z</time></trkpt><trkpt lat="40.03113" lon="8.3847067"><ele>12.0</ele><time>2026-04-28T09:42:11.051Z</time></trkpt><trkpt lat="40.031235" lon="8.38441"><ele>12.0</ele><time>2026-04-28T09:42:15.046Z</time></trkpt><trkpt lat="40.0312067" lon="8.3843217"><ele>12.0</ele><time>2026-04-28T09:42:53.047Z</time></trkpt><trkpt lat="40.031065" lon="8.384355"><ele>12.0</ele><time>2026-04-28T09:42:57.049Z</time></trkpt><trkpt lat="40.0308817" lon="8.38436"><ele>12.0</ele><time>2026-04-28T09:43:01.097Z</time></trkpt><trkpt lat="40.0306583" lon="8.3844533"><ele>10.0</ele><time>2026-04-28T09:43:07.111Z</time></trkpt><trkpt lat="40.0305067" lon="8.38434"><ele>8.0</ele><time>2026-04-28T09:43:13.106Z</time></trkpt><trkpt lat="40.030325" lon="8.3843017"><ele>6.0</ele><time>2026-04-28T09:43:18.043Z</time></trkpt><trkpt lat="40.0302183" lon="8.3842417"><ele>6.0</ele><time>2026-04-28T09:43:22.057Z</time></trkpt><trkpt lat="40.03019" lon="8.3840333"><ele>6.0</ele><time>2026-04-28T09:43:27.05Z</time></trkpt><trkpt lat="40.03032" lon="8.383785"><ele>6.0</ele><time>2026-04-28T09:43:45.053Z</time></trkpt><trkpt lat="40.0303417" lon="8.3836033"><ele>5.75</ele><time>2026-04-28T09:43:49.123Z</time></trkpt><trkpt lat="40.03029" lon="8.3834433"><ele>5.5</ele><time>2026-04-28T09:43:54.043Z</time></trkpt><trkpt lat="40.03017" lon="8.3833667"><ele>5.25</ele><time>2026-04-28T09:44:01.108Z</time></trkpt><trkpt lat="40.030245" lon="8.3834033"><ele>5.0</ele><time>2026-04-28T09:45:58.063Z</time></trkpt><trkpt lat="40.030245" lon="8.3831917"><ele>5.0</ele><time>2026-04-28T09:46:04.052Z</time></trkpt></trkseg><trkseg><trkpt lat="40.0302933" lon="8.38302"><ele>5.0</ele><time>2026-04-28T12:06:52.036Z</time></trkpt><trkpt lat="40.0303117" lon="8.382925"><ele>5.0</ele><time>2026-04-28T12:06:54.042Z</time></trkpt><trkpt lat="40.0303617" lon="8.382825"><ele>5.0</ele><time>2026-04-28T12:06:56.034Z</time></trkpt><trkpt lat="40.0304033" lon="8.3826917"><ele>5.0</ele><time>2026-04-28T12:06:58.039Z</time></trkpt><trkpt lat="40.0304333" lon="8.38256"><ele>5.0</ele><time>2026-04-28T12:07:00.034Z</time></trkpt><trkpt lat="40.0304117" lon="8.3820567"><ele>5.5</ele><time>2026-04-28T12:07:07.087Z</time></trkpt><trkpt lat="40.0304" lon="8.381525"><ele>6.0</ele><time>2026-04-28T12:07:13.088Z</time></trkpt><trkpt lat="40.0304083" lon="8.381435"><ele>7.0</ele><time>2026-04-28T12:07:14.031Z</time></trkpt><trkpt lat="40.0304167" lon="8.3809917"><ele>8.0</ele><time>2026-04-28T12:07:19.084Z</time></trkpt><trkpt lat="40.03043" lon="8.38059"><ele>8.0</ele><time>2026-04-28T12:07:26.037Z</time></trkpt><trkpt lat="40.03047" lon="8.380315"><ele>8.0</ele><time>2026-04-28T12:07:32.037Z</time></trkpt><trkpt lat="40.0305083" lon="8.3800567"><ele>8.0</ele><time>2026-04-28T12:07:39.033Z</time></trkpt><trkpt lat="40.0304967" lon="8.3799367"><ele>8.0</ele><time>2026-04-28T12:07:44.036Z</time></trkpt><trkpt lat="40.0305683" lon="8.37979"><ele>8.0</ele><time>2026-04-28T12:07:51.035Z</time></trkpt><trkpt lat="40.0306717" lon="8.3796283"><ele>8.0</ele><time>2026-04-28T12:07:57.041Z</time></trkpt><trkpt lat="40.0307517" lon="8.379455"><ele>8.0</ele><time>2026-04-28T12:08:03.036Z</time></trkpt><trkpt lat="40.0305817" lon="8.3792617"><ele>5.5</ele><time>2026-04-28T12:08:09.038Z</time></trkpt><trkpt lat="40.030345" lon="8.3791"><ele>3.0</ele><time>2026-04-28T12:08:16.044Z</time></trkpt><trkpt lat="40.030165" lon="8.37886"><ele>2.5</ele><time>2026-04-28T12:08:23.036Z</time></trkpt><trkpt lat="40.02996" lon="8.3786167"><ele>2.0</ele><time>2026-04-28T12:08:29.033Z</time></trkpt><trkpt lat="40.0297267" lon="8.3785017"><ele>2.0</ele><time>2026-04-28T12:08:35.04Z</time></trkpt><trkpt lat="40.0295683" lon="8.3784483"><ele>2.0</ele><time>2026-04-28T12:08:41.036Z</time></trkpt><trkpt lat="40.029495" lon="8.37849"><ele>2.0</ele><time>2026-04-28T12:22:07.086Z</time></trkpt><trkpt lat="40.029485" lon="8.3785767"><ele>2.0</ele><time>2026-04-28T12:22:10.037Z</time></trkpt><trkpt lat="40.0296517" lon="8.3783867"><ele>1.9999999999999998</ele><time>2026-04-28T12:22:20.033Z</time></trkpt><trkpt lat="40.0297317" lon="8.3783767"><ele>2.0</ele><time>2026-04-28T12:22:24.032Z</time></trkpt><trkpt lat="40.0298017" lon="8.3784317"><ele>2.0</ele><time>2026-04-28T12:24:19.086Z</time></trkpt><trkpt lat="40.02985" lon="8.37855"><ele>2.0</ele><time>2026-04-28T12:24:22.04Z</time></trkpt><trkpt lat="40.0298783" lon="8.3786317"><ele>1.9999999999999998</ele><time>2026-04-28T12:24:25.084Z</time></trkpt><trkpt lat="40.0299417" lon="8.37872"><ele>2.0</ele><time>2026-04-28T12:26:17.035Z</time></trkpt><trkpt lat="40.03002" lon="8.3788133"><ele>2.2</ele><time>2026-04-28T12:26:19.077Z</time></trkpt><trkpt lat="40.030095" lon="8.378915"><ele>2.4000000000000004</ele><time>2026-04-28T12:26:21.036Z</time></trkpt><trkpt lat="40.0301717" lon="8.3790017"><ele>2.5999999999999996</ele><time>2026-04-28T12:26:23.035Z</time></trkpt><trkpt lat="40.0302433" lon="8.3790717"><ele>2.8</ele><time>2026-04-28T12:26:25.081Z</time></trkpt><trkpt lat="40.03032" lon="8.3791367"><ele>3.0</ele><time>2026-04-28T12:26:27.038Z</time></trkpt><trkpt lat="40.0304217" lon="8.379215"><ele>3.0</ele><time>2026-04-28T12:26:29.034Z</time></trkpt><trkpt lat="40.03053" lon="8.3792767"><ele>3.0</ele><time>2026-04-28T12:26:31.081Z</time></trkpt><trkpt lat="40.0306367" lon="8.3793383"><ele>3.0</ele><time>2026-04-28T12:26:33.042Z</time></trkpt><trkpt lat="40.0307183" lon="8.379385"><ele>3.0</ele><time>2026-04-28T12:26:35.032Z</time></trkpt><trkpt lat="40.0307933" lon="8.3794283"><ele>3.0</ele><time>2026-04-28T12:26:37.083Z</time></trkpt><trkpt lat="40.03086" lon="8.379435"><ele>2.8333333333333335</ele><time>2026-04-28T12:26:39.037Z</time></trkpt><trkpt lat="40.0309317" lon="8.3794333"><ele>2.6666666666666665</ele><time>2026-04-28T12:26:42.035Z</time></trkpt><trkpt lat="40.0310233" lon="8.379445"><ele>2.5</ele><time>2026-04-28T12:26:45.038Z</time></trkpt><trkpt lat="40.0311067" lon="8.379455"><ele>2.333333333333333</ele><time>2026-04-28T12:26:47.034Z</time></trkpt><trkpt lat="40.0311967" lon="8.379465"><ele>2.1666666666666665</ele><time>2026-04-28T12:26:49.076Z</time></trkpt><trkpt lat="40.0312933" lon="8.3794333"><ele>2.0</ele><time>2026-04-28T12:26:51.035Z</time></trkpt><trkpt lat="40.0313917" lon="8.379365"><ele>2.0</ele><time>2026-04-28T12:26:53.034Z</time></trkpt><trkpt lat="40.031475" lon="8.37931"><ele>2.0</ele><time>2026-04-28T12:26:55.082Z</time></trkpt><trkpt lat="40.0315533" lon="8.3792917"><ele>2.0</ele><time>2026-04-28T12:26:57.039Z</time></trkpt><trkpt lat="40.03165" lon="8.379295"><ele>2.0</ele><time>2026-04-28T12:26:59.033Z</time></trkpt><trkpt lat="40.031755" lon="8.3793283"><ele>2.0</ele><time>2026-04-28T12:27:01.078Z</time></trkpt><trkpt lat="40.0318533" lon="8.37937"><ele>2.8</ele><time>2026-04-28T12:27:03.032Z</time></trkpt><trkpt lat="40.031965" lon="8.3794117"><ele>3.6</ele><time>2026-04-28T12:27:05.031Z</time></trkpt><trkpt lat="40.032055" lon="8.379455"><ele>4.3999999999999995</ele><time>2026-04-28T12:27:07.082Z</time></trkpt><trkpt lat="40.03213" lon="8.3794583"><ele>5.2</ele><time>2026-04-28T12:27:09.038Z</time></trkpt><trkpt lat="40.0322283" lon="8.379435"><ele>6.0</ele><time>2026-04-28T12:27:11.029Z</time></trkpt><trkpt lat="40.0322933" lon="8.379385"><ele>6.0</ele><time>2026-04-28T12:27:13.076Z</time></trkpt><trkpt lat="40.03237" lon="8.3793317"><ele>6.0</ele><time>2026-04-28T12:27:44.028Z</time></trkpt><trkpt lat="40.03245" lon="8.3793133"><ele>6.0</ele><time>2026-04-28T12:27:46.034Z</time></trkpt><trkpt lat="40.0325233" lon="8.3792533"><ele>6.0</ele><time>2026-04-28T12:27:48.032Z</time></trkpt><trkpt lat="40.0325833" lon="8.37915"><ele>6.0</ele><time>2026-04-28T12:27:50.026Z</time></trkpt><trkpt lat="40.0326667" lon="8.3790417"><ele>6.0</ele><time>2026-04-28T12:27:52.033Z</time></trkpt><trkpt lat="40.03272" lon="8.3789817"><ele>6.0</ele><time>2026-04-28T12:27:53.031Z</time></trkpt><trkpt lat="40.032775" lon="8.3789233"><ele>6.0</ele><time>2026-04-28T12:27:54.031Z</time></trkpt><trkpt lat="40.0328283" lon="8.3788633"><ele>6.0</ele><time>2026-04-28T12:27:55.078Z</time></trkpt><trkpt lat="40.0328833" lon="8.3788083"><ele>6.0</ele><time>2026-04-28T12:27:56.028Z</time></trkpt><trkpt lat="40.0329383" lon="8.3787633"><ele>6.0</ele><time>2026-04-28T12:27:57.033Z</time></trkpt><trkpt lat="40.0330467" lon="8.3786917"><ele>6.0</ele><time>2026-04-28T12:27:59.035Z</time></trkpt><trkpt lat="40.0331367" lon="8.3786083"><ele>6.0</ele><time>2026-04-28T12:28:01.078Z</time></trkpt><trkpt lat="40.0332317" lon="8.378545"><ele>6.0</ele><time>2026-04-28T12:28:03.031Z</time></trkpt><trkpt lat="40.033325" lon="8.3784867"><ele>6.0</ele><time>2026-04-28T12:28:05.038Z</time></trkpt><trkpt lat="40.0333917" lon="8.3783917"><ele>6.0</ele><time>2026-04-28T12:28:07.082Z</time></trkpt><trkpt lat="40.0334467" lon="8.3782767"><ele>8.833333333333334</ele><time>2026-04-28T12:28:09.035Z</time></trkpt><trkpt lat="40.0335133" lon="8.3781833"><ele>11.666666666666668</ele><time>2026-04-28T12:28:11.035Z</time></trkpt><trkpt lat="40.0335667" lon="8.3781"><ele>14.5</ele><time>2026-04-28T12:28:13.086Z</time></trkpt><trkpt lat="40.0336183" lon="8.3780433"><ele>17.333333333333336</ele><time>2026-04-28T12:28:15.035Z</time></trkpt><trkpt lat="40.0337067" lon="8.3780267"><ele>20.166666666666668</ele><time>2026-04-28T12:28:18.038Z</time></trkpt><trkpt lat="40.0337783" lon="8.3780383"><ele>23.0</ele><time>2026-04-28T12:28:20.029Z</time></trkpt><trkpt lat="40.0338483" lon="8.378055"><ele>23.0</ele><time>2026-04-28T12:28:22.033Z</time></trkpt><trkpt lat="40.0339367" lon="8.378085"><ele>23.0</ele><time>2026-04-28T12:30:16.034Z</time></trkpt><trkpt lat="40.0340317" lon="8.3781367"><ele>23.0</ele><time>2026-04-28T12:30:18.029Z</time></trkpt><trkpt lat="40.034155" lon="8.37816"><ele>23.0</ele><time>2026-04-28T12:30:20.031Z</time></trkpt><trkpt lat="40.0342233" lon="8.37818"><ele>23.0</ele><time>2026-04-28T12:30:21.035Z</time></trkpt><trkpt lat="40.0343" lon="8.378195"><ele>24.166666666666668</ele><time>2026-04-28T12:30:22.035Z</time></trkpt><trkpt lat="40.0343733" lon="8.3781883"><ele>25.333333333333336</ele><time>2026-04-28T12:30:23.036Z</time></trkpt><trkpt lat="40.0344433" lon="8.3781667"><ele>26.5</ele><time>2026-04-28T12:30:24.03Z</time></trkpt><trkpt lat="40.0345117" lon="8.3781367"><ele>27.666666666666668</ele><time>2026-04-28T12:30:25.082Z</time></trkpt><trkpt lat="40.0345667" lon="8.378095"><ele>28.833333333333332</ele><time>2026-04-28T12:30:26.028Z</time></trkpt><trkpt lat="40.034625" lon="8.378055"><ele>30.0</ele><time>2026-04-28T12:30:27.033Z</time></trkpt><trkpt lat="40.0347167" lon="8.37799"><ele>30.0</ele><time>2026-04-28T12:30:29.035Z</time></trkpt><trkpt lat="40.0348067" lon="8.3779883"><ele>30.0</ele><time>2026-04-28T12:30:31.08Z</time></trkpt><trkpt lat="40.0348917" lon="8.3780433"><ele>30.0</ele><time>2026-04-28T12:30:33.032Z</time></trkpt><trkpt lat="40.034955" lon="8.3781333"><ele>30.0</ele><time>2026-04-28T12:30:35.034Z</time></trkpt><trkpt lat="40.0350033" lon="8.3782033"><ele>30.0</ele><time>2026-04-28T12:30:37.081Z</time></trkpt><trkpt lat="40.0350967" lon="8.3782417"><ele>30.0</ele><time>2026-04-28T12:30:40.035Z</time></trkpt><trkpt lat="40.0351617" lon="8.3781767"><ele>31.333333333333332</ele><time>2026-04-28T12:30:42.03Z</time></trkpt><trkpt lat="40.035225" lon="8.3781067"><ele>32.666666666666664</ele><time>2026-04-28T12:30:45.032Z</time></trkpt><trkpt lat="40.0353067" lon="8.3781567"><ele>34.0</ele><time>2026-04-28T12:30:48.03Z</time></trkpt><trkpt lat="40.0353517" lon="8.3782667"><ele>35.33333333333333</ele><time>2026-04-28T12:30:51.031Z</time></trkpt><trkpt lat="40.0353617" lon="8.3783583"><ele>36.666666666666664</ele><time>2026-04-28T12:30:53.026Z</time></trkpt><trkpt lat="40.0353583" lon="8.378475"><ele>38.0</ele><time>2026-04-28T12:30:55.081Z</time></trkpt><trkpt lat="40.035335" lon="8.378615"><ele>38.0</ele><time>2026-04-28T12:30:57.029Z</time></trkpt><trkpt lat="40.0353033" lon="8.37875"><ele>38.0</ele><time>2026-04-28T12:30:59.032Z</time></trkpt><trkpt lat="40.03528" lon="8.3788733"><ele>38.0</ele><time>2026-04-28T12:31:01.079Z</time></trkpt><trkpt lat="40.03529" lon="8.3790017"><ele>38.0</ele><time>2026-04-28T12:31:03.037Z</time></trkpt><trkpt lat="40.03532" lon="8.3791367"><ele>38.0</ele><time>2026-04-28T12:31:05.029Z</time></trkpt><trkpt lat="40.0353333" lon="8.37926"><ele>38.4</ele><time>2026-04-28T12:31:07.083Z</time></trkpt><trkpt lat="40.03537" lon="8.379375"><ele>38.8</ele><time>2026-04-28T12:31:09.033Z</time></trkpt><trkpt lat="40.0354617" lon="8.379445"><ele>39.2</ele><time>2026-04-28T12:31:11.039Z</time></trkpt><trkpt lat="40.0355783" lon="8.3794583"><ele>39.6</ele><time>2026-04-28T12:31:13.075Z</time></trkpt><trkpt lat="40.0356933" lon="8.3794217"><ele>40.0</ele><time>2026-04-28T12:31:15.033Z</time></trkpt><trkpt lat="40.0358" lon="8.3793917"><ele>39.8</ele><time>2026-04-28T12:31:17.031Z</time></trkpt><trkpt lat="40.0359" lon="8.37937"><ele>39.6</ele><time>2026-04-28T12:31:19.074Z</time></trkpt><trkpt lat="40.035995" lon="8.3793633"><ele>39.4</ele><time>2026-04-28T12:31:21.031Z</time></trkpt><trkpt lat="40.03611" lon="8.3793767"><ele>39.2</ele><time>2026-04-28T12:31:23.035Z</time></trkpt><trkpt lat="40.03623" lon="8.3794"><ele>39.0</ele><time>2026-04-28T12:31:25.079Z</time></trkpt><trkpt lat="40.03635" lon="8.3794067"><ele>39.0</ele><time>2026-04-28T12:31:27.033Z</time></trkpt><trkpt lat="40.0364533" lon="8.379405"><ele>39.0</ele><time>2026-04-28T12:31:29.034Z</time></trkpt><trkpt lat="40.03654" lon="8.3793967"><ele>39.0</ele><time>2026-04-28T12:31:31.078Z</time></trkpt><trkpt lat="40.036625" lon="8.3794017"><ele>39.0</ele><time>2026-04-28T12:31:33.034Z</time></trkpt><trkpt lat="40.036705" lon="8.3793883"><ele>39.0</ele><time>2026-04-28T12:31:35.032Z</time></trkpt><trkpt lat="40.036765" lon="8.379345"><ele>39.0</ele><time>2026-04-28T12:31:37.075Z</time></trkpt><trkpt lat="40.0368683" lon="8.3792967"><ele>37.833333333333336</ele><time>2026-04-28T12:31:39.032Z</time></trkpt><trkpt lat="40.0369317" lon="8.37926"><ele>36.666666666666664</ele><time>2026-04-28T12:31:40.036Z</time></trkpt><trkpt lat="40.036995" lon="8.3792317"><ele>35.5</ele><time>2026-04-28T12:31:41.032Z</time></trkpt><trkpt lat="40.0371017" lon="8.3792333"><ele>34.33333333333333</ele><time>2026-04-28T12:31:43.075Z</time></trkpt><trkpt lat="40.0371083" lon="8.3793617"><ele>33.166666666666664</ele><time>2026-04-28T12:31:45.035Z</time></trkpt><trkpt lat="40.0371183" lon="8.3794933"><ele>32.0</ele><time>2026-04-28T12:31:47.037Z</time></trkpt><trkpt lat="40.0371417" lon="8.3795783"><ele>31.999999999999996</ele><time>2026-04-28T12:31:48.03Z</time></trkpt><trkpt lat="40.037175" lon="8.379655"><ele>32.0</ele><time>2026-04-28T12:31:49.076Z</time></trkpt><trkpt lat="40.037235" lon="8.379735"><ele>32.0</ele><time>2026-04-28T12:31:50.028Z</time></trkpt><trkpt lat="40.037295" lon="8.3798067"><ele>32.0</ele><time>2026-04-28T12:31:51.03Z</time></trkpt><trkpt lat="40.0373533" lon="8.3798667"><ele>31.999999999999996</ele><time>2026-04-28T12:31:52.032Z</time></trkpt><trkpt lat="40.0374467" lon="8.3799367"><ele>32.0</ele><time>2026-04-28T12:31:54.034Z</time></trkpt><trkpt lat="40.0375183" lon="8.379965"><ele>33.0</ele><time>2026-04-28T12:31:56.029Z</time></trkpt><trkpt lat="40.0375983" lon="8.37997"><ele>34.0</ele><time>2026-04-28T12:31:59.031Z</time></trkpt><trkpt lat="40.0376767" lon="8.3799717"><ele>35.0</ele><time>2026-04-28T12:32:02.028Z</time></trkpt><trkpt lat="40.03775" lon="8.37995"><ele>36.0</ele><time>2026-04-28T12:32:04.031Z</time></trkpt><trkpt lat="40.037815" lon="8.3799333"><ele>37.0</ele><time>2026-04-28T12:32:06.028Z</time></trkpt><trkpt lat="40.0378933" lon="8.3799033"><ele>38.0</ele><time>2026-04-28T12:32:09.035Z</time></trkpt><trkpt lat="40.037965" lon="8.37986"><ele>38.0</ele><time>2026-04-28T12:32:12.029Z</time></trkpt><trkpt lat="40.0380333" lon="8.3798317"><ele>38.0</ele><time>2026-04-28T12:32:16.032Z</time></trkpt><trkpt lat="40.0380683" lon="8.3799033"><ele>38.0</ele><time>2026-04-28T12:32:35.038Z</time></trkpt><trkpt lat="40.0380433" lon="8.380005"><ele>38.0</ele><time>2026-04-28T12:32:37.082Z</time></trkpt><trkpt lat="40.038" lon="8.380135"><ele>38.0</ele><time>2026-04-28T12:32:39.031Z</time></trkpt><trkpt lat="40.0379567" lon="8.3802267"><ele>38.0</ele><time>2026-04-28T12:32:41.028Z</time></trkpt><trkpt lat="40.0379217" lon="8.3802983"><ele>38.0</ele><time>2026-04-28T12:32:43.083Z</time></trkpt><trkpt lat="40.0379083" lon="8.380435"><ele>38.0</ele><time>2026-04-28T12:34:34.035Z</time></trkpt><trkpt lat="40.0379067" lon="8.3805633"><ele>38.0</ele><time>2026-04-28T12:34:37.078Z</time></trkpt><trkpt lat="40.0378433" lon="8.380715"><ele>38.0</ele><time>2026-04-28T12:34:39.039Z</time></trkpt><trkpt lat="40.03779" lon="8.3808183"><ele>38.0</ele><time>2026-04-28T12:34:40.032Z</time></trkpt><trkpt lat="40.0377417" lon="8.3809217"><ele>37.8</ele><time>2026-04-28T12:34:41.033Z</time></trkpt><trkpt lat="40.0377" lon="8.3810383"><ele>37.599999999999994</ele><time>2026-04-28T12:34:42.027Z</time></trkpt><trkpt lat="40.03767" lon="8.38116"><ele>37.400000000000006</ele><time>2026-04-28T12:34:43.077Z</time></trkpt><trkpt lat="40.0376417" lon="8.3812683"><ele>37.2</ele><time>2026-04-28T12:34:44.028Z</time></trkpt><trkpt lat="40.0376133" lon="8.3813533"><ele>37.0</ele><time>2026-04-28T12:34:45.03Z</time></trkpt><trkpt lat="40.0375617" lon="8.38146"><ele>36.66666666666667</ele><time>2026-04-28T12:34:47.035Z</time></trkpt><trkpt lat="40.0375233" lon="8.3815267"><ele>36.333333333333336</ele><time>2026-04-28T12:34:49.078Z</time></trkpt><trkpt lat="40.037515" lon="8.3816383"><ele>36.0</ele><time>2026-04-28T12:34:52.029Z</time></trkpt><trkpt lat="40.0375783" lon="8.381685"><ele>35.666666666666664</ele><time>2026-04-28T12:34:54.034Z</time></trkpt><trkpt lat="40.0376483" lon="8.3816933"><ele>35.33333333333333</ele><time>2026-04-28T12:34:56.027Z</time></trkpt><trkpt lat="40.0377283" lon="8.38168"><ele>35.0</ele><time>2026-04-28T12:34:58.03Z</time></trkpt><trkpt lat="40.037825" lon="8.38168"><ele>35.0</ele><time>2026-04-28T12:35:00.034Z</time></trkpt><trkpt lat="40.037915" lon="8.3816967"><ele>35.0</ele><time>2026-04-28T12:35:02.027Z</time></trkpt><trkpt lat="40.0380183" lon="8.3817233"><ele>35.0</ele><time>2026-04-28T12:35:04.033Z</time></trkpt><trkpt lat="40.0381183" lon="8.381755"><ele>35.0</ele><time>2026-04-28T12:35:06.042Z</time></trkpt><trkpt lat="40.0381983" lon="8.3817917"><ele>35.0</ele><time>2026-04-28T12:35:08.028Z</time></trkpt><trkpt lat="40.0382683" lon="8.381805"><ele>34.4</ele><time>2026-04-28T12:35:10.029Z</time></trkpt><trkpt lat="40.0383483" lon="8.381805"><ele>33.8</ele><time>2026-04-28T12:35:12.028Z</time></trkpt><trkpt lat="40.0384317" lon="8.3817717"><ele>33.2</ele><time>2026-04-28T12:35:14.028Z</time></trkpt><trkpt lat="40.0385233" lon="8.381705"><ele>32.6</ele><time>2026-04-28T12:35:16.032Z</time></trkpt><trkpt lat="40.03862" lon="8.3816167"><ele>32.0</ele><time>2026-04-28T12:35:18.027Z</time></trkpt><trkpt lat="40.0387683" lon="8.3815117"><ele>31.999999999999996</ele><time>2026-04-28T12:35:22.026Z</time></trkpt><trkpt lat="40.0388783" lon="8.3814283"><ele>32.0</ele><time>2026-04-28T12:35:25.086Z</time></trkpt><trkpt lat="40.038945" lon="8.3813733"><ele>32.0</ele><time>2026-04-28T12:35:27.03Z</time></trkpt><trkpt lat="40.039015" lon="8.3813283"><ele>32.0</ele><time>2026-04-28T12:35:31.08Z</time></trkpt><trkpt lat="40.0390867" lon="8.3813283"><ele>31.999999999999996</ele><time>2026-04-28T12:35:34.03Z</time></trkpt><trkpt lat="40.039145" lon="8.3814183"><ele>32.0</ele><time>2026-04-28T12:35:37.083Z</time></trkpt><trkpt lat="40.03914" lon="8.38151"><ele>31.166666666666664</ele><time>2026-04-28T12:35:40.027Z</time></trkpt><trkpt lat="40.0391833" lon="8.3816"><ele>30.333333333333332</ele><time>2026-04-28T12:35:43.076Z</time></trkpt><trkpt lat="40.039235" lon="8.381695"><ele>29.5</ele><time>2026-04-28T12:35:46.044Z</time></trkpt><trkpt lat="40.0392783" lon="8.3817583"><ele>28.666666666666664</ele><time>2026-04-28T12:35:48.031Z</time></trkpt><trkpt lat="40.0393317" lon="8.3818267"><ele>27.833333333333332</ele><time>2026-04-28T12:35:50.054Z</time></trkpt><trkpt lat="40.0393917" lon="8.3819033"><ele>27.0</ele><time>2026-04-28T12:35:52.041Z</time></trkpt><trkpt lat="40.0394417" lon="8.381985"><ele>27.0</ele><time>2026-04-28T12:35:54.04Z</time></trkpt><trkpt lat="40.0395" lon="8.3820917"><ele>27.000000000000004</ele><time>2026-04-28T12:35:56.028Z</time></trkpt><trkpt lat="40.039545" lon="8.3822183"><ele>27.000000000000004</ele><time>2026-04-28T12:35:58.026Z</time></trkpt><trkpt lat="40.0395683" lon="8.38235"><ele>27.0</ele><time>2026-04-28T12:36:00.038Z</time></trkpt><trkpt lat="40.0396133" lon="8.3824567"><ele>27.0</ele><time>2026-04-28T12:36:02.025Z</time></trkpt><trkpt lat="40.0396617" lon="8.382555"><ele>27.166666666666668</ele><time>2026-04-28T12:36:04.034Z</time></trkpt><trkpt lat="40.0396933" lon="8.3826583"><ele>27.333333333333336</ele><time>2026-04-28T12:36:06.029Z</time></trkpt><trkpt lat="40.0397167" lon="8.3827417"><ele>27.5</ele><time>2026-04-28T12:36:08.029Z</time></trkpt><trkpt lat="40.0397583" lon="8.3828567"><ele>27.666666666666668</ele><time>2026-04-28T12:36:11.039Z</time></trkpt><trkpt lat="40.0398017" lon="8.3829433"><ele>27.833333333333336</ele><time>2026-04-28T12:36:13.088Z</time></trkpt><trkpt lat="40.0398333" lon="8.3830483"><ele>28.0</ele><time>2026-04-28T12:36:15.027Z</time></trkpt><trkpt lat="40.0398467" lon="8.3831517"><ele>27.4</ele><time>2026-04-28T12:36:17.033Z</time></trkpt><trkpt lat="40.0398683" lon="8.3832483"><ele>26.799999999999997</ele><time>2026-04-28T12:36:19.076Z</time></trkpt><trkpt lat="40.0399267" lon="8.3833467"><ele>26.2</ele><time>2026-04-28T12:36:21.035Z</time></trkpt><trkpt lat="40.039985" lon="8.3834567"><ele>25.6</ele><time>2026-04-28T12:36:23.033Z</time></trkpt><trkpt lat="40.04" lon="8.38357"><ele>25.0</ele><time>2026-04-28T12:36:25.096Z</time></trkpt><trkpt lat="40.0400067" lon="8.3836917"><ele>24.333333333333336</ele><time>2026-04-28T12:36:27.03Z</time></trkpt><trkpt lat="40.0400333" lon="8.3838067"><ele>23.666666666666668</ele><time>2026-04-28T12:36:29.034Z</time></trkpt><trkpt lat="40.0400767" lon="8.383885"><ele>23.0</ele><time>2026-04-28T12:36:31.078Z</time></trkpt><trkpt lat="40.040135" lon="8.383925"><ele>22.333333333333336</ele><time>2026-04-28T12:36:33.032Z</time></trkpt><trkpt lat="40.0402117" lon="8.3839667"><ele>21.666666666666668</ele><time>2026-04-28T12:36:35.034Z</time></trkpt><trkpt lat="40.0402683" lon="8.384035"><ele>21.0</ele><time>2026-04-28T12:36:37.078Z</time></trkpt><trkpt lat="40.040315" lon="8.384105"><ele>22.57142857142857</ele><time>2026-04-28T12:36:39.034Z</time></trkpt><trkpt lat="40.040355" lon="8.384185"><ele>24.142857142857142</ele><time>2026-04-28T12:36:41.03Z</time></trkpt><trkpt lat="40.0404033" lon="8.3842617"><ele>25.714285714285715</ele><time>2026-04-28T12:36:43.084Z</time></trkpt><trkpt lat="40.0404433" lon="8.3843333"><ele>27.285714285714285</ele><time>2026-04-28T12:36:45.04Z</time></trkpt><trkpt lat="40.0404733" lon="8.3844083"><ele>28.857142857142854</ele><time>2026-04-28T12:36:47.029Z</time></trkpt><trkpt lat="40.04049" lon="8.3845083"><ele>30.428571428571427</ele><time>2026-04-28T12:36:49.076Z</time></trkpt><trkpt lat="40.0404983" lon="8.3846233"><ele>32.0</ele><time>2026-04-28T12:36:51.033Z</time></trkpt><trkpt lat="40.0404967" lon="8.3847267"><ele>32.6</ele><time>2026-04-28T12:36:53.033Z</time></trkpt><trkpt lat="40.0405" lon="8.38484"><ele>33.2</ele><time>2026-04-28T12:36:55.088Z</time></trkpt><trkpt lat="40.0405233" lon="8.3849483"><ele>33.8</ele><time>2026-04-28T12:36:57.03Z</time></trkpt><trkpt lat="40.04056" lon="8.385045"><ele>34.4</ele><time>2026-04-28T12:36:59.029Z</time></trkpt><trkpt lat="40.0405933" lon="8.38516"><ele>35.0</ele><time>2026-04-28T12:37:01.094Z</time></trkpt><trkpt lat="40.0406183" lon="8.3852867"><ele>35.0</ele><time>2026-04-28T12:37:03.029Z</time></trkpt><trkpt lat="40.0406367" lon="8.3853983"><ele>35.0</ele><time>2026-04-28T12:37:05.03Z</time></trkpt><trkpt lat="40.04069" lon="8.3854667"><ele>35.0</ele><time>2026-04-28T12:37:08.03Z</time></trkpt><trkpt lat="40.0407583" lon="8.38548"><ele>35.0</ele><time>2026-04-28T12:37:22.027Z</time></trkpt><trkpt lat="40.0408333" lon="8.3854817"><ele>35.0</ele><time>2026-04-28T12:37:24.037Z</time></trkpt><trkpt lat="40.0409183" lon="8.3854717"><ele>35.0</ele><time>2026-04-28T12:37:26.029Z</time></trkpt><trkpt lat="40.0410067" lon="8.3854433"><ele>34.4</ele><time>2026-04-28T12:37:28.023Z</time></trkpt><trkpt lat="40.0410917" lon="8.385415"><ele>33.8</ele><time>2026-04-28T12:37:30.035Z</time></trkpt><trkpt lat="40.04116" lon="8.38538"><ele>33.2</ele><time>2026-04-28T12:37:32.031Z</time></trkpt><trkpt lat="40.0412267" lon="8.3853383"><ele>32.6</ele><time>2026-04-28T12:37:34.029Z</time></trkpt><trkpt lat="40.0413767" lon="8.3852333"><ele>32.0</ele><time>2026-04-28T12:37:39.026Z</time></trkpt><trkpt lat="40.041435" lon="8.3851817"><ele>32.0</ele><time>2026-04-28T12:37:41.033Z</time></trkpt><trkpt lat="40.04151" lon="8.385125"><ele>32.0</ele><time>2026-04-28T12:37:43.08Z</time></trkpt><trkpt lat="40.0416" lon="8.3850783"><ele>32.0</ele><time>2026-04-28T12:37:45.028Z</time></trkpt><trkpt lat="40.0416867" lon="8.3850417"><ele>32.0</ele><time>2026-04-28T12:37:47.036Z</time></trkpt><trkpt lat="40.0417667" lon="8.3850067"><ele>32.0</ele><time>2026-04-28T12:37:49.081Z</time></trkpt><trkpt lat="40.0418617" lon="8.3850167"><ele>32.6</ele><time>2026-04-28T12:37:51.032Z</time></trkpt><trkpt lat="40.041945" lon="8.385105"><ele>33.2</ele><time>2026-04-28T12:37:53.027Z</time></trkpt><trkpt lat="40.0420133" lon="8.3851983"><ele>33.8</ele><time>2026-04-28T12:37:55.077Z</time></trkpt><trkpt lat="40.04209" lon="8.3852833"><ele>34.4</ele><time>2026-04-28T12:37:57.035Z</time></trkpt><trkpt lat="40.0421633" lon="8.3853783"><ele>35.0</ele><time>2026-04-28T12:37:59.031Z</time></trkpt><trkpt lat="40.042315" lon="8.3855133"><ele>35.83333333333333</ele><time>2026-04-28T12:38:03.03Z</time></trkpt><trkpt lat="40.0423583" lon="8.38561"><ele>36.666666666666664</ele><time>2026-04-28T12:38:05.031Z</time></trkpt><trkpt lat="40.0423833" lon="8.3857333"><ele>37.5</ele><time>2026-04-28T12:38:07.075Z</time></trkpt><trkpt lat="40.0424133" lon="8.3858483"><ele>38.333333333333336</ele><time>2026-04-28T12:38:09.029Z</time></trkpt><trkpt lat="40.0424367" lon="8.3859333"><ele>39.16666666666667</ele><time>2026-04-28T12:38:11.034Z</time></trkpt><trkpt lat="40.0424467" lon="8.38603"><ele>40.0</ele><time>2026-04-28T12:38:16.035Z</time></trkpt><trkpt lat="40.0424917" lon="8.38609"><ele>40.0</ele><time>2026-04-28T12:38:19.077Z</time></trkpt><trkpt lat="40.0425617" lon="8.3861483"><ele>40.0</ele><time>2026-04-28T12:38:21.032Z</time></trkpt><trkpt lat="40.0426367" lon="8.3861917"><ele>40.0</ele><time>2026-04-28T12:38:23.033Z</time></trkpt><trkpt lat="40.04273" lon="8.3862567"><ele>40.0</ele><time>2026-04-28T12:38:25.082Z</time></trkpt><trkpt lat="40.042795" lon="8.3863683"><ele>40.0</ele><time>2026-04-28T12:38:27.034Z</time></trkpt><trkpt lat="40.04289" lon="8.3866917"><ele>40.4</ele><time>2026-04-28T12:38:33.035Z</time></trkpt><trkpt lat="40.04294" lon="8.3867717"><ele>40.8</ele><time>2026-04-28T12:38:35.028Z</time></trkpt><trkpt lat="40.0430233" lon="8.3868117"><ele>41.2</ele><time>2026-04-28T12:38:37.078Z</time></trkpt><trkpt lat="40.0431367" lon="8.386805"><ele>41.6</ele><time>2026-04-28T12:38:39.032Z</time></trkpt><trkpt lat="40.043255" lon="8.3868083"><ele>42.0</ele><time>2026-04-28T12:38:41.029Z</time></trkpt><trkpt lat="40.043365" lon="8.3868183"><ele>42.0</ele><time>2026-04-28T12:38:43.074Z</time></trkpt><trkpt lat="40.0434767" lon="8.3868333"><ele>42.0</ele><time>2026-04-28T12:38:45.032Z</time></trkpt><trkpt lat="40.0435767" lon="8.3868367"><ele>42.0</ele><time>2026-04-28T12:38:47.032Z</time></trkpt><trkpt lat="40.0436617" lon="8.386845"><ele>42.0</ele><time>2026-04-28T12:38:49.078Z</time></trkpt><trkpt lat="40.0437533" lon="8.386865"><ele>42.0</ele><time>2026-04-28T12:38:51.032Z</time></trkpt><trkpt lat="40.04382" lon="8.3869067"><ele>42.0</ele><time>2026-04-28T12:38:53.027Z</time></trkpt><trkpt lat="40.0438667" lon="8.386995"><ele>42.0</ele><time>2026-04-28T12:38:56.03Z</time></trkpt><trkpt lat="40.043885" lon="8.3870867"><ele>42.0</ele><time>2026-04-28T12:38:58.032Z</time></trkpt><trkpt lat="40.04387" lon="8.3871967"><ele>42.0</ele><time>2026-04-28T12:39:00.035Z</time></trkpt><trkpt lat="40.043835" lon="8.387335"><ele>42.0</ele><time>2026-04-28T12:39:02.026Z</time></trkpt><trkpt lat="40.04381" lon="8.3874133"><ele>42.0</ele><time>2026-04-28T12:39:03.03Z</time></trkpt><trkpt lat="40.0437767" lon="8.38749"><ele>42.75</ele><time>2026-04-28T12:39:04.027Z</time></trkpt><trkpt lat="40.0436517" lon="8.3877883"><ele>43.5</ele><time>2026-04-28T12:39:08.027Z</time></trkpt><trkpt lat="40.0436217" lon="8.3878617"><ele>44.25</ele><time>2026-04-28T12:39:09.034Z</time></trkpt><trkpt lat="40.0435933" lon="8.3879367"><ele>45.0</ele><time>2026-04-28T12:39:10.029Z</time></trkpt><trkpt lat="40.0435633" lon="8.3880133"><ele>45.0</ele><time>2026-04-28T12:39:11.03Z</time></trkpt><trkpt lat="40.0435333" lon="8.3880867"><ele>45.0</ele><time>2026-04-28T12:39:12.026Z</time></trkpt><trkpt lat="40.0434817" lon="8.38823"><ele>45.0</ele><time>2026-04-28T12:39:14.029Z</time></trkpt><trkpt lat="40.0434267" lon="8.38837"><ele>45.0</ele><time>2026-04-28T12:39:16.031Z</time></trkpt><trkpt lat="40.043375" lon="8.3885033"><ele>45.0</ele><time>2026-04-28T12:39:18.025Z</time></trkpt><trkpt lat="40.0433183" lon="8.3886317"><ele>45.2</ele><time>2026-04-28T12:39:20.031Z</time></trkpt><trkpt lat="40.0432567" lon="8.388755"><ele>45.4</ele><time>2026-04-28T12:39:22.027Z</time></trkpt><trkpt lat="40.0432033" lon="8.3888817"><ele>45.599999999999994</ele><time>2026-04-28T12:39:24.028Z</time></trkpt><trkpt lat="40.04314" lon="8.3889933"><ele>45.8</ele><time>2026-04-28T12:39:26.028Z</time></trkpt><trkpt lat="40.0430683" lon="8.3890917"><ele>46.0</ele><time>2026-04-28T12:39:28.029Z</time></trkpt><trkpt lat="40.0429917" lon="8.3891867"><ele>45.4</ele><time>2026-04-28T12:39:30.033Z</time></trkpt><trkpt lat="40.0429033" lon="8.3892583"><ele>44.8</ele><time>2026-04-28T12:39:32.027Z</time></trkpt><trkpt lat="40.042805" lon="8.389325"><ele>44.199999999999996</ele><time>2026-04-28T12:39:34.029Z</time></trkpt><trkpt lat="40.042725" lon="8.3893967"><ele>43.599999999999994</ele><time>2026-04-28T12:39:36.034Z</time></trkpt><trkpt lat="40.042635" lon="8.3894667"><ele>43.0</ele><time>2026-04-28T12:39:38.027Z</time></trkpt><trkpt lat="40.0425483" lon="8.389525"><ele>42.66666666666667</ele><time>2026-04-28T12:39:40.029Z</time></trkpt><trkpt lat="40.0424533" lon="8.3895917"><ele>42.333333333333336</ele><time>2026-04-28T12:39:42.027Z</time></trkpt><trkpt lat="40.0423467" lon="8.3896683"><ele>42.0</ele><time>2026-04-28T12:39:44.029Z</time></trkpt><trkpt lat="40.04229" lon="8.3897067"><ele>41.666666666666664</ele><time>2026-04-28T12:39:45.036Z</time></trkpt><trkpt lat="40.0422317" lon="8.3897483"><ele>41.33333333333333</ele><time>2026-04-28T12:39:46.036Z</time></trkpt><trkpt lat="40.0421717" lon="8.389795"><ele>41.0</ele><time>2026-04-28T12:39:47.032Z</time></trkpt><trkpt lat="40.0421117" lon="8.38984"><ele>40.57142857142857</ele><time>2026-04-28T12:39:48.032Z</time></trkpt><trkpt lat="40.042055" lon="8.3898867"><ele>40.14285714285714</ele><time>2026-04-28T12:39:49.076Z</time></trkpt><trkpt lat="40.041995" lon="8.3899417"><ele>39.71428571428571</ele><time>2026-04-28T12:39:50.028Z</time></trkpt><trkpt lat="40.0419383" lon="8.3899967"><ele>39.285714285714285</ele><time>2026-04-28T12:39:51.031Z</time></trkpt><trkpt lat="40.0418817" lon="8.390045"><ele>38.85714285714286</ele><time>2026-04-28T12:39:52.032Z</time></trkpt><trkpt lat="40.0418333" lon="8.3900983"><ele>38.42857142857142</ele><time>2026-04-28T12:39:53.03Z</time></trkpt><trkpt lat="40.0417733" lon="8.3901933"><ele>38.0</ele><time>2026-04-28T12:39:55.088Z</time></trkpt><trkpt lat="40.04174" lon="8.3902717"><ele>38.0</ele><time>2026-04-28T12:39:57.034Z</time></trkpt><trkpt lat="40.0416883" lon="8.39037"><ele>38.0</ele><time>2026-04-28T12:40:00.028Z</time></trkpt><trkpt lat="40.04164" lon="8.3904583"><ele>38.0</ele><time>2026-04-28T12:40:03.028Z</time></trkpt><trkpt lat="40.0416033" lon="8.3905317"><ele>38.0</ele><time>2026-04-28T12:40:06.032Z</time></trkpt><trkpt lat="40.0415633" lon="8.3906017"><ele>38.0</ele><time>2026-04-28T12:40:09.034Z</time></trkpt><trkpt lat="40.0415017" lon="8.3906617"><ele>38.0</ele><time>2026-04-28T12:40:12.025Z</time></trkpt><trkpt lat="40.0414183" lon="8.390675"><ele>37.5</ele><time>2026-04-28T12:40:15.028Z</time></trkpt><trkpt lat="40.0413517" lon="8.3906517"><ele>37.0</ele><time>2026-04-28T12:40:17.028Z</time></trkpt><trkpt lat="40.04128" lon="8.3906533"><ele>36.5</ele><time>2026-04-28T12:40:19.074Z</time></trkpt><trkpt lat="40.04122" lon="8.39072"><ele>36.0</ele><time>2026-04-28T12:40:21.029Z</time></trkpt><trkpt lat="40.0411683" lon="8.3908233"><ele>35.5</ele><time>2026-04-28T12:40:23.027Z</time></trkpt><trkpt lat="40.041115" lon="8.390895"><ele>35.0</ele><time>2026-04-28T12:40:25.075Z</time></trkpt><trkpt lat="40.04103" lon="8.39095"><ele>35.0</ele><time>2026-04-28T12:40:28.028Z</time></trkpt><trkpt lat="40.040955" lon="8.3909683"><ele>35.0</ele><time>2026-04-28T12:40:30.025Z</time></trkpt><trkpt lat="40.0408867" lon="8.3909283"><ele>35.0</ele><time>2026-04-28T12:40:32.024Z</time></trkpt><trkpt lat="40.0408917" lon="8.3908117"><ele>35.0</ele><time>2026-04-28T12:40:35.026Z</time></trkpt><trkpt lat="40.040935" lon="8.3907133"><ele>35.0</ele><time>2026-04-28T12:40:37.077Z</time></trkpt><trkpt lat="40.0410533" lon="8.3905083"><ele>35.0</ele><time>2026-04-28T12:40:41.028Z</time></trkpt><trkpt lat="40.0410917" lon="8.3904117"><ele>35.0</ele><time>2026-04-28T12:40:43.08Z</time></trkpt><trkpt lat="40.0410833" lon="8.3903183"><ele>35.0</ele><time>2026-04-28T12:40:45.03Z</time></trkpt><trkpt lat="40.041" lon="8.3903017"><ele>35.0</ele><time>2026-04-28T12:40:48.03Z</time></trkpt><trkpt lat="40.04095" lon="8.3903867"><ele>35.0</ele><time>2026-04-28T12:40:50.025Z</time></trkpt><trkpt lat="40.0409033" lon="8.3904917"><ele>35.0</ele><time>2026-04-28T12:40:52.026Z</time></trkpt><trkpt lat="40.0408583" lon="8.390575"><ele>35.0</ele><time>2026-04-28T12:40:54.024Z</time></trkpt><trkpt lat="40.0408133" lon="8.390655"><ele>35.0</ele><time>2026-04-28T12:40:56.025Z</time></trkpt><trkpt lat="40.04076" lon="8.390735"><ele>35.0</ele><time>2026-04-28T12:40:58.024Z</time></trkpt><trkpt lat="40.0407" lon="8.390825"><ele>35.0</ele><time>2026-04-28T12:41:00.028Z</time></trkpt><trkpt lat="40.0406417" lon="8.3909083"><ele>35.0</ele><time>2026-04-28T12:41:02.023Z</time></trkpt><trkpt lat="40.040585" lon="8.3909833"><ele>35.0</ele><time>2026-04-28T12:41:04.034Z</time></trkpt><trkpt lat="40.0405367" lon="8.391055"><ele>34.42857142857143</ele><time>2026-04-28T12:41:06.029Z</time></trkpt><trkpt lat="40.0404933" lon="8.3911283"><ele>33.85714285714286</ele><time>2026-04-28T12:41:09.029Z</time></trkpt><trkpt lat="40.0404533" lon="8.391205"><ele>33.285714285714285</ele><time>2026-04-28T12:41:11.031Z</time></trkpt><trkpt lat="40.0404167" lon="8.3912933"><ele>32.714285714285715</ele><time>2026-04-28T12:41:13.081Z</time></trkpt><trkpt lat="40.0403767" lon="8.3913583"><ele>32.142857142857146</ele><time>2026-04-28T12:41:15.034Z</time></trkpt><trkpt lat="40.0403633" lon="8.3914467"><ele>31.571428571428573</ele><time>2026-04-28T12:41:18.027Z</time></trkpt><trkpt lat="40.0404167" lon="8.3915017"><ele>31.0</ele><time>2026-04-28T12:41:21.029Z</time></trkpt><trkpt lat="40.04048" lon="8.3915383"><ele>30.4</ele><time>2026-04-28T12:41:24.033Z</time></trkpt><trkpt lat="40.0405433" lon="8.3915867"><ele>29.8</ele><time>2026-04-28T12:41:27.029Z</time></trkpt><trkpt lat="40.0406067" lon="8.391635"><ele>29.199999999999996</ele><time>2026-04-28T12:41:31.081Z</time></trkpt><trkpt lat="40.04069" lon="8.3916983"><ele>28.599999999999998</ele><time>2026-04-28T12:42:04.028Z</time></trkpt><trkpt lat="40.040775" lon="8.391775"><ele>28.0</ele><time>2026-04-28T12:42:06.028Z</time></trkpt><trkpt lat="40.0408583" lon="8.391855"><ele>28.0</ele><time>2026-04-28T12:42:08.028Z</time></trkpt><trkpt lat="40.04094" lon="8.3919317"><ele>28.0</ele><time>2026-04-28T12:42:10.028Z</time></trkpt><trkpt lat="40.04103" lon="8.3920167"><ele>28.0</ele><time>2026-04-28T12:42:12.031Z</time></trkpt><trkpt lat="40.0411033" lon="8.3921"><ele>28.0</ele><time>2026-04-28T12:42:14.03Z</time></trkpt><trkpt lat="40.04128" lon="8.3923067"><ele>26.500000000000004</ele><time>2026-04-28T12:42:20.022Z</time></trkpt><trkpt lat="40.0413417" lon="8.3923617"><ele>25.0</ele><time>2026-04-28T12:42:22.029Z</time></trkpt><trkpt lat="40.0414083" lon="8.3924133"><ele>23.5</ele><time>2026-04-28T12:42:24.026Z</time></trkpt><trkpt lat="40.0414733" lon="8.3924783"><ele>22.0</ele><time>2026-04-28T12:42:26.032Z</time></trkpt><trkpt lat="40.041525" lon="8.3925517"><ele>20.5</ele><time>2026-04-28T12:42:28.031Z</time></trkpt><trkpt lat="40.0415667" lon="8.3926267"><ele>19.0</ele><time>2026-04-28T12:42:30.037Z</time></trkpt><trkpt lat="40.041625" lon="8.39271"><ele>18.857142857142858</ele><time>2026-04-28T12:42:32.026Z</time></trkpt><trkpt lat="40.0416883" lon="8.392785"><ele>18.714285714285715</ele><time>2026-04-28T12:42:34.027Z</time></trkpt><trkpt lat="40.0417433" lon="8.392855"><ele>18.571428571428573</ele><time>2026-04-28T12:42:36.026Z</time></trkpt><trkpt lat="40.0417833" lon="8.392925"><ele>18.42857142857143</ele><time>2026-04-28T12:42:38.028Z</time></trkpt><trkpt lat="40.04183" lon="8.3929817"><ele>18.285714285714285</ele><time>2026-04-28T12:42:40.03Z</time></trkpt><trkpt lat="40.0418967" lon="8.3930333"><ele>18.142857142857146</ele><time>2026-04-28T12:42:42.03Z</time></trkpt><trkpt lat="40.0419633" lon="8.3930817"><ele>18.0</ele><time>2026-04-28T12:42:44.021Z</time></trkpt><trkpt lat="40.04203" lon="8.39314"><ele>17.5</ele><time>2026-04-28T12:42:47.03Z</time></trkpt><trkpt lat="40.04209" lon="8.39317"><ele>17.0</ele><time>2026-04-28T12:42:50.025Z</time></trkpt><trkpt lat="40.042165" lon="8.3931983"><ele>16.5</ele><time>2026-04-28T12:42:53.03Z</time></trkpt><trkpt lat="40.04223" lon="8.3931833"><ele>16.0</ele><time>2026-04-28T12:42:57.034Z</time></trkpt><trkpt lat="40.0422967" lon="8.3932017"><ele>15.5</ele><time>2026-04-28T12:43:00.025Z</time></trkpt><trkpt lat="40.0423617" lon="8.3932533"><ele>15.0</ele><time>2026-04-28T12:43:02.022Z</time></trkpt><trkpt lat="40.0424417" lon="8.3933367"><ele>14.333333333333334</ele><time>2026-04-28T12:43:04.028Z</time></trkpt><trkpt lat="40.04252" lon="8.3933983"><ele>13.666666666666666</ele><time>2026-04-28T12:43:06.026Z</time></trkpt><trkpt lat="40.0425917" lon="8.3934667"><ele>13.0</ele><time>2026-04-28T12:43:08.027Z</time></trkpt><trkpt lat="40.0426583" lon="8.393535"><ele>12.333333333333332</ele><time>2026-04-28T12:43:10.035Z</time></trkpt><trkpt lat="40.0427067" lon="8.3936167"><ele>11.666666666666666</ele><time>2026-04-28T12:43:12.035Z</time></trkpt><trkpt lat="40.0427333" lon="8.393715"><ele>11.0</ele><time>2026-04-28T12:43:14.028Z</time></trkpt><trkpt lat="40.0427783" lon="8.3938217"><ele>10.8</ele><time>2026-04-28T12:43:16.025Z</time></trkpt><trkpt lat="40.0428567" lon="8.3939183"><ele>10.600000000000001</ele><time>2026-04-28T12:43:18.028Z</time></trkpt><trkpt lat="40.0429467" lon="8.3940167"><ele>10.4</ele><time>2026-04-28T12:43:20.023Z</time></trkpt><trkpt lat="40.0430217" lon="8.394085"><ele>10.2</ele><time>2026-04-28T12:43:22.026Z</time></trkpt><trkpt lat="40.043105" lon="8.3941283"><ele>10.0</ele><time>2026-04-28T12:43:25.073Z</time></trkpt><trkpt lat="40.0431683" lon="8.3941967"><ele>10.0</ele><time>2026-04-28T12:43:28.03Z</time></trkpt><trkpt lat="40.04321" lon="8.3942917"><ele>10.0</ele><time>2026-04-28T12:43:30.026Z</time></trkpt><trkpt lat="40.0432467" lon="8.3944017"><ele>10.0</ele><time>2026-04-28T12:43:32.026Z</time></trkpt><trkpt lat="40.0432833" lon="8.394515"><ele>10.0</ele><time>2026-04-28T12:43:34.027Z</time></trkpt><trkpt lat="40.0433267" lon="8.3946217"><ele>10.0</ele><time>2026-04-28T12:43:36.026Z</time></trkpt><trkpt lat="40.0433683" lon="8.3947233"><ele>9.6</ele><time>2026-04-28T12:43:39.032Z</time></trkpt><trkpt lat="40.0434233" lon="8.3948133"><ele>9.2</ele><time>2026-04-28T12:43:42.024Z</time></trkpt><trkpt lat="40.04349" lon="8.3948967"><ele>8.8</ele><time>2026-04-28T12:43:45.024Z</time></trkpt><trkpt lat="40.043565" lon="8.3949667"><ele>8.4</ele><time>2026-04-28T12:43:48.029Z</time></trkpt><trkpt lat="40.043655" lon="8.395015"><ele>8.0</ele><time>2026-04-28T12:43:51.03Z</time></trkpt><trkpt lat="40.04372" lon="8.3951067"><ele>8.0</ele><time>2026-04-28T12:43:54.029Z</time></trkpt><trkpt lat="40.043755" lon="8.395185"><ele>7.999999999999999</ele><time>2026-04-28T12:43:56.023Z</time></trkpt><trkpt lat="40.04379" lon="8.395285"><ele>8.0</ele><time>2026-04-28T12:43:59.033Z</time></trkpt><trkpt lat="40.0438" lon="8.3953783"><ele>8.0</ele><time>2026-04-28T12:44:03.029Z</time></trkpt><trkpt lat="40.0437817" lon="8.3954667"><ele>7.999999999999999</ele><time>2026-04-28T12:44:06.054Z</time></trkpt><trkpt lat="40.0437483" lon="8.3955517"><ele>8.0</ele><time>2026-04-28T12:44:08.026Z</time></trkpt><trkpt lat="40.0437017" lon="8.395625"><ele>8.0</ele><time>2026-04-28T12:44:10.024Z</time></trkpt><trkpt lat="40.043655" lon="8.39569"><ele>7.7142857142857135</ele><time>2026-04-28T12:44:12.035Z</time></trkpt><trkpt lat="40.04361" lon="8.395755"><ele>7.428571428571428</ele><time>2026-04-28T12:44:14.027Z</time></trkpt><trkpt lat="40.0435667" lon="8.39583"><ele>7.142857142857142</ele><time>2026-04-28T12:44:16.034Z</time></trkpt><trkpt lat="40.0435117" lon="8.3958883"><ele>6.857142857142857</ele><time>2026-04-28T12:44:18.034Z</time></trkpt><trkpt lat="40.04344" lon="8.3958883"><ele>6.571428571428571</ele><time>2026-04-28T12:44:20.025Z</time></trkpt><trkpt lat="40.04336" lon="8.39587"><ele>6.285714285714285</ele><time>2026-04-28T12:44:22.032Z</time></trkpt><trkpt lat="40.04329" lon="8.395905"><ele>6.0</ele><time>2026-04-28T12:44:24.027Z</time></trkpt><trkpt lat="40.043245" lon="8.3959917"><ele>6.0</ele><time>2026-04-28T12:44:26.036Z</time></trkpt><trkpt lat="40.04318" lon="8.3960833"><ele>6.0</ele><time>2026-04-28T12:44:28.026Z</time></trkpt><trkpt lat="40.04312" lon="8.3961633"><ele>6.0</ele><time>2026-04-28T12:44:30.022Z</time></trkpt><trkpt lat="40.0430467" lon="8.3962517"><ele>6.0</ele><time>2026-04-28T12:44:32.024Z</time></trkpt><trkpt lat="40.0429467" lon="8.39633"><ele>6.0</ele><time>2026-04-28T12:44:34.027Z</time></trkpt><trkpt lat="40.04286" lon="8.3964017"><ele>5.3999999999999995</ele><time>2026-04-28T12:44:36.03Z</time></trkpt><trkpt lat="40.0427733" lon="8.39649"><ele>4.8</ele><time>2026-04-28T12:44:38.028Z</time></trkpt><trkpt lat="40.0426833" lon="8.3965933"><ele>4.199999999999999</ele><time>2026-04-28T12:44:40.025Z</time></trkpt><trkpt lat="40.04259" lon="8.3967067"><ele>3.5999999999999996</ele><time>2026-04-28T12:44:42.027Z</time></trkpt><trkpt lat="40.0425367" lon="8.3967683"><ele>3.0</ele><time>2026-04-28T12:44:43.071Z</time></trkpt><trkpt lat="40.0424817" lon="8.39684"><ele>2.9999999999999996</ele><time>2026-04-28T12:44:44.025Z</time></trkpt><trkpt lat="40.0424217" lon="8.3969067"><ele>3.0</ele><time>2026-04-28T12:44:45.023Z</time></trkpt><trkpt lat="40.0423633" lon="8.39697"><ele>3.0</ele><time>2026-04-28T12:44:46.029Z</time></trkpt><trkpt lat="40.0423067" lon="8.3970317"><ele>3.0</ele><time>2026-04-28T12:44:47.031Z</time></trkpt><trkpt lat="40.0422533" lon="8.3970933"><ele>3.0</ele><time>2026-04-28T12:44:48.033Z</time></trkpt><trkpt lat="40.0421983" lon="8.3971567"><ele>2.9999999999999996</ele><time>2026-04-28T12:44:49.079Z</time></trkpt><trkpt lat="40.0421467" lon="8.39721"><ele>3.0</ele><time>2026-04-28T12:44:50.028Z</time></trkpt><trkpt lat="40.0420633" lon="8.3972933"><ele>3.0</ele><time>2026-04-28T12:44:52.027Z</time></trkpt><trkpt lat="40.041985" lon="8.3973367"><ele>3.0</ele><time>2026-04-28T12:44:55.084Z</time></trkpt><trkpt lat="40.0419217" lon="8.3973033"><ele>3.0</ele><time>2026-04-28T12:44:57.032Z</time></trkpt><trkpt lat="40.0418483" lon="8.397205"><ele>3.0</ele><time>2026-04-28T12:44:59.03Z</time></trkpt><trkpt lat="40.0417033" lon="8.3968017"><ele>3.0</ele><time>2026-04-28T12:45:04.024Z</time></trkpt><trkpt lat="40.0416767" lon="8.3967117"><ele>3.0</ele><time>2026-04-28T12:45:05.031Z</time></trkpt><trkpt lat="40.0416617" lon="8.3966317"><ele>3.0</ele><time>2026-04-28T12:45:06.025Z</time></trkpt><trkpt lat="40.0416067" lon="8.3965367"><ele>3.0</ele><time>2026-04-28T12:45:08.026Z</time></trkpt><trkpt lat="40.0415367" lon="8.396535"><ele>3.0</ele><time>2026-04-28T12:45:10.029Z</time></trkpt><trkpt lat="40.041465" lon="8.3966333"><ele>3.0</ele><time>2026-04-28T12:45:12.036Z</time></trkpt><trkpt lat="40.04144" lon="8.3967233"><ele>3.0</ele><time>2026-04-28T12:45:13.081Z</time></trkpt><trkpt lat="40.0414383" lon="8.3968517"><ele>3.0</ele><time>2026-04-28T12:45:14.029Z</time></trkpt><trkpt lat="40.0414483" lon="8.397005"><ele>3.0</ele><time>2026-04-28T12:45:15.034Z</time></trkpt><trkpt lat="40.0414417" lon="8.3971467"><ele>3.0</ele><time>2026-04-28T12:45:16.028Z</time></trkpt><trkpt lat="40.0414267" lon="8.397285"><ele>3.0</ele><time>2026-04-28T12:45:17.028Z</time></trkpt><trkpt lat="40.0414067" lon="8.397425"><ele>3.0</ele><time>2026-04-28T12:45:18.026Z</time></trkpt><trkpt lat="40.0413817" lon="8.3975733"><ele>3.0</ele><time>2026-04-28T12:45:19.074Z</time></trkpt><trkpt lat="40.0413567" lon="8.3977233"><ele>3.0</ele><time>2026-04-28T12:45:20.027Z</time></trkpt><trkpt lat="40.041335" lon="8.3978817"><ele>3.0</ele><time>2026-04-28T12:45:21.024Z</time></trkpt><trkpt lat="40.0413117" lon="8.3980383"><ele>3.0</ele><time>2026-04-28T12:45:22.022Z</time></trkpt><trkpt lat="40.0412817" lon="8.3981917"><ele>3.0</ele><time>2026-04-28T12:45:23.029Z</time></trkpt><trkpt lat="40.041255" lon="8.39835"><ele>3.0</ele><time>2026-04-28T12:45:24.029Z</time></trkpt><trkpt lat="40.0412333" lon="8.3984967"><ele>3.0</ele><time>2026-04-28T12:45:25.087Z</time></trkpt><trkpt lat="40.0412067" lon="8.3986367"><ele>3.0</ele><time>2026-04-28T12:45:26.023Z</time></trkpt><trkpt lat="40.0411733" lon="8.398775"><ele>3.0</ele><time>2026-04-28T12:45:27.029Z</time></trkpt><trkpt lat="40.0411433" lon="8.3989183"><ele>3.0</ele><time>2026-04-28T12:45:28.032Z</time></trkpt><trkpt lat="40.0411283" lon="8.3990633"><ele>3.0</ele><time>2026-04-28T12:45:29.03Z</time></trkpt><trkpt lat="40.0411117" lon="8.3992083"><ele>3.0</ele><time>2026-04-28T12:45:30.03Z</time></trkpt><trkpt lat="40.0411" lon="8.3993467"><ele>3.0</ele><time>2026-04-28T12:45:31.074Z</time></trkpt><trkpt lat="40.0410833" lon="8.399485"><ele>3.0</ele><time>2026-04-28T12:45:32.026Z</time></trkpt><trkpt lat="40.04106" lon="8.3996167"><ele>3.0</ele><time>2026-04-28T12:45:33.03Z</time></trkpt><trkpt lat="40.04104" lon="8.3997433"><ele>3.0</ele><time>2026-04-28T12:45:34.032Z</time></trkpt><trkpt lat="40.041025" lon="8.399875"><ele>3.0</ele><time>2026-04-28T12:45:35.026Z</time></trkpt><trkpt lat="40.04101" lon="8.4"><ele>3.0</ele><time>2026-04-28T12:45:36.024Z</time></trkpt><trkpt lat="40.0409917" lon="8.4001267"><ele>3.0</ele><time>2026-04-28T12:45:37.08Z</time></trkpt><trkpt lat="40.0409717" lon="8.400245"><ele>3.0</ele><time>2026-04-28T12:45:38.024Z</time></trkpt><trkpt lat="40.0409567" lon="8.4003617"><ele>3.0</ele><time>2026-04-28T12:45:39.03Z</time></trkpt><trkpt lat="40.0409383" lon="8.4004683"><ele>3.0</ele><time>2026-04-28T12:45:40.023Z</time></trkpt><trkpt lat="40.0409133" lon="8.4005617"><ele>3.0</ele><time>2026-04-28T12:45:41.03Z</time></trkpt><trkpt lat="40.04089" lon="8.4006517"><ele>2.9999999999999996</ele><time>2026-04-28T12:45:42.027Z</time></trkpt><trkpt lat="40.0408567" lon="8.4007267"><ele>3.0</ele><time>2026-04-28T12:45:43.082Z</time></trkpt><trkpt lat="40.0408233" lon="8.400805"><ele>3.0</ele><time>2026-04-28T12:45:44.024Z</time></trkpt><trkpt lat="40.0408017" lon="8.400885"><ele>3.0</ele><time>2026-04-28T12:45:45.03Z</time></trkpt><trkpt lat="40.04079" lon="8.4009667"><ele>3.0</ele><time>2026-04-28T12:45:46.03Z</time></trkpt><trkpt lat="40.040785" lon="8.40105"><ele>2.9999999999999996</ele><time>2026-04-28T12:45:47.026Z</time></trkpt><trkpt lat="40.0407817" lon="8.4011367"><ele>3.0</ele><time>2026-04-28T12:45:48.023Z</time></trkpt><trkpt lat="40.0407817" lon="8.40122"><ele>2.8</ele><time>2026-04-28T12:45:49.083Z</time></trkpt><trkpt lat="40.0407717" lon="8.401355"><ele>2.5999999999999996</ele><time>2026-04-28T12:45:51.031Z</time></trkpt><trkpt lat="40.040755" lon="8.4014383"><ele>2.4000000000000004</ele><time>2026-04-28T12:45:53.031Z</time></trkpt><trkpt lat="40.0407167" lon="8.4015383"><ele>2.2</ele><time>2026-04-28T12:45:56.024Z</time></trkpt><trkpt lat="40.0406483" lon="8.4016167"><ele>2.0</ele><time>2026-04-28T12:45:58.03Z</time></trkpt><trkpt lat="40.040535" lon="8.4016583"><ele>2.0</ele><time>2026-04-28T12:46:00.027Z</time></trkpt><trkpt lat="40.040455" lon="8.4016517"><ele>2.0</ele><time>2026-04-28T12:46:01.076Z</time></trkpt><trkpt lat="40.0403567" lon="8.4016167"><ele>2.0</ele><time>2026-04-28T12:46:02.031Z</time></trkpt><trkpt lat="40.0402517" lon="8.4015633"><ele>2.0</ele><time>2026-04-28T12:46:03.029Z</time></trkpt><trkpt lat="40.040145" lon="8.40151"><ele>2.0</ele><time>2026-04-28T12:46:04.026Z</time></trkpt><trkpt lat="40.0400267" lon="8.4014533"><ele>2.0</ele><time>2026-04-28T12:46:05.03Z</time></trkpt><trkpt lat="40.03991" lon="8.4013983"><ele>2.0</ele><time>2026-04-28T12:46:06.027Z</time></trkpt><trkpt lat="40.0397983" lon="8.4013417"><ele>2.0</ele><time>2026-04-28T12:46:07.075Z</time></trkpt><trkpt lat="40.0396917" lon="8.4012833"><ele>2.0</ele><time>2026-04-28T12:46:08.027Z</time></trkpt><trkpt lat="40.039585" lon="8.40123"><ele>2.2</ele><time>2026-04-28T12:46:09.023Z</time></trkpt><trkpt lat="40.039475" lon="8.401175"><ele>2.4000000000000004</ele><time>2026-04-28T12:46:10.035Z</time></trkpt><trkpt lat="40.039375" lon="8.40112"><ele>2.5999999999999996</ele><time>2026-04-28T12:46:11.036Z</time></trkpt><trkpt lat="40.0392833" lon="8.40107"><ele>2.8</ele><time>2026-04-28T12:46:12.031Z</time></trkpt><trkpt lat="40.0391883" lon="8.4010183"><ele>3.0</ele><time>2026-04-28T12:46:13.079Z</time></trkpt><trkpt lat="40.03908" lon="8.4009567"><ele>3.0</ele><time>2026-04-28T12:46:14.029Z</time></trkpt><trkpt lat="40.0389667" lon="8.4008983"><ele>3.0</ele><time>2026-04-28T12:46:15.038Z</time></trkpt><trkpt lat="40.038845" lon="8.400845"><ele>3.0</ele><time>2026-04-28T12:46:16.028Z</time></trkpt><trkpt lat="40.038715" lon="8.4007833"><ele>3.0</ele><time>2026-04-28T12:46:17.023Z</time></trkpt><trkpt lat="40.038575" lon="8.4007133"><ele>3.0</ele><time>2026-04-28T12:46:18.031Z</time></trkpt><trkpt lat="40.03843" lon="8.4006417"><ele>3.0</ele><time>2026-04-28T12:46:19.08Z</time></trkpt><trkpt lat="40.0382833" lon="8.40057"><ele>3.0</ele><time>2026-04-28T12:46:20.031Z</time></trkpt><trkpt lat="40.03814" lon="8.4005017"><ele>3.0</ele><time>2026-04-28T12:46:21.034Z</time></trkpt><trkpt lat="40.0379967" lon="8.4004367"><ele>3.0</ele><time>2026-04-28T12:46:22.025Z</time></trkpt><trkpt lat="40.037845" lon="8.400375"><ele>3.0</ele><time>2026-04-28T12:46:23.025Z</time></trkpt><trkpt lat="40.03769" lon="8.4003183"><ele>3.0</ele><time>2026-04-28T12:46:24.028Z</time></trkpt><trkpt lat="40.03753" lon="8.4002633"><ele>3.0</ele><time>2026-04-28T12:46:25.085Z</time></trkpt><trkpt lat="40.03737" lon="8.4002083"><ele>3.0</ele><time>2026-04-28T12:46:26.025Z</time></trkpt><trkpt lat="40.0369033" lon="8.400075"><ele>3.0</ele><time>2026-04-28T12:46:29.026Z</time></trkpt><trkpt lat="40.0367517" lon="8.4000333"><ele>3.0</ele><time>2026-04-28T12:46:30.028Z</time></trkpt><trkpt lat="40.0366067" lon="8.399995"><ele>3.0</ele><time>2026-04-28T12:46:31.072Z</time></trkpt><trkpt lat="40.0364633" lon="8.39996"><ele>3.0</ele><time>2026-04-28T12:46:32.025Z</time></trkpt><trkpt lat="40.03633" lon="8.3999233"><ele>3.0</ele><time>2026-04-28T12:46:33.027Z</time></trkpt><trkpt lat="40.0361883" lon="8.3998833"><ele>3.0</ele><time>2026-04-28T12:46:34.024Z</time></trkpt><trkpt lat="40.0360483" lon="8.3998383"><ele>3.0</ele><time>2026-04-28T12:46:35.032Z</time></trkpt><trkpt lat="40.0359" lon="8.399795"><ele>3.0</ele><time>2026-04-28T12:46:36.026Z</time></trkpt><trkpt lat="40.03575" lon="8.3997533"><ele>2.75</ele><time>2026-04-28T12:46:37.075Z</time></trkpt><trkpt lat="40.0356117" lon="8.3997133"><ele>2.5</ele><time>2026-04-28T12:46:38.024Z</time></trkpt><trkpt lat="40.035485" lon="8.3996767"><ele>2.25</ele><time>2026-04-28T12:46:39.025Z</time></trkpt><trkpt lat="40.0353617" lon="8.3996433"><ele>2.0</ele><time>2026-04-28T12:46:40.028Z</time></trkpt><trkpt lat="40.035245" lon="8.39961"><ele>2.0</ele><time>2026-04-28T12:46:41.03Z</time></trkpt><trkpt lat="40.03514" lon="8.3995767"><ele>2.0</ele><time>2026-04-28T12:46:42.026Z</time></trkpt><trkpt lat="40.03504" lon="8.3995467"><ele>2.0</ele><time>2026-04-28T12:46:43.073Z</time></trkpt><trkpt lat="40.0347467" lon="8.3994683"><ele>2.0</ele><time>2026-04-28T12:46:46.032Z</time></trkpt><trkpt lat="40.0346417" lon="8.3994383"><ele>2.0</ele><time>2026-04-28T12:46:47.033Z</time></trkpt><trkpt lat="40.0345383" lon="8.3994083"><ele>2.0</ele><time>2026-04-28T12:46:48.025Z</time></trkpt><trkpt lat="40.03443" lon="8.3993833"><ele>2.0</ele><time>2026-04-28T12:46:49.076Z</time></trkpt><trkpt lat="40.03432" lon="8.3993683"><ele>2.0</ele><time>2026-04-28T12:46:50.028Z</time></trkpt><trkpt lat="40.0342117" lon="8.3993733"><ele>1.9999999999999998</ele><time>2026-04-28T12:46:51.031Z</time></trkpt><trkpt lat="40.0341067" lon="8.3993917"><ele>2.0</ele><time>2026-04-28T12:46:52.028Z</time></trkpt><trkpt lat="40.0340217" lon="8.399435"><ele>2.0</ele><time>2026-04-28T12:46:53.027Z</time></trkpt><trkpt lat="40.0339633" lon="8.39949"><ele>2.0</ele><time>2026-04-28T12:46:54.027Z</time></trkpt><trkpt lat="40.0339067" lon="8.3995433"><ele>1.9999999999999998</ele><time>2026-04-28T12:46:55.084Z</time></trkpt><trkpt lat="40.03386" lon="8.3996017"><ele>2.0</ele><time>2026-04-28T12:46:56.021Z</time></trkpt><trkpt lat="40.0338033" lon="8.3996617"><ele>2.0</ele><time>2026-04-28T12:46:57.031Z</time></trkpt><trkpt lat="40.0337417" lon="8.3997317"><ele>2.0</ele><time>2026-04-28T12:46:58.03Z</time></trkpt><trkpt lat="40.0336667" lon="8.399805"><ele>2.0</ele><time>2026-04-28T12:46:59.03Z</time></trkpt><trkpt lat="40.0336083" lon="8.3998917"><ele>2.0</ele><time>2026-04-28T12:47:00.031Z</time></trkpt><trkpt lat="40.03355" lon="8.3999917"><ele>2.0</ele><time>2026-04-28T12:47:01.071Z</time></trkpt><trkpt lat="40.0334983" lon="8.4001067"><ele>2.0</ele><time>2026-04-28T12:47:02.021Z</time></trkpt><trkpt lat="40.0334483" lon="8.4002333"><ele>2.0</ele><time>2026-04-28T12:47:03.027Z</time></trkpt><trkpt lat="40.033405" lon="8.400365"><ele>2.0</ele><time>2026-04-28T12:47:04.03Z</time></trkpt><trkpt lat="40.0333583" lon="8.4005017"><ele>2.0</ele><time>2026-04-28T12:47:05.029Z</time></trkpt><trkpt lat="40.0333067" lon="8.4006383"><ele>1.5</ele><time>2026-04-28T12:47:06.026Z</time></trkpt><trkpt lat="40.0332617" lon="8.4007733"><ele>1.0</ele><time>2026-04-28T12:47:07.072Z</time></trkpt><trkpt lat="40.03322" lon="8.40091"><ele>0.5</ele><time>2026-04-28T12:47:08.023Z</time></trkpt><trkpt lat="40.0331767" lon="8.4010517"><ele>0.0</ele><time>2026-04-28T12:47:09.028Z</time></trkpt><trkpt lat="40.03313" lon="8.4012033"><ele>0.0</ele><time>2026-04-28T12:47:10.024Z</time></trkpt><trkpt lat="40.0330767" lon="8.4013583"><ele>0.0</ele><time>2026-04-28T12:47:11.026Z</time></trkpt><trkpt lat="40.0330217" lon="8.4015167"><ele>0.0</ele><time>2026-04-28T12:47:12.026Z</time></trkpt><trkpt lat="40.0329683" lon="8.4016833"><ele>0.0</ele><time>2026-04-28T12:47:13.073Z</time></trkpt><trkpt lat="40.0329067" lon="8.4018517"><ele>0.0</ele><time>2026-04-28T12:47:14.026Z</time></trkpt><trkpt lat="40.032835" lon="8.4020183"><ele>0.0</ele><time>2026-04-28T12:47:15.031Z</time></trkpt><trkpt lat="40.0327567" lon="8.4021783"><ele>0.0</ele><time>2026-04-28T12:47:16.028Z</time></trkpt><trkpt lat="40.0326733" lon="8.40234"><ele>0.0</ele><time>2026-04-28T12:47:17.029Z</time></trkpt><trkpt lat="40.03259" lon="8.402505"><ele>0.0</ele><time>2026-04-28T12:47:18.023Z</time></trkpt><trkpt lat="40.03251" lon="8.4026683"><ele>0.0</ele><time>2026-04-28T12:47:19.083Z</time></trkpt><trkpt lat="40.0324333" lon="8.4028217"><ele>0.0</ele><time>2026-04-28T12:47:20.029Z</time></trkpt><trkpt lat="40.0323683" lon="8.4029633"><ele>0.0</ele><time>2026-04-28T12:47:21.028Z</time></trkpt><trkpt lat="40.03231" lon="8.4030883"><ele>0.0</ele><time>2026-04-28T12:47:22.029Z</time></trkpt><trkpt lat="40.032255" lon="8.4032"><ele>0.0</ele><time>2026-04-28T12:47:23.021Z</time></trkpt><trkpt lat="40.032205" lon="8.4032983"><ele>0.0</ele><time>2026-04-28T12:47:24.026Z</time></trkpt><trkpt lat="40.032155" lon="8.4033867"><ele>0.0</ele><time>2026-04-28T12:47:25.084Z</time></trkpt><trkpt lat="40.032105" lon="8.4034683"><ele>0.0</ele><time>2026-04-28T12:47:26.026Z</time></trkpt><trkpt lat="40.0320583" lon="8.403555"><ele>0.0</ele><time>2026-04-28T12:47:27.026Z</time></trkpt><trkpt lat="40.032015" lon="8.40365"><ele>0.0</ele><time>2026-04-28T12:47:28.029Z</time></trkpt><trkpt lat="40.03197" lon="8.40375"><ele>0.0</ele><time>2026-04-28T12:47:29.03Z</time></trkpt><trkpt lat="40.0319217" lon="8.4038517"><ele>0.0</ele><time>2026-04-28T12:47:30.033Z</time></trkpt><trkpt lat="40.0318683" lon="8.4039533"><ele>0.0</ele><time>2026-04-28T12:47:31.069Z</time></trkpt><trkpt lat="40.031815" lon="8.4040567"><ele>0.0</ele><time>2026-04-28T12:47:32.028Z</time></trkpt><trkpt lat="40.0317617" lon="8.4041617"><ele>0.0</ele><time>2026-04-28T12:47:33.03Z</time></trkpt><trkpt lat="40.03171" lon="8.4042683"><ele>0.0</ele><time>2026-04-28T12:47:34.03Z</time></trkpt><trkpt lat="40.03166" lon="8.40437"><ele>0.0</ele><time>2026-04-28T12:47:35.025Z</time></trkpt><trkpt lat="40.0316117" lon="8.4044617"><ele>0.0</ele><time>2026-04-28T12:47:36.028Z</time></trkpt><trkpt lat="40.03156" lon="8.4045533"><ele>0.0</ele><time>2026-04-28T12:47:37.071Z</time></trkpt><trkpt lat="40.031505" lon="8.4046467"><ele>0.4</ele><time>2026-04-28T12:47:38.027Z</time></trkpt><trkpt lat="40.0314467" lon="8.40474"><ele>0.8</ele><time>2026-04-28T12:47:39.027Z</time></trkpt><trkpt lat="40.0313867" lon="8.4048383"><ele>1.2000000000000002</ele><time>2026-04-28T12:47:40.029Z</time></trkpt><trkpt lat="40.0313267" lon="8.40493"><ele>1.6</ele><time>2026-04-28T12:47:41.025Z</time></trkpt><trkpt lat="40.0312633" lon="8.4050183"><ele>2.0</ele><time>2026-04-28T12:47:42.023Z</time></trkpt><trkpt lat="40.0311983" lon="8.4051083"><ele>2.0</ele><time>2026-04-28T12:47:43.071Z</time></trkpt><trkpt lat="40.031135" lon="8.4052"><ele>2.0</ele><time>2026-04-28T12:47:44.022Z</time></trkpt><trkpt lat="40.0310683" lon="8.405285"><ele>2.0</ele><time>2026-04-28T12:47:45.027Z</time></trkpt><trkpt lat="40.031" lon="8.40537"><ele>2.0</ele><time>2026-04-28T12:47:46.025Z</time></trkpt><trkpt lat="40.0307333" lon="8.4056783"><ele>1.8333333333333333</ele><time>2026-04-28T12:47:50.021Z</time></trkpt><trkpt lat="40.0306733" lon="8.4057467"><ele>1.6666666666666665</ele><time>2026-04-28T12:47:51.027Z</time></trkpt><trkpt lat="40.0306133" lon="8.4058117"><ele>1.5</ele><time>2026-04-28T12:47:52.027Z</time></trkpt><trkpt lat="40.0305567" lon="8.4058767"><ele>1.3333333333333333</ele><time>2026-04-28T12:47:53.033Z</time></trkpt><trkpt lat="40.0304983" lon="8.40594"><ele>1.1666666666666665</ele><time>2026-04-28T12:47:54.026Z</time></trkpt><trkpt lat="40.03044" lon="8.4060033"><ele>1.0</ele><time>2026-04-28T12:47:55.084Z</time></trkpt><trkpt lat="40.03038" lon="8.4060683"><ele>0.9999999999999999</ele><time>2026-04-28T12:47:56.026Z</time></trkpt><trkpt lat="40.0303217" lon="8.4061367"><ele>1.0</ele><time>2026-04-28T12:47:57.028Z</time></trkpt><trkpt lat="40.0302583" lon="8.4062067"><ele>1.0</ele><time>2026-04-28T12:47:58.029Z</time></trkpt><trkpt lat="40.0301933" lon="8.4062783"><ele>1.0</ele><time>2026-04-28T12:47:59.032Z</time></trkpt><trkpt lat="40.0301267" lon="8.4063483"><ele>0.9999999999999999</ele><time>2026-04-28T12:48:00.026Z</time></trkpt><trkpt lat="40.0300583" lon="8.40642"><ele>1.0</ele><time>2026-04-28T12:48:01.079Z</time></trkpt><trkpt lat="40.0299833" lon="8.4064917"><ele>0.75</ele><time>2026-04-28T12:48:02.026Z</time></trkpt><trkpt lat="40.0299067" lon="8.4065683"><ele>0.5</ele><time>2026-04-28T12:48:03.034Z</time></trkpt><trkpt lat="40.0298283" lon="8.4066533"><ele>0.25</ele><time>2026-04-28T12:48:04.032Z</time></trkpt><trkpt lat="40.02975" lon="8.4067367"><ele>0.0</ele><time>2026-04-28T12:48:05.022Z</time></trkpt><trkpt lat="40.0294517" lon="8.407055"><ele>0.0</ele><time>2026-04-28T12:48:09.03Z</time></trkpt><trkpt lat="40.0293833" lon="8.4071333"><ele>0.0</ele><time>2026-04-28T12:48:10.026Z</time></trkpt><trkpt lat="40.0293133" lon="8.4072117"><ele>0.0</ele><time>2026-04-28T12:48:11.03Z</time></trkpt><trkpt lat="40.02925" lon="8.4072833"><ele>0.0</ele><time>2026-04-28T12:48:12.03Z</time></trkpt><trkpt lat="40.0290633" lon="8.4074917"><ele>0.3333333333333333</ele><time>2026-04-28T12:48:16.022Z</time></trkpt><trkpt lat="40.028845" lon="8.4077467"><ele>0.6666666666666666</ele><time>2026-04-28T12:48:22.023Z</time></trkpt><trkpt lat="40.0287983" lon="8.40782"><ele>1.0</ele><time>2026-04-28T12:48:24.027Z</time></trkpt><trkpt lat="40.0287567" lon="8.4079167"><ele>1.6</ele><time>2026-04-28T12:48:26.026Z</time></trkpt><trkpt lat="40.028705" lon="8.408035"><ele>2.2</ele><time>2026-04-28T12:48:28.028Z</time></trkpt><trkpt lat="40.0286567" lon="8.4081883"><ele>2.8000000000000003</ele><time>2026-04-28T12:48:30.036Z</time></trkpt><trkpt lat="40.02863" lon="8.4082767"><ele>3.4000000000000004</ele><time>2026-04-28T12:48:31.078Z</time></trkpt><trkpt lat="40.0286083" lon="8.408365"><ele>4.0</ele><time>2026-04-28T12:48:32.026Z</time></trkpt><trkpt lat="40.0285517" lon="8.408675"><ele>3.9999999999999996</ele><time>2026-04-28T12:48:36.025Z</time></trkpt><trkpt lat="40.0285483" lon="8.4087983"><ele>4.0</ele><time>2026-04-28T12:48:38.028Z</time></trkpt><trkpt lat="40.0285383" lon="8.4089067"><ele>4.0</ele><time>2026-04-28T12:48:40.027Z</time></trkpt><trkpt lat="40.0285267" lon="8.40904"><ele>4.0</ele><time>2026-04-28T12:48:42.024Z</time></trkpt><trkpt lat="40.0285183" lon="8.409135"><ele>3.9999999999999996</ele><time>2026-04-28T12:48:43.071Z</time></trkpt><trkpt lat="40.0285117" lon="8.4092467"><ele>4.0</ele><time>2026-04-28T12:48:44.021Z</time></trkpt><trkpt lat="40.028495" lon="8.4093667"><ele>3.9999999999999996</ele><time>2026-04-28T12:48:45.024Z</time></trkpt><trkpt lat="40.0284783" lon="8.4094717"><ele>4.0</ele><time>2026-04-28T12:48:46.032Z</time></trkpt><trkpt lat="40.02847" lon="8.40957"><ele>4.0</ele><time>2026-04-28T12:48:47.029Z</time></trkpt><trkpt lat="40.028465" lon="8.4096717"><ele>4.0</ele><time>2026-04-28T12:48:48.023Z</time></trkpt><trkpt lat="40.0284483" lon="8.409765"><ele>3.9999999999999996</ele><time>2026-04-28T12:48:49.08Z</time></trkpt><trkpt lat="40.0284317" lon="8.4098683"><ele>4.0</ele><time>2026-04-28T12:48:50.025Z</time></trkpt><trkpt lat="40.0284133" lon="8.4099783"><ele>4.0</ele><time>2026-04-28T12:48:51.025Z</time></trkpt><trkpt lat="40.0283983" lon="8.4101033"><ele>4.0</ele><time>2026-04-28T12:48:52.033Z</time></trkpt><trkpt lat="40.0283867" lon="8.4102333"><ele>4.0</ele><time>2026-04-28T12:48:53.025Z</time></trkpt><trkpt lat="40.0283833" lon="8.4103733"><ele>4.0</ele><time>2026-04-28T12:48:54.027Z</time></trkpt><trkpt lat="40.028385" lon="8.4105167"><ele>4.0</ele><time>2026-04-28T12:48:55.083Z</time></trkpt><trkpt lat="40.0283917" lon="8.4106667"><ele>4.0</ele><time>2026-04-28T12:48:56.025Z</time></trkpt><trkpt lat="40.028405" lon="8.4108117"><ele>4.0</ele><time>2026-04-28T12:48:57.026Z</time></trkpt><trkpt lat="40.0284217" lon="8.410945"><ele>4.0</ele><time>2026-04-28T12:48:58.025Z</time></trkpt><trkpt lat="40.0284367" lon="8.4110733"><ele>4.0</ele><time>2026-04-28T12:48:59.031Z</time></trkpt><trkpt lat="40.02846" lon="8.4112017"><ele>4.0</ele><time>2026-04-28T12:49:00.025Z</time></trkpt><trkpt lat="40.028485" lon="8.4113283"><ele>4.0</ele><time>2026-04-28T12:49:01.072Z</time></trkpt><trkpt lat="40.0285117" lon="8.4114617"><ele>4.0</ele><time>2026-04-28T12:49:02.024Z</time></trkpt><trkpt lat="40.0285433" lon="8.4116067"><ele>4.0</ele><time>2026-04-28T12:49:03.035Z</time></trkpt><trkpt lat="40.028575" lon="8.4117517"><ele>4.0</ele><time>2026-04-28T12:49:04.03Z</time></trkpt><trkpt lat="40.0286033" lon="8.4119033"><ele>4.0</ele><time>2026-04-28T12:49:05.028Z</time></trkpt><trkpt lat="40.0286383" lon="8.4120717"><ele>4.0</ele><time>2026-04-28T12:49:06.03Z</time></trkpt><trkpt lat="40.0286783" lon="8.4122517"><ele>4.0</ele><time>2026-04-28T12:49:07.069Z</time></trkpt><trkpt lat="40.02872" lon="8.4124383"><ele>4.0</ele><time>2026-04-28T12:49:08.025Z</time></trkpt><trkpt lat="40.02876" lon="8.41261"><ele>4.25</ele><time>2026-04-28T12:49:09.024Z</time></trkpt><trkpt lat="40.0287917" lon="8.4127817"><ele>4.5</ele><time>2026-04-28T12:49:10.027Z</time></trkpt><trkpt lat="40.028825" lon="8.412955"><ele>4.75</ele><time>2026-04-28T12:49:11.026Z</time></trkpt><trkpt lat="40.0288533" lon="8.4131267"><ele>5.0</ele><time>2026-04-28T12:49:12.035Z</time></trkpt><trkpt lat="40.0288867" lon="8.4132883"><ele>5.0</ele><time>2026-04-28T12:49:13.075Z</time></trkpt><trkpt lat="40.0289283" lon="8.413445"><ele>5.0</ele><time>2026-04-28T12:49:14.026Z</time></trkpt><trkpt lat="40.0289733" lon="8.4136"><ele>5.0</ele><time>2026-04-28T12:49:15.031Z</time></trkpt><trkpt lat="40.0290283" lon="8.4137567"><ele>5.0</ele><time>2026-04-28T12:49:16.027Z</time></trkpt><trkpt lat="40.0290883" lon="8.413915"><ele>5.0</ele><time>2026-04-28T12:49:17.032Z</time></trkpt><trkpt lat="40.0291533" lon="8.4140767"><ele>5.0</ele><time>2026-04-28T12:49:18.026Z</time></trkpt><trkpt lat="40.0293733" lon="8.4147167"><ele>5.333333333333334</ele><time>2026-04-28T12:49:22.029Z</time></trkpt><trkpt lat="40.0294167" lon="8.414885"><ele>5.666666666666667</ele><time>2026-04-28T12:49:23.028Z</time></trkpt><trkpt lat="40.0294567" lon="8.4150583"><ele>6.0</ele><time>2026-04-28T12:49:24.027Z</time></trkpt><trkpt lat="40.02958" lon="8.4155583"><ele>5.6</ele><time>2026-04-28T12:49:27.027Z</time></trkpt><trkpt lat="40.0295983" lon="8.415715"><ele>5.199999999999999</ele><time>2026-04-28T12:49:28.019Z</time></trkpt><trkpt lat="40.0296067" lon="8.4158567"><ele>4.800000000000001</ele><time>2026-04-28T12:49:29.03Z</time></trkpt><trkpt lat="40.0296117" lon="8.41599"><ele>4.4</ele><time>2026-04-28T12:49:30.025Z</time></trkpt><trkpt lat="40.0296017" lon="8.4161183"><ele>4.0</ele><time>2026-04-28T12:49:31.087Z</time></trkpt><trkpt lat="40.0295917" lon="8.4162383"><ele>4.166666666666666</ele><time>2026-04-28T12:49:32.028Z</time></trkpt><trkpt lat="40.0295817" lon="8.4163517"><ele>4.333333333333333</ele><time>2026-04-28T12:49:33.027Z</time></trkpt><trkpt lat="40.0295733" lon="8.4164583"><ele>4.5</ele><time>2026-04-28T12:49:34.024Z</time></trkpt><trkpt lat="40.029545" lon="8.4165533"><ele>4.666666666666667</ele><time>2026-04-28T12:49:35.035Z</time></trkpt><trkpt lat="40.0294983" lon="8.416635"><ele>4.833333333333334</ele><time>2026-04-28T12:49:36.025Z</time></trkpt><trkpt lat="40.0294183" lon="8.4166917"><ele>5.0</ele><time>2026-04-28T12:49:37.077Z</time></trkpt><trkpt lat="40.0293333" lon="8.4167417"><ele>5.0</ele><time>2026-04-28T12:49:38.019Z</time></trkpt><trkpt lat="40.0292383" lon="8.4167767"><ele>5.0</ele><time>2026-04-28T12:49:39.032Z</time></trkpt><trkpt lat="40.0291317" lon="8.4167983"><ele>5.0</ele><time>2026-04-28T12:49:40.027Z</time></trkpt><trkpt lat="40.0290167" lon="8.4168083"><ele>5.0</ele><time>2026-04-28T12:49:41.022Z</time></trkpt><trkpt lat="40.0288983" lon="8.4168217"><ele>5.0</ele><time>2026-04-28T12:49:42.025Z</time></trkpt><trkpt lat="40.0287833" lon="8.4168267"><ele>4.5</ele><time>2026-04-28T12:49:43.074Z</time></trkpt><trkpt lat="40.0286667" lon="8.4168383"><ele>4.0</ele><time>2026-04-28T12:49:44.024Z</time></trkpt><trkpt lat="40.0285533" lon="8.4168517"><ele>3.5</ele><time>2026-04-28T12:49:45.026Z</time></trkpt><trkpt lat="40.02844" lon="8.41687"><ele>3.0</ele><time>2026-04-28T12:49:46.022Z</time></trkpt><trkpt lat="40.0283217" lon="8.4168783"><ele>3.25</ele><time>2026-04-28T12:49:47.026Z</time></trkpt><trkpt lat="40.0282067" lon="8.41689"><ele>3.5</ele><time>2026-04-28T12:49:48.023Z</time></trkpt><trkpt lat="40.0280867" lon="8.4168967"><ele>3.75</ele><time>2026-04-28T12:49:49.071Z</time></trkpt><trkpt lat="40.0279667" lon="8.4169083"><ele>4.0</ele><time>2026-04-28T12:49:50.028Z</time></trkpt><trkpt lat="40.027835" lon="8.416915"><ele>4.0</ele><time>2026-04-28T12:49:51.021Z</time></trkpt><trkpt lat="40.027705" lon="8.4169267"><ele>4.0</ele><time>2026-04-28T12:49:52.028Z</time></trkpt><trkpt lat="40.0275767" lon="8.4169433"><ele>4.0</ele><time>2026-04-28T12:49:53.027Z</time></trkpt><trkpt lat="40.0274483" lon="8.4169633"><ele>4.0</ele><time>2026-04-28T12:49:54.03Z</time></trkpt><trkpt lat="40.0273283" lon="8.41698"><ele>4.0</ele><time>2026-04-28T12:49:55.083Z</time></trkpt><trkpt lat="40.0272117" lon="8.416995"><ele>4.0</ele><time>2026-04-28T12:49:56.028Z</time></trkpt><trkpt lat="40.0270883" lon="8.417005"><ele>4.0</ele><time>2026-04-28T12:49:57.035Z</time></trkpt><trkpt lat="40.0269583" lon="8.41702"><ele>4.0</ele><time>2026-04-28T12:49:58.025Z</time></trkpt><trkpt lat="40.0268267" lon="8.4170317"><ele>4.0</ele><time>2026-04-28T12:49:59.029Z</time></trkpt><trkpt lat="40.0266933" lon="8.417045"><ele>4.0</ele><time>2026-04-28T12:50:00.031Z</time></trkpt><trkpt lat="40.026555" lon="8.41706"><ele>4.0</ele><time>2026-04-28T12:50:01.072Z</time></trkpt><trkpt lat="40.0264217" lon="8.4170867"><ele>4.0</ele><time>2026-04-28T12:50:02.031Z</time></trkpt><trkpt lat="40.0262867" lon="8.4171067"><ele>4.0</ele><time>2026-04-28T12:50:03.027Z</time></trkpt><trkpt lat="40.02615" lon="8.4171267"><ele>4.0</ele><time>2026-04-28T12:50:04.023Z</time></trkpt><trkpt lat="40.02601" lon="8.417145"><ele>4.0</ele><time>2026-04-28T12:50:05.027Z</time></trkpt><trkpt lat="40.0258733" lon="8.417165"><ele>4.0</ele><time>2026-04-28T12:50:06.028Z</time></trkpt><trkpt lat="40.02573" lon="8.4171833"><ele>4.0</ele><time>2026-04-28T12:50:07.078Z</time></trkpt><trkpt lat="40.0255867" lon="8.4172017"><ele>4.0</ele><time>2026-04-28T12:50:08.028Z</time></trkpt><trkpt lat="40.0254417" lon="8.4172167"><ele>4.0</ele><time>2026-04-28T12:50:09.026Z</time></trkpt><trkpt lat="40.0252983" lon="8.4172333"><ele>4.0</ele><time>2026-04-28T12:50:10.036Z</time></trkpt><trkpt lat="40.0251517" lon="8.4172517"><ele>4.0</ele><time>2026-04-28T12:50:11.038Z</time></trkpt><trkpt lat="40.02501" lon="8.4172733"><ele>4.0</ele><time>2026-04-28T12:50:12.027Z</time></trkpt><trkpt lat="40.0248667" lon="8.4172967"><ele>4.0</ele><time>2026-04-28T12:50:13.08Z</time></trkpt><trkpt lat="40.0247283" lon="8.4173167"><ele>4.0</ele><time>2026-04-28T12:50:14.024Z</time></trkpt><trkpt lat="40.0245917" lon="8.4173383"><ele>4.0</ele><time>2026-04-28T12:50:15.027Z</time></trkpt><trkpt lat="40.0244533" lon="8.4173567"><ele>4.0</ele><time>2026-04-28T12:50:16.029Z</time></trkpt><trkpt lat="40.0243117" lon="8.4173683"><ele>4.0</ele><time>2026-04-28T12:50:17.023Z</time></trkpt><trkpt lat="40.0241717" lon="8.4173833"><ele>4.0</ele><time>2026-04-28T12:50:18.026Z</time></trkpt><trkpt lat="40.0240333" lon="8.4174017"><ele>4.5</ele><time>2026-04-28T12:50:19.07Z</time></trkpt><trkpt lat="40.0238983" lon="8.41742"><ele>5.0</ele><time>2026-04-28T12:50:20.027Z</time></trkpt><trkpt lat="40.0237683" lon="8.4174367"><ele>5.5</ele><time>2026-04-28T12:50:21.026Z</time></trkpt><trkpt lat="40.0236383" lon="8.4174567"><ele>6.0</ele><time>2026-04-28T12:50:22.026Z</time></trkpt><trkpt lat="40.0235117" lon="8.4174817"><ele>6.0</ele><time>2026-04-28T12:50:23.031Z</time></trkpt><trkpt lat="40.02339" lon="8.4175083"><ele>6.0</ele><time>2026-04-28T12:50:24.029Z</time></trkpt><trkpt lat="40.0232717" lon="8.4175367"><ele>6.0</ele><time>2026-04-28T12:50:25.077Z</time></trkpt><trkpt lat="40.0231383" lon="8.4175467"><ele>6.0</ele><time>2026-04-28T12:50:26.023Z</time></trkpt><trkpt lat="40.0229983" lon="8.4175583"><ele>6.0</ele><time>2026-04-28T12:50:27.028Z</time></trkpt><trkpt lat="40.022865" lon="8.41758"><ele>6.0</ele><time>2026-04-28T12:50:28.027Z</time></trkpt><trkpt lat="40.0227383" lon="8.4176017"><ele>6.0</ele><time>2026-04-28T12:50:29.03Z</time></trkpt><trkpt lat="40.0226083" lon="8.4176217"><ele>6.0</ele><time>2026-04-28T12:50:30.029Z</time></trkpt><trkpt lat="40.0224767" lon="8.4176433"><ele>5.75</ele><time>2026-04-28T12:50:31.071Z</time></trkpt><trkpt lat="40.022345" lon="8.4176617"><ele>5.5</ele><time>2026-04-28T12:50:32.026Z</time></trkpt><trkpt lat="40.022215" lon="8.4176783"><ele>5.25</ele><time>2026-04-28T12:50:33.038Z</time></trkpt><trkpt lat="40.0220833" lon="8.417695"><ele>5.0</ele><time>2026-04-28T12:50:34.024Z</time></trkpt><trkpt lat="40.0219533" lon="8.4177083"><ele>5.0</ele><time>2026-04-28T12:50:35.026Z</time></trkpt><trkpt lat="40.02182" lon="8.4177167"><ele>5.0</ele><time>2026-04-28T12:50:36.028Z</time></trkpt><trkpt lat="40.02169" lon="8.4177283"><ele>5.0</ele><time>2026-04-28T12:50:37.073Z</time></trkpt><trkpt lat="40.0215483" lon="8.4177383"><ele>5.0</ele><time>2026-04-28T12:50:38.03Z</time></trkpt><trkpt lat="40.021415" lon="8.4177567"><ele>4.75</ele><time>2026-04-28T12:50:39.03Z</time></trkpt><trkpt lat="40.02128" lon="8.4177767"><ele>4.5</ele><time>2026-04-28T12:50:40.023Z</time></trkpt><trkpt lat="40.021145" lon="8.4177917"><ele>4.25</ele><time>2026-04-28T12:50:41.019Z</time></trkpt><trkpt lat="40.02101" lon="8.41781"><ele>4.0</ele><time>2026-04-28T12:50:42.025Z</time></trkpt><trkpt lat="40.0208783" lon="8.4178267"><ele>4.25</ele><time>2026-04-28T12:50:43.074Z</time></trkpt><trkpt lat="40.02074" lon="8.41784"><ele>4.5</ele><time>2026-04-28T12:50:44.025Z</time></trkpt><trkpt lat="40.0206" lon="8.41785"><ele>4.75</ele><time>2026-04-28T12:50:45.026Z</time></trkpt><trkpt lat="40.0204583" lon="8.4178567"><ele>5.0</ele><time>2026-04-28T12:50:46.026Z</time></trkpt><trkpt lat="40.0203183" lon="8.417865"><ele>5.0</ele><time>2026-04-28T12:50:47.032Z</time></trkpt><trkpt lat="40.0201783" lon="8.4178733"><ele>5.0</ele><time>2026-04-28T12:50:48.026Z</time></trkpt><trkpt lat="40.0200367" lon="8.4178833"><ele>5.0</ele><time>2026-04-28T12:50:49.08Z</time></trkpt><trkpt lat="40.0198983" lon="8.417895"><ele>5.0</ele><time>2026-04-28T12:50:50.022Z</time></trkpt><trkpt lat="40.0197583" lon="8.4179067"><ele>4.75</ele><time>2026-04-28T12:50:51.027Z</time></trkpt><trkpt lat="40.0196167" lon="8.417915"><ele>4.5</ele><time>2026-04-28T12:50:52.025Z</time></trkpt><trkpt lat="40.0194733" lon="8.4179267"><ele>4.25</ele><time>2026-04-28T12:50:53.023Z</time></trkpt><trkpt lat="40.01933" lon="8.4179433"><ele>4.0</ele><time>2026-04-28T12:50:54.027Z</time></trkpt><trkpt lat="40.0191867" lon="8.4179567"><ele>3.75</ele><time>2026-04-28T12:50:55.069Z</time></trkpt><trkpt lat="40.0190417" lon="8.4179683"><ele>3.5</ele><time>2026-04-28T12:50:56.025Z</time></trkpt><trkpt lat="40.0189017" lon="8.41798"><ele>3.25</ele><time>2026-04-28T12:50:57.027Z</time></trkpt><trkpt lat="40.0187567" lon="8.4179933"><ele>3.0</ele><time>2026-04-28T12:50:58.026Z</time></trkpt><trkpt lat="40.0186133" lon="8.418005"><ele>3.0</ele><time>2026-04-28T12:50:59.025Z</time></trkpt><trkpt lat="40.0184683" lon="8.4180117"><ele>3.0</ele><time>2026-04-28T12:51:00.021Z</time></trkpt><trkpt lat="40.0183233" lon="8.4180233"><ele>3.0</ele><time>2026-04-28T12:51:01.07Z</time></trkpt><trkpt lat="40.0181833" lon="8.4180467"><ele>3.0</ele><time>2026-04-28T12:51:02.026Z</time></trkpt><trkpt lat="40.0180367" lon="8.41807"><ele>3.0</ele><time>2026-04-28T12:51:03.029Z</time></trkpt><trkpt lat="40.0178933" lon="8.41809"><ele>3.0</ele><time>2026-04-28T12:51:04.025Z</time></trkpt><trkpt lat="40.0177517" lon="8.41811"><ele>3.0</ele><time>2026-04-28T12:51:05.029Z</time></trkpt><trkpt lat="40.0176067" lon="8.4181317"><ele>3.0</ele><time>2026-04-28T12:51:06.026Z</time></trkpt><trkpt lat="40.0174567" lon="8.41815"><ele>3.0</ele><time>2026-04-28T12:51:07.08Z</time></trkpt><trkpt lat="40.0173117" lon="8.4181767"><ele>3.0</ele><time>2026-04-28T12:51:08.023Z</time></trkpt><trkpt lat="40.0171633" lon="8.4182"><ele>3.0</ele><time>2026-04-28T12:51:09.025Z</time></trkpt><trkpt lat="40.0170117" lon="8.4182283"><ele>3.0</ele><time>2026-04-28T12:51:10.027Z</time></trkpt><trkpt lat="40.0161017" lon="8.418315"><ele>3.0</ele><time>2026-04-28T12:51:16.02Z</time></trkpt><trkpt lat="40.0159483" lon="8.4183183"><ele>3.0</ele><time>2026-04-28T12:51:17.028Z</time></trkpt><trkpt lat="40.0157967" lon="8.4183217"><ele>3.0</ele><time>2026-04-28T12:51:18.029Z</time></trkpt><trkpt lat="40.01565" lon="8.41833"><ele>3.0</ele><time>2026-04-28T12:51:19.076Z</time></trkpt><trkpt lat="40.0155033" lon="8.4183417"><ele>3.0</ele><time>2026-04-28T12:51:20.021Z</time></trkpt><trkpt lat="40.0153617" lon="8.4183583"><ele>3.0</ele><time>2026-04-28T12:51:21.027Z</time></trkpt><trkpt lat="40.0152183" lon="8.4183717"><ele>3.0</ele><time>2026-04-28T12:51:22.024Z</time></trkpt><trkpt lat="40.015075" lon="8.41838"><ele>3.0</ele><time>2026-04-28T12:51:23.022Z</time></trkpt><trkpt lat="40.01493" lon="8.4183817"><ele>3.0</ele><time>2026-04-28T12:51:24.025Z</time></trkpt><trkpt lat="40.0147783" lon="8.4183733"><ele>3.0</ele><time>2026-04-28T12:51:25.074Z</time></trkpt><trkpt lat="40.0146283" lon="8.4183483"><ele>3.0</ele><time>2026-04-28T12:51:26.024Z</time></trkpt><trkpt lat="40.01448" lon="8.41832"><ele>3.0</ele><time>2026-04-28T12:51:27.028Z</time></trkpt><trkpt lat="40.0143267" lon="8.4182883"><ele>3.0</ele><time>2026-04-28T12:51:28.025Z</time></trkpt><trkpt lat="40.0141767" lon="8.418255"><ele>3.0</ele><time>2026-04-28T12:51:29.027Z</time></trkpt><trkpt lat="40.014025" lon="8.4182183"><ele>3.0</ele><time>2026-04-28T12:51:30.021Z</time></trkpt><trkpt lat="40.0138717" lon="8.4181783"><ele>3.0</ele><time>2026-04-28T12:51:31.07Z</time></trkpt><trkpt lat="40.0137183" lon="8.4181383"><ele>3.0</ele><time>2026-04-28T12:51:32.021Z</time></trkpt><trkpt lat="40.0135683" lon="8.4181"><ele>3.0</ele><time>2026-04-28T12:51:33.025Z</time></trkpt><trkpt lat="40.01342" lon="8.41806"><ele>3.0</ele><time>2026-04-28T12:51:34.03Z</time></trkpt><trkpt lat="40.0132717" lon="8.4180217"><ele>3.0</ele><time>2026-04-28T12:51:35.027Z</time></trkpt><trkpt lat="40.0131283" lon="8.41799"><ele>3.0</ele><time>2026-04-28T12:51:36.022Z</time></trkpt><trkpt lat="40.01298" lon="8.417955"><ele>3.666666666666667</ele><time>2026-04-28T12:51:37.068Z</time></trkpt><trkpt lat="40.01283" lon="8.4179183"><ele>4.333333333333334</ele><time>2026-04-28T12:51:38.024Z</time></trkpt><trkpt lat="40.0126833" lon="8.4178767"><ele>5.0</ele><time>2026-04-28T12:51:39.025Z</time></trkpt><trkpt lat="40.0125317" lon="8.4178383"><ele>5.0</ele><time>2026-04-28T12:51:40.028Z</time></trkpt><trkpt lat="40.0123883" lon="8.4178017"><ele>5.0</ele><time>2026-04-28T12:51:41.032Z</time></trkpt><trkpt lat="40.0122467" lon="8.417765"><ele>5.0</ele><time>2026-04-28T12:51:42.024Z</time></trkpt><trkpt lat="40.0121083" lon="8.41772"><ele>5.0</ele><time>2026-04-28T12:51:43.076Z</time></trkpt><trkpt lat="40.0119717" lon="8.4176567"><ele>5.0</ele><time>2026-04-28T12:51:44.026Z</time></trkpt><trkpt lat="40.011845" lon="8.417575"><ele>5.0</ele><time>2026-04-28T12:51:45.026Z</time></trkpt><trkpt lat="40.0117217" lon="8.417475"><ele>5.0</ele><time>2026-04-28T12:51:46.027Z</time></trkpt><trkpt lat="40.011595" lon="8.4173667"><ele>5.0</ele><time>2026-04-28T12:51:47.027Z</time></trkpt><trkpt lat="40.0114717" lon="8.4172517"><ele>5.5</ele><time>2026-04-28T12:51:48.026Z</time></trkpt><trkpt lat="40.01135" lon="8.4171433"><ele>6.0</ele><time>2026-04-28T12:51:49.075Z</time></trkpt><trkpt lat="40.0112267" lon="8.4170333"><ele>6.5</ele><time>2026-04-28T12:51:50.027Z</time></trkpt><trkpt lat="40.0111033" lon="8.41692"><ele>7.0</ele><time>2026-04-28T12:51:51.027Z</time></trkpt><trkpt lat="40.0109783" lon="8.416805"><ele>7.0</ele><time>2026-04-28T12:51:52.02Z</time></trkpt><trkpt lat="40.010855" lon="8.4166917"><ele>7.0</ele><time>2026-04-28T12:51:53.03Z</time></trkpt><trkpt lat="40.0107383" lon="8.4165733"><ele>7.0</ele><time>2026-04-28T12:51:54.026Z</time></trkpt><trkpt lat="40.0106233" lon="8.4164533"><ele>7.0</ele><time>2026-04-28T12:51:55.073Z</time></trkpt><trkpt lat="40.0105083" lon="8.4163317"><ele>7.75</ele><time>2026-04-28T12:51:56.026Z</time></trkpt><trkpt lat="40.0104" lon="8.4162033"><ele>8.5</ele><time>2026-04-28T12:51:57.023Z</time></trkpt><trkpt lat="40.0102917" lon="8.4160617"><ele>9.25</ele><time>2026-04-28T12:51:58.028Z</time></trkpt><trkpt lat="40.0102117" lon="8.415915"><ele>10.0</ele><time>2026-04-28T12:51:59.022Z</time></trkpt><trkpt lat="40.0101483" lon="8.4157533"><ele>10.0</ele><time>2026-04-28T12:52:00.027Z</time></trkpt><trkpt lat="40.0100917" lon="8.4155933"><ele>10.0</ele><time>2026-04-28T12:52:01.076Z</time></trkpt><trkpt lat="40.010025" lon="8.4154267"><ele>10.0</ele><time>2026-04-28T12:52:02.027Z</time></trkpt><trkpt lat="40.0099583" lon="8.4152617"><ele>10.0</ele><time>2026-04-28T12:52:03.031Z</time></trkpt><trkpt lat="40.0098867" lon="8.4150933"><ele>10.5</ele><time>2026-04-28T12:52:04.026Z</time></trkpt><trkpt lat="40.0098133" lon="8.4149283"><ele>11.0</ele><time>2026-04-28T12:52:05.033Z</time></trkpt><trkpt lat="40.0097383" lon="8.4147633"><ele>11.5</ele><time>2026-04-28T12:52:06.03Z</time></trkpt><trkpt lat="40.0096583" lon="8.4146"><ele>12.0</ele><time>2026-04-28T12:52:07.071Z</time></trkpt><trkpt lat="40.0095817" lon="8.414435"><ele>12.0</ele><time>2026-04-28T12:52:08.023Z</time></trkpt><trkpt lat="40.009505" lon="8.4142683"><ele>12.0</ele><time>2026-04-28T12:52:09.029Z</time></trkpt><trkpt lat="40.0094167" lon="8.4141"><ele>12.0</ele><time>2026-04-28T12:52:10.025Z</time></trkpt><trkpt lat="40.0093317" lon="8.41394"><ele>12.0</ele><time>2026-04-28T12:52:11.034Z</time></trkpt><trkpt lat="40.0092367" lon="8.41379"><ele>12.0</ele><time>2026-04-28T12:52:12.024Z</time></trkpt><trkpt lat="40.0091317" lon="8.413655"><ele>12.0</ele><time>2026-04-28T12:52:13.075Z</time></trkpt><trkpt lat="40.0090067" lon="8.41355"><ele>12.0</ele><time>2026-04-28T12:52:14.023Z</time></trkpt><trkpt lat="40.00887" lon="8.413465"><ele>12.333333333333332</ele><time>2026-04-28T12:52:15.025Z</time></trkpt><trkpt lat="40.0087117" lon="8.413405"><ele>12.666666666666666</ele><time>2026-04-28T12:52:16.023Z</time></trkpt><trkpt lat="40.0085533" lon="8.4133733"><ele>13.0</ele><time>2026-04-28T12:52:17.026Z</time></trkpt><trkpt lat="40.0083883" lon="8.4133967"><ele>13.666666666666666</ele><time>2026-04-28T12:52:18.027Z</time></trkpt><trkpt lat="40.00822" lon="8.41343"><ele>14.333333333333332</ele><time>2026-04-28T12:52:19.07Z</time></trkpt><trkpt lat="40.008065" lon="8.4134867"><ele>15.0</ele><time>2026-04-28T12:52:20.022Z</time></trkpt><trkpt lat="40.0079167" lon="8.413565"><ele>15.0</ele><time>2026-04-28T12:52:21.026Z</time></trkpt><trkpt lat="40.0077733" lon="8.4136817"><ele>15.0</ele><time>2026-04-28T12:52:22.023Z</time></trkpt><trkpt lat="40.007635" lon="8.4138017"><ele>15.0</ele><time>2026-04-28T12:52:23.025Z</time></trkpt><trkpt lat="40.0074967" lon="8.413925"><ele>16.0</ele><time>2026-04-28T12:52:24.027Z</time></trkpt><trkpt lat="40.00736" lon="8.4140433"><ele>17.0</ele><time>2026-04-28T12:52:25.089Z</time></trkpt><trkpt lat="40.0072267" lon="8.4141617"><ele>18.0</ele><time>2026-04-28T12:52:26.022Z</time></trkpt><trkpt lat="40.0070917" lon="8.4142817"><ele>18.0</ele><time>2026-04-28T12:52:27.027Z</time></trkpt><trkpt lat="40.006955" lon="8.4143933"><ele>18.0</ele><time>2026-04-28T12:52:28.025Z</time></trkpt><trkpt lat="40.00682" lon="8.414495"><ele>18.0</ele><time>2026-04-28T12:52:29.032Z</time></trkpt><trkpt lat="40.0066867" lon="8.414595"><ele>18.0</ele><time>2026-04-28T12:52:30.027Z</time></trkpt><trkpt lat="40.00655" lon="8.41469"><ele>18.0</ele><time>2026-04-28T12:52:31.078Z</time></trkpt><trkpt lat="40.0064083" lon="8.4147733"><ele>18.0</ele><time>2026-04-28T12:52:32.021Z</time></trkpt><trkpt lat="40.0062683" lon="8.4148533"><ele>18.0</ele><time>2026-04-28T12:52:33.029Z</time></trkpt><trkpt lat="40.00613" lon="8.4149317"><ele>18.0</ele><time>2026-04-28T12:52:34.025Z</time></trkpt><trkpt lat="40.005995" lon="8.4150083"><ele>18.0</ele><time>2026-04-28T12:52:35.027Z</time></trkpt><trkpt lat="40.00586" lon="8.41509"><ele>18.0</ele><time>2026-04-28T12:52:36.024Z</time></trkpt><trkpt lat="40.0057217" lon="8.4151683"><ele>19.0</ele><time>2026-04-28T12:52:37.075Z</time></trkpt><trkpt lat="40.0055833" lon="8.4152417"><ele>20.0</ele><time>2026-04-28T12:52:38.02Z</time></trkpt><trkpt lat="40.0054467" lon="8.4153117"><ele>21.0</ele><time>2026-04-28T12:52:39.023Z</time></trkpt><trkpt lat="40.0053117" lon="8.4153683"><ele>22.0</ele><time>2026-04-28T12:52:40.026Z</time></trkpt><trkpt lat="40.0051767" lon="8.4154183"><ele>22.0</ele><time>2026-04-28T12:52:41.027Z</time></trkpt><trkpt lat="40.0050417" lon="8.41547"><ele>22.0</ele><time>2026-04-28T12:52:42.02Z</time></trkpt><trkpt lat="40.0049083" lon="8.4155217"><ele>22.0</ele><time>2026-04-28T12:52:43.077Z</time></trkpt><trkpt lat="40.0047717" lon="8.4155733"><ele>22.0</ele><time>2026-04-28T12:52:44.023Z</time></trkpt><trkpt lat="40.0046417" lon="8.4156233"><ele>22.25</ele><time>2026-04-28T12:52:45.023Z</time></trkpt><trkpt lat="40.00451" lon="8.4156683"><ele>22.5</ele><time>2026-04-28T12:52:46.028Z</time></trkpt><trkpt lat="40.00439" lon="8.41572"><ele>22.75</ele><time>2026-04-28T12:52:47.025Z</time></trkpt><trkpt lat="40.0042683" lon="8.4157733"><ele>23.0</ele><time>2026-04-28T12:52:48.025Z</time></trkpt><trkpt lat="40.0041467" lon="8.4158217"><ele>23.0</ele><time>2026-04-28T12:52:49.076Z</time></trkpt><trkpt lat="40.00401" lon="8.4158733"><ele>23.0</ele><time>2026-04-28T12:52:50.029Z</time></trkpt><trkpt lat="40.0038817" lon="8.4159217"><ele>23.0</ele><time>2026-04-28T12:52:51.024Z</time></trkpt><trkpt lat="40.003765" lon="8.4159733"><ele>23.0</ele><time>2026-04-28T12:52:52.02Z</time></trkpt><trkpt lat="40.0036517" lon="8.4160233"><ele>23.0</ele><time>2026-04-28T12:52:53.027Z</time></trkpt><trkpt lat="40.0035267" lon="8.416065"><ele>23.0</ele><time>2026-04-28T12:52:54.025Z</time></trkpt><trkpt lat="40.0033933" lon="8.416105"><ele>23.0</ele><time>2026-04-28T12:52:55.072Z</time></trkpt><trkpt lat="40.0032633" lon="8.4161333"><ele>23.0</ele><time>2026-04-28T12:52:56.02Z</time></trkpt><trkpt lat="40.0031333" lon="8.4161533"><ele>22.5</ele><time>2026-04-28T12:52:57.026Z</time></trkpt><trkpt lat="40.0030033" lon="8.4161633"><ele>22.0</ele><time>2026-04-28T12:52:58.023Z</time></trkpt><trkpt lat="40.0028783" lon="8.4161667"><ele>21.5</ele><time>2026-04-28T12:52:59.03Z</time></trkpt><trkpt lat="40.002755" lon="8.4161667"><ele>21.0</ele><time>2026-04-28T12:53:00.028Z</time></trkpt><trkpt lat="40.0026233" lon="8.416155"><ele>20.0</ele><time>2026-04-28T12:53:01.073Z</time></trkpt><trkpt lat="40.00249" lon="8.4161233"><ele>19.0</ele><time>2026-04-28T12:53:02.029Z</time></trkpt><trkpt lat="40.0023617" lon="8.4160833"><ele>18.0</ele><time>2026-04-28T12:53:03.026Z</time></trkpt><trkpt lat="40.002105" lon="8.4159867"><ele>15.0</ele><time>2026-04-28T12:53:05.027Z</time></trkpt><trkpt lat="40.0015933" lon="8.4158567"><ele>15.0</ele><time>2026-04-28T12:53:09.024Z</time></trkpt><trkpt lat="40.0014633" lon="8.4158633"><ele>15.0</ele><time>2026-04-28T12:53:10.027Z</time></trkpt><trkpt lat="40.001075" lon="8.4159633"><ele>15.0</ele><time>2026-04-28T12:53:13.073Z</time></trkpt><trkpt lat="40.0009517" lon="8.41604"><ele>15.0</ele><time>2026-04-28T12:53:14.019Z</time></trkpt><trkpt lat="40.0008417" lon="8.4161283"><ele>15.0</ele><time>2026-04-28T12:53:15.025Z</time></trkpt><trkpt lat="40.0006367" lon="8.4163183"><ele>11.0</ele><time>2026-04-28T12:53:17.024Z</time></trkpt><trkpt lat="39.9997383" lon="8.4172567"><ele>11.0</ele><time>2026-04-28T12:53:26.02Z</time></trkpt><trkpt lat="39.9992033" lon="8.41777"><ele>11.5</ele><time>2026-04-28T12:53:31.066Z</time></trkpt><trkpt lat="39.9991017" lon="8.4178783"><ele>12.0</ele><time>2026-04-28T12:53:32.017Z</time></trkpt><trkpt lat="39.9987117" lon="8.4183333"><ele>11.0</ele><time>2026-04-28T12:53:36.018Z</time></trkpt><trkpt lat="39.99862" lon="8.4184567"><ele>10.0</ele><time>2026-04-28T12:53:37.081Z</time></trkpt><trkpt lat="39.9980767" lon="8.41918"><ele>10.0</ele><time>2026-04-28T12:53:43.07Z</time></trkpt><trkpt lat="39.9979883" lon="8.4193017"><ele>10.0</ele><time>2026-04-28T12:53:44.025Z</time></trkpt><trkpt lat="39.99755" lon="8.41992"><ele>9.5</ele><time>2026-04-28T12:53:49.073Z</time></trkpt><trkpt lat="39.9972783" lon="8.42029"><ele>9.0</ele><time>2026-04-28T12:53:52.019Z</time></trkpt><trkpt lat="39.9961167" lon="8.4215283"><ele>7.5</ele><time>2026-04-28T12:54:04.024Z</time></trkpt><trkpt lat="39.9960017" lon="8.4216067"><ele>6.0</ele><time>2026-04-28T12:54:05.03Z</time></trkpt><trkpt lat="39.9951667" lon="8.42212"><ele>5.0</ele><time>2026-04-28T12:54:12.022Z</time></trkpt><trkpt lat="39.994305" lon="8.42266"><ele>4.0</ele><time>2026-04-28T12:54:19.07Z</time></trkpt><trkpt lat="39.9933033" lon="8.4233"><ele>4.0</ele><time>2026-04-28T12:54:27.025Z</time></trkpt><trkpt lat="39.992695" lon="8.4237067"><ele>4.0</ele><time>2026-04-28T12:54:32.017Z</time></trkpt><trkpt lat="39.9925717" lon="8.4237833"><ele>4.0</ele><time>2026-04-28T12:54:33.028Z</time></trkpt><trkpt lat="39.991695" lon="8.4246133"><ele>3.5</ele><time>2026-04-28T12:54:41.025Z</time></trkpt><trkpt lat="39.99161" lon="8.4247533"><ele>3.0</ele><time>2026-04-28T12:54:42.023Z</time></trkpt><trkpt lat="39.991295" lon="8.4253483"><ele>3.5</ele><time>2026-04-28T12:54:46.024Z</time></trkpt><trkpt lat="39.99106" lon="8.4258133"><ele>4.0</ele><time>2026-04-28T12:54:49.069Z</time></trkpt><trkpt lat="39.9909833" lon="8.4259683"><ele>5.0</ele><time>2026-04-28T12:54:50.025Z</time></trkpt><trkpt lat="39.9904183" lon="8.4270483"><ele>5.0</ele><time>2026-04-28T12:54:57.025Z</time></trkpt><trkpt lat="39.990335" lon="8.427195"><ele>5.0</ele><time>2026-04-28T12:54:58.019Z</time></trkpt><trkpt lat="39.9897333" lon="8.42821"><ele>4.0</ele><time>2026-04-28T12:55:05.025Z</time></trkpt><trkpt lat="39.98924" lon="8.4290633"><ele>4.5</ele><time>2026-04-28T12:55:11.03Z</time></trkpt><trkpt lat="39.9891667" lon="8.4291983"><ele>5.0</ele><time>2026-04-28T12:55:12.024Z</time></trkpt><trkpt lat="39.9888433" lon="8.430015"><ele>5.0</ele><time>2026-04-28T12:55:20.02Z</time></trkpt><trkpt lat="39.988805" lon="8.4301483"><ele>5.0</ele><time>2026-04-28T12:55:34.028Z</time></trkpt><trkpt lat="39.9885867" lon="8.4300033"><ele>5.0</ele><time>2026-04-28T12:56:09.019Z</time></trkpt><trkpt lat="39.9883983" lon="8.42956"><ele>5.0</ele><time>2026-04-28T12:56:15.028Z</time></trkpt><trkpt lat="39.9881417" lon="8.4288667"><ele>4.8</ele><time>2026-04-28T12:56:25.091Z</time></trkpt><trkpt lat="39.9880983" lon="8.428805"><ele>4.6</ele><time>2026-04-28T12:56:26.022Z</time></trkpt><trkpt lat="39.9880317" lon="8.4286833"><ele>4.4</ele><time>2026-04-28T12:56:28.026Z</time></trkpt><trkpt lat="39.9879833" lon="8.4285667"><ele>4.2</ele><time>2026-04-28T12:56:30.024Z</time></trkpt><trkpt lat="39.9879417" lon="8.42844"><ele>4.0</ele><time>2026-04-28T12:56:32.027Z</time></trkpt><trkpt lat="39.98791" lon="8.4282933"><ele>3.9999999999999996</ele><time>2026-04-28T12:56:34.026Z</time></trkpt><trkpt lat="39.9878983" lon="8.4282117"><ele>4.0</ele><time>2026-04-28T12:56:35.031Z</time></trkpt><trkpt lat="39.9878883" lon="8.42813"><ele>4.0</ele><time>2026-04-28T12:56:36.024Z</time></trkpt><trkpt lat="39.9878583" lon="8.4279683"><ele>4.0</ele><time>2026-04-28T12:56:38.024Z</time></trkpt><trkpt lat="39.9878367" lon="8.4278783"><ele>3.9999999999999996</ele><time>2026-04-28T12:56:39.031Z</time></trkpt><trkpt lat="39.9878167" lon="8.427785"><ele>4.0</ele><time>2026-04-28T12:56:40.025Z</time></trkpt><trkpt lat="39.9878" lon="8.4276883"><ele>4.0</ele><time>2026-04-28T12:56:41.027Z</time></trkpt><trkpt lat="39.9877883" lon="8.4275917"><ele>3.9999999999999996</ele><time>2026-04-28T12:56:42.027Z</time></trkpt><trkpt lat="39.9877733" lon="8.4274933"><ele>4.0</ele><time>2026-04-28T12:56:43.077Z</time></trkpt><trkpt lat="39.9877617" lon="8.4273983"><ele>4.0</ele><time>2026-04-28T12:56:44.022Z</time></trkpt><trkpt lat="39.9877533" lon="8.4273033"><ele>3.9999999999999996</ele><time>2026-04-28T12:56:45.025Z</time></trkpt><trkpt lat="39.9877417" lon="8.4272083"><ele>4.0</ele><time>2026-04-28T12:56:46.023Z</time></trkpt><trkpt lat="39.9877233" lon="8.4271167"><ele>4.0</ele><time>2026-04-28T12:56:47.02Z</time></trkpt><trkpt lat="39.9876983" lon="8.4270333"><ele>4.285714285714286</ele><time>2026-04-28T12:56:48.028Z</time></trkpt><trkpt lat="39.9876733" lon="8.4269533"><ele>4.571428571428571</ele><time>2026-04-28T12:56:49.074Z</time></trkpt><trkpt lat="39.9876467" lon="8.4268717"><ele>4.857142857142857</ele><time>2026-04-28T12:56:50.02Z</time></trkpt><trkpt lat="39.9876133" lon="8.4267883"><ele>5.142857142857142</ele><time>2026-04-28T12:56:51.033Z</time></trkpt><trkpt lat="39.987575" lon="8.4267067"><ele>5.428571428571429</ele><time>2026-04-28T12:56:52.021Z</time></trkpt><trkpt lat="39.9875333" lon="8.4266233"><ele>5.7142857142857135</ele><time>2026-04-28T12:56:53.022Z</time></trkpt><trkpt lat="39.9874917" lon="8.426545"><ele>6.0</ele><time>2026-04-28T12:56:54.022Z</time></trkpt><trkpt lat="39.9874517" lon="8.4264633"><ele>6.142857142857142</ele><time>2026-04-28T12:56:55.084Z</time></trkpt><trkpt lat="39.987415" lon="8.4263817"><ele>6.285714285714286</ele><time>2026-04-28T12:56:56.022Z</time></trkpt><trkpt lat="39.9873817" lon="8.4262983"><ele>6.428571428571429</ele><time>2026-04-28T12:56:57.023Z</time></trkpt><trkpt lat="39.9873467" lon="8.4262117"><ele>6.571428571428571</ele><time>2026-04-28T12:56:58.019Z</time></trkpt><trkpt lat="39.9873167" lon="8.4261283"><ele>6.714285714285714</ele><time>2026-04-28T12:56:59.03Z</time></trkpt><trkpt lat="39.9872867" lon="8.426045"><ele>6.857142857142857</ele><time>2026-04-28T12:57:00.023Z</time></trkpt><trkpt lat="39.9872567" lon="8.4259583"><ele>7.0</ele><time>2026-04-28T12:57:01.076Z</time></trkpt><trkpt lat="39.9872267" lon="8.425865"><ele>7.0</ele><time>2026-04-28T12:57:02.018Z</time></trkpt><trkpt lat="39.9872017" lon="8.4257767"><ele>7.0</ele><time>2026-04-28T12:57:03.027Z</time></trkpt><trkpt lat="39.98717" lon="8.425685"><ele>7.0</ele><time>2026-04-28T12:57:04.022Z</time></trkpt><trkpt lat="39.9871417" lon="8.4255967"><ele>7.0</ele><time>2026-04-28T12:57:05.022Z</time></trkpt><trkpt lat="39.9871167" lon="8.4255117"><ele>7.0</ele><time>2026-04-28T12:57:06.027Z</time></trkpt><trkpt lat="39.98709" lon="8.4254283"><ele>7.0</ele><time>2026-04-28T12:57:07.073Z</time></trkpt><trkpt lat="39.9870583" lon="8.42534"><ele>7.0</ele><time>2026-04-28T12:57:08.02Z</time></trkpt><trkpt lat="39.9870267" lon="8.425255"><ele>7.0</ele><time>2026-04-28T12:57:09.022Z</time></trkpt><trkpt lat="39.986995" lon="8.4251683"><ele>7.0</ele><time>2026-04-28T12:57:10.029Z</time></trkpt><trkpt lat="39.9869583" lon="8.4250783"><ele>7.0</ele><time>2026-04-28T12:57:11.024Z</time></trkpt><trkpt lat="39.9869233" lon="8.4249917"><ele>7.0</ele><time>2026-04-28T12:57:12.024Z</time></trkpt><trkpt lat="39.9868883" lon="8.4249033"><ele>7.0</ele><time>2026-04-28T12:57:13.074Z</time></trkpt><trkpt lat="39.986855" lon="8.4248233"><ele>7.0</ele><time>2026-04-28T12:57:14.024Z</time></trkpt><trkpt lat="39.9868217" lon="8.4247467"><ele>7.0</ele><time>2026-04-28T12:57:15.023Z</time></trkpt><trkpt lat="39.98677" lon="8.4246033"><ele>7.000000000000001</ele><time>2026-04-28T12:57:17.03Z</time></trkpt><trkpt lat="39.9867383" lon="8.4245233"><ele>7.0</ele><time>2026-04-28T12:57:18.024Z</time></trkpt><trkpt lat="39.9867033" lon="8.4244367"><ele>7.0</ele><time>2026-04-28T12:57:19.072Z</time></trkpt><trkpt lat="39.98667" lon="8.4243483"><ele>7.0</ele><time>2026-04-28T12:57:20.024Z</time></trkpt><trkpt lat="39.98664" lon="8.4242633"><ele>7.000000000000001</ele><time>2026-04-28T12:57:21.027Z</time></trkpt><trkpt lat="39.9866067" lon="8.4241833"><ele>7.0</ele><time>2026-04-28T12:57:22.023Z</time></trkpt><trkpt lat="39.986555" lon="8.4240683"><ele>7.0</ele><time>2026-04-28T12:57:24.028Z</time></trkpt><trkpt lat="39.9865117" lon="8.4239667"><ele>6.999999999999999</ele><time>2026-04-28T12:57:26.018Z</time></trkpt><trkpt lat="39.9864767" lon="8.42386"><ele>6.999999999999999</ele><time>2026-04-28T12:57:28.023Z</time></trkpt><trkpt lat="39.986455" lon="8.4237417"><ele>7.0</ele><time>2026-04-28T12:57:30.03Z</time></trkpt><trkpt lat="39.9864817" lon="8.4236233"><ele>7.0</ele><time>2026-04-28T12:57:32.022Z</time></trkpt><trkpt lat="39.98657" lon="8.4235133"><ele>7.25</ele><time>2026-04-28T12:57:34.025Z</time></trkpt><trkpt lat="39.9866567" lon="8.4234083"><ele>7.5</ele><time>2026-04-28T12:57:36.022Z</time></trkpt><trkpt lat="39.9867333" lon="8.4232983"><ele>7.75</ele><time>2026-04-28T12:57:38.017Z</time></trkpt><trkpt lat="39.9868033" lon="8.4231883"><ele>8.0</ele><time>2026-04-28T12:57:40.021Z</time></trkpt><trkpt lat="39.9868883" lon="8.4230783"><ele>7.857142857142857</ele><time>2026-04-28T12:57:42.019Z</time></trkpt><trkpt lat="39.9869433" lon="8.4230217"><ele>7.7142857142857135</ele><time>2026-04-28T12:57:43.067Z</time></trkpt><trkpt lat="39.9870017" lon="8.42297"><ele>7.571428571428571</ele><time>2026-04-28T12:57:44.023Z</time></trkpt><trkpt lat="39.9870617" lon="8.4229217"><ele>7.428571428571429</ele><time>2026-04-28T12:57:45.023Z</time></trkpt><trkpt lat="39.9871233" lon="8.4228733"><ele>7.285714285714286</ele><time>2026-04-28T12:57:46.027Z</time></trkpt><trkpt lat="39.98718" lon="8.42282"><ele>7.142857142857142</ele><time>2026-04-28T12:57:47.022Z</time></trkpt><trkpt lat="39.9872383" lon="8.4227667"><ele>7.0</ele><time>2026-04-28T12:57:48.023Z</time></trkpt><trkpt lat="39.9872867" lon="8.422705"><ele>7.000000000000001</ele><time>2026-04-28T12:57:49.069Z</time></trkpt><trkpt lat="39.9873317" lon="8.422635"><ele>7.0</ele><time>2026-04-28T12:57:50.019Z</time></trkpt><trkpt lat="39.9873733" lon="8.4225683"><ele>7.0</ele><time>2026-04-28T12:57:51.026Z</time></trkpt><trkpt lat="39.9874217" lon="8.42251"><ele>7.0</ele><time>2026-04-28T12:57:52.02Z</time></trkpt><trkpt lat="39.9874767" lon="8.4224683"><ele>7.000000000000001</ele><time>2026-04-28T12:57:53.021Z</time></trkpt><trkpt lat="39.9875833" lon="8.4224217"><ele>7.0</ele><time>2026-04-28T12:57:55.09Z</time></trkpt><trkpt lat="39.9876617" lon="8.422325"><ele>7.000000000000001</ele><time>2026-04-28T12:57:57.026Z</time></trkpt><trkpt lat="39.98772" lon="8.4221983"><ele>7.0</ele><time>2026-04-28T12:57:59.022Z</time></trkpt><trkpt lat="39.98778" lon="8.4221183"><ele>7.0</ele><time>2026-04-28T12:58:01.072Z</time></trkpt><trkpt lat="39.987875" lon="8.42207"><ele>7.0</ele><time>2026-04-28T12:58:03.025Z</time></trkpt><trkpt lat="39.9879333" lon="8.4220383"><ele>7.000000000000001</ele><time>2026-04-28T12:58:04.022Z</time></trkpt><trkpt lat="39.9879867" lon="8.4219917"><ele>7.0</ele><time>2026-04-28T12:58:05.024Z</time></trkpt><trkpt lat="39.98808" lon="8.4218717"><ele>7.000000000000001</ele><time>2026-04-28T12:58:07.077Z</time></trkpt><trkpt lat="39.9881183" lon="8.4218033"><ele>7.0</ele><time>2026-04-28T12:58:08.023Z</time></trkpt><trkpt lat="39.98815" lon="8.4217267"><ele>7.0</ele><time>2026-04-28T12:58:09.028Z</time></trkpt><trkpt lat="39.9882067" lon="8.4215983"><ele>7.0</ele><time>2026-04-28T12:58:11.031Z</time></trkpt><trkpt lat="39.9882317" lon="8.4214833"><ele>7.000000000000001</ele><time>2026-04-28T12:58:13.073Z</time></trkpt><trkpt lat="39.9882233" lon="8.4213617"><ele>7.0</ele><time>2026-04-28T12:58:15.034Z</time></trkpt><trkpt lat="39.9881867" lon="8.4212"><ele>7.000000000000001</ele><time>2026-04-28T12:58:17.025Z</time></trkpt><trkpt lat="39.9881617" lon="8.421105"><ele>7.0</ele><time>2026-04-28T12:58:18.023Z</time></trkpt><trkpt lat="39.98814" lon="8.4210133"><ele>7.0</ele><time>2026-04-28T12:58:19.067Z</time></trkpt><trkpt lat="39.98811" lon="8.4209267"><ele>7.0</ele><time>2026-04-28T12:58:20.02Z</time></trkpt><trkpt lat="39.9880717" lon="8.42083"><ele>7.000000000000001</ele><time>2026-04-28T12:58:21.024Z</time></trkpt><trkpt lat="39.9880317" lon="8.42074"><ele>7.0</ele><time>2026-04-28T12:58:22.025Z</time></trkpt><trkpt lat="39.9879917" lon="8.4206517"><ele>7.000000000000001</ele><time>2026-04-28T12:58:23.027Z</time></trkpt><trkpt lat="39.987945" lon="8.42056"><ele>7.0</ele><time>2026-04-28T12:58:24.023Z</time></trkpt><trkpt lat="39.9878983" lon="8.42047"><ele>7.0</ele><time>2026-04-28T12:58:25.073Z</time></trkpt><trkpt lat="39.9878533" lon="8.420385"><ele>7.0</ele><time>2026-04-28T12:58:26.024Z</time></trkpt><trkpt lat="39.9878117" lon="8.4203017"><ele>7.000000000000001</ele><time>2026-04-28T12:58:27.025Z</time></trkpt><trkpt lat="39.987775" lon="8.4202283"><ele>7.0</ele><time>2026-04-28T12:58:28.02Z</time></trkpt><trkpt lat="39.987735" lon="8.4201567"><ele>7.0</ele><time>2026-04-28T12:58:29.02Z</time></trkpt><trkpt lat="39.9876967" lon="8.420085"><ele>6.999999999999999</ele><time>2026-04-28T12:58:30.023Z</time></trkpt><trkpt lat="39.98766" lon="8.4200133"><ele>6.999999999999999</ele><time>2026-04-28T12:58:31.072Z</time></trkpt><trkpt lat="39.9875983" lon="8.41989"><ele>7.0</ele><time>2026-04-28T12:58:33.026Z</time></trkpt><trkpt lat="39.9875333" lon="8.4197633"><ele>7.0</ele><time>2026-04-28T12:58:35.029Z</time></trkpt><trkpt lat="39.9874767" lon="8.419645"><ele>7.199999999999999</ele><time>2026-04-28T12:58:37.073Z</time></trkpt><trkpt lat="39.9874333" lon="8.4195583"><ele>7.3999999999999995</ele><time>2026-04-28T12:58:39.025Z</time></trkpt><trkpt lat="39.9873983" lon="8.41948"><ele>7.6000000000000005</ele><time>2026-04-28T12:58:41.027Z</time></trkpt><trkpt lat="39.9873217" lon="8.419395"><ele>7.800000000000001</ele><time>2026-04-28T12:58:44.019Z</time></trkpt><trkpt lat="39.9872317" lon="8.419415"><ele>8.0</ele><time>2026-04-28T12:58:46.023Z</time></trkpt><trkpt lat="39.9871267" lon="8.4194683"><ele>8.0</ele><time>2026-04-28T12:58:48.023Z</time></trkpt><trkpt lat="39.9870283" lon="8.4195283"><ele>8.0</ele><time>2026-04-28T12:58:50.022Z</time></trkpt><trkpt lat="39.9869533" lon="8.4195733"><ele>8.0</ele><time>2026-04-28T12:58:52.022Z</time></trkpt><trkpt lat="39.9868733" lon="8.4196183"><ele>8.0</ele><time>2026-04-28T12:58:55.081Z</time></trkpt><trkpt lat="39.9867783" lon="8.4195917"><ele>8.0</ele><time>2026-04-28T12:59:51.022Z</time></trkpt><trkpt lat="39.9866333" lon="8.4195317"><ele>8.25</ele><time>2026-04-28T12:59:54.026Z</time></trkpt><trkpt lat="39.9865283" lon="8.4194283"><ele>8.5</ele><time>2026-04-28T12:59:57.024Z</time></trkpt><trkpt lat="39.986505" lon="8.4193317"><ele>8.75</ele><time>2026-04-28T12:59:59.019Z</time></trkpt><trkpt lat="39.986495" lon="8.4191317"><ele>9.0</ele><time>2026-04-28T13:00:03.02Z</time></trkpt><trkpt lat="39.9865533" lon="8.4188983"><ele>9.0</ele><time>2026-04-28T13:00:07.075Z</time></trkpt><trkpt lat="39.9865783" lon="8.4185133"><ele>9.0</ele><time>2026-04-28T13:00:15.022Z</time></trkpt><trkpt lat="39.9865467" lon="8.4184217"><ele>9.0</ele><time>2026-04-28T13:00:17.019Z</time></trkpt><trkpt lat="39.9863883" lon="8.4183383"><ele>9.0</ele><time>2026-04-28T13:00:22.022Z</time></trkpt><trkpt lat="39.9861767" lon="8.4183017"><ele>9.0</ele><time>2026-04-28T13:00:28.021Z</time></trkpt><trkpt lat="39.9860267" lon="8.4184283"><ele>9.0</ele><time>2026-04-28T13:00:34.025Z</time></trkpt><trkpt lat="39.9858433" lon="8.418605"><ele>9.333333333333334</ele><time>2026-04-28T13:00:39.022Z</time></trkpt><trkpt lat="39.985645" lon="8.4187333"><ele>9.666666666666668</ele><time>2026-04-28T13:00:44.02Z</time></trkpt><trkpt lat="39.9854483" lon="8.41871"><ele>10.0</ele><time>2026-04-28T13:00:50.017Z</time></trkpt><trkpt lat="39.9853117" lon="8.41853"><ele>10.0</ele><time>2026-04-28T13:00:55.078Z</time></trkpt><trkpt lat="39.9851917" lon="8.41834"><ele>10.0</ele><time>2026-04-28T13:01:00.019Z</time></trkpt><trkpt lat="39.985045" lon="8.4182317"><ele>10.0</ele><time>2026-04-28T13:01:06.026Z</time></trkpt><trkpt lat="39.98498" lon="8.4181817"><ele>10.0</ele><time>2026-04-28T13:01:08.023Z</time></trkpt><trkpt lat="39.9848883" lon="8.418065"><ele>10.333333333333334</ele><time>2026-04-28T13:01:11.02Z</time></trkpt><trkpt lat="39.9847783" lon="8.4179183"><ele>10.666666666666666</ele><time>2026-04-28T13:01:14.02Z</time></trkpt><trkpt lat="39.9846083" lon="8.4176567"><ele>11.0</ele><time>2026-04-28T13:01:19.066Z</time></trkpt><trkpt lat="39.98455" lon="8.417455"><ele>11.0</ele><time>2026-04-28T13:01:23.018Z</time></trkpt><trkpt lat="39.9846117" lon="8.4172133"><ele>11.0</ele><time>2026-04-28T13:01:28.023Z</time></trkpt><trkpt lat="39.984655" lon="8.4169933"><ele>11.0</ele><time>2026-04-28T13:01:33.019Z</time></trkpt><trkpt lat="39.9847933" lon="8.4167567"><ele>11.0</ele><time>2026-04-28T13:01:38.026Z</time></trkpt><trkpt lat="39.9848817" lon="8.4166467"><ele>11.0</ele><time>2026-04-28T13:01:41.021Z</time></trkpt><trkpt lat="39.985015" lon="8.4165417"><ele>11.0</ele><time>2026-04-28T13:01:46.018Z</time></trkpt><trkpt lat="39.9850267" lon="8.4164283"><ele>11.0</ele><time>2026-04-28T13:01:51.02Z</time></trkpt><trkpt lat="39.9849017" lon="8.4163667"><ele>11.333333333333332</ele><time>2026-04-28T13:01:55.086Z</time></trkpt><trkpt lat="39.9847067" lon="8.4162217"><ele>11.666666666666666</ele><time>2026-04-28T13:02:00.024Z</time></trkpt><trkpt lat="39.9845983" lon="8.4160767"><ele>12.0</ele><time>2026-04-28T13:02:05.022Z</time></trkpt><trkpt lat="39.98463" lon="8.4159667"><ele>12.0</ele><time>2026-04-28T13:02:08.02Z</time></trkpt><trkpt lat="39.984735" lon="8.4157617"><ele>12.0</ele><time>2026-04-28T13:02:12.028Z</time></trkpt><trkpt lat="39.9848933" lon="8.4154783"><ele>12.333333333333332</ele><time>2026-04-28T13:02:18.022Z</time></trkpt><trkpt lat="39.9850467" lon="8.41546"><ele>12.666666666666666</ele><time>2026-04-28T13:02:22.019Z</time></trkpt><trkpt lat="39.9851467" lon="8.415495"><ele>13.0</ele><time>2026-04-28T13:02:25.082Z</time></trkpt><trkpt lat="39.985335" lon="8.4152967"><ele>13.0</ele><time>2026-04-28T13:02:30.025Z</time></trkpt><trkpt lat="39.9853867" lon="8.4152467"><ele>13.0</ele><time>2026-04-28T13:02:31.073Z</time></trkpt><trkpt lat="39.9855183" lon="8.4151"><ele>13.0</ele><time>2026-04-28T13:02:34.021Z</time></trkpt><trkpt lat="39.98559" lon="8.41499"><ele>13.0</ele><time>2026-04-28T13:02:36.028Z</time></trkpt><trkpt lat="39.9857717" lon="8.41476"><ele>12.0</ele><time>2026-04-28T13:02:41.023Z</time></trkpt><trkpt lat="39.9859933" lon="8.4145733"><ele>11.0</ele><time>2026-04-28T13:02:46.024Z</time></trkpt><trkpt lat="39.9861183" lon="8.4144017"><ele>10.0</ele><time>2026-04-28T13:02:51.022Z</time></trkpt><trkpt lat="39.9861583" lon="8.4142667"><ele>10.0</ele><time>2026-04-28T13:02:55.076Z</time></trkpt><trkpt lat="39.9860617" lon="8.414095"><ele>10.0</ele><time>2026-04-28T13:03:01.075Z</time></trkpt><trkpt lat="39.9859633" lon="8.4140383"><ele>10.0</ele><time>2026-04-28T13:03:03.018Z</time></trkpt><trkpt lat="39.9856783" lon="8.4136717"><ele>11.0</ele><time>2026-04-28T13:03:10.021Z</time></trkpt><trkpt lat="39.985585" lon="8.4134317"><ele>12.0</ele><time>2026-04-28T13:03:16.019Z</time></trkpt><trkpt lat="39.9857383" lon="8.4131417"><ele>12.5</ele><time>2026-04-28T13:03:21.017Z</time></trkpt><trkpt lat="39.9858383" lon="8.4127767"><ele>13.0</ele><time>2026-04-28T13:03:26.02Z</time></trkpt><trkpt lat="39.9859383" lon="8.412485"><ele>13.0</ele><time>2026-04-28T13:03:32.021Z</time></trkpt><trkpt lat="39.98586" lon="8.4123833"><ele>13.0</ele><time>2026-04-28T13:03:40.015Z</time></trkpt><trkpt lat="39.9856983" lon="8.4125033"><ele>13.0</ele><time>2026-04-28T13:03:52.02Z</time></trkpt><trkpt lat="39.9856217" lon="8.41255"><ele>13.0</ele><time>2026-04-28T13:03:53.017Z</time></trkpt><trkpt lat="39.98511" lon="8.412765"><ele>13.0</ele><time>2026-04-28T13:03:59.024Z</time></trkpt><trkpt lat="39.985025" lon="8.4127317"><ele>13.0</ele><time>2026-04-28T13:04:00.026Z</time></trkpt><trkpt lat="39.9848017" lon="8.4124733"><ele>13.0</ele><time>2026-04-28T13:04:05.018Z</time></trkpt><trkpt lat="39.9846967" lon="8.4121583"><ele>12.5</ele><time>2026-04-28T13:04:11.023Z</time></trkpt><trkpt lat="39.9845233" lon="8.4118583"><ele>12.0</ele><time>2026-04-28T13:04:17.019Z</time></trkpt><trkpt lat="39.9841783" lon="8.411705"><ele>13.5</ele><time>2026-04-28T13:04:23.02Z</time></trkpt><trkpt lat="39.983775" lon="8.4116167"><ele>15.0</ele><time>2026-04-28T13:04:29.023Z</time></trkpt><trkpt lat="39.9837033" lon="8.4116183"><ele>15.0</ele><time>2026-04-28T13:04:30.018Z</time></trkpt><trkpt lat="39.9833533" lon="8.4117333"><ele>15.0</ele><time>2026-04-28T13:04:35.02Z</time></trkpt><trkpt lat="39.9829233" lon="8.4120317"><ele>15.0</ele><time>2026-04-28T13:04:41.017Z</time></trkpt><trkpt lat="39.9825267" lon="8.4123033"><ele>15.0</ele><time>2026-04-28T13:04:47.024Z</time></trkpt><trkpt lat="39.9822183" lon="8.4125"><ele>15.666666666666668</ele><time>2026-04-28T13:04:52.017Z</time></trkpt><trkpt lat="39.9821533" lon="8.4125333"><ele>16.333333333333336</ele><time>2026-04-28T13:04:53.019Z</time></trkpt><trkpt lat="39.9818217" lon="8.41272"><ele>17.0</ele><time>2026-04-28T13:04:58.019Z</time></trkpt><trkpt lat="39.9817517" lon="8.4127583"><ele>18.5</ele><time>2026-04-28T13:04:59.017Z</time></trkpt><trkpt lat="39.9814317" lon="8.4128083"><ele>20.0</ele><time>2026-04-28T13:05:04.024Z</time></trkpt><trkpt lat="39.9811383" lon="8.4128433"><ele>20.5</ele><time>2026-04-28T13:05:10.019Z</time></trkpt><trkpt lat="39.9807833" lon="8.4128717"><ele>21.0</ele><time>2026-04-28T13:05:16.024Z</time></trkpt><trkpt lat="39.9804783" lon="8.4128667"><ele>21.0</ele><time>2026-04-28T13:05:22.016Z</time></trkpt><trkpt lat="39.9801617" lon="8.4128583"><ele>21.0</ele><time>2026-04-28T13:05:28.019Z</time></trkpt><trkpt lat="39.9798683" lon="8.4128683"><ele>20.0</ele><time>2026-04-28T13:05:34.023Z</time></trkpt><trkpt lat="39.979545" lon="8.4128283"><ele>19.0</ele><time>2026-04-28T13:05:40.015Z</time></trkpt><trkpt lat="39.9792083" lon="8.4128533"><ele>19.0</ele><time>2026-04-28T13:05:46.022Z</time></trkpt><trkpt lat="39.978925" lon="8.4129183"><ele>19.0</ele><time>2026-04-28T13:05:51.019Z</time></trkpt><trkpt lat="39.9785533" lon="8.4130333"><ele>18.0</ele><time>2026-04-28T13:05:58.018Z</time></trkpt><trkpt lat="39.9781733" lon="8.4131333"><ele>17.0</ele><time>2026-04-28T13:06:04.02Z</time></trkpt><trkpt lat="39.97811" lon="8.4131517"><ele>17.0</ele><time>2026-04-28T13:06:05.019Z</time></trkpt><trkpt lat="39.9777833" lon="8.4132217"><ele>17.0</ele><time>2026-04-28T13:06:10.021Z</time></trkpt><trkpt lat="39.9773517" lon="8.4131683"><ele>17.0</ele><time>2026-04-28T13:06:16.016Z</time></trkpt><trkpt lat="39.976995" lon="8.41305"><ele>17.0</ele><time>2026-04-28T13:06:22.018Z</time></trkpt><trkpt lat="39.97668" lon="8.4129317"><ele>18.0</ele><time>2026-04-28T13:06:27.026Z</time></trkpt><trkpt lat="39.9763233" lon="8.4127633"><ele>19.0</ele><time>2026-04-28T13:06:33.021Z</time></trkpt><trkpt lat="39.9759867" lon="8.4125983"><ele>19.0</ele><time>2026-04-28T13:06:39.019Z</time></trkpt><trkpt lat="39.97569" lon="8.4125317"><ele>19.0</ele><time>2026-04-28T13:06:45.018Z</time></trkpt><trkpt lat="39.975445" lon="8.4124983"><ele>19.0</ele><time>2026-04-28T13:06:50.018Z</time></trkpt><trkpt lat="39.9753817" lon="8.41249"><ele>19.0</ele><time>2026-04-28T13:06:51.015Z</time></trkpt><trkpt lat="39.9751383" lon="8.41244"><ele>19.0</ele><time>2026-04-28T13:06:56.02Z</time></trkpt><trkpt lat="39.9748433" lon="8.4125467"><ele>19.0</ele><time>2026-04-28T13:07:02.018Z</time></trkpt><trkpt lat="39.974785" lon="8.4125817"><ele>19.0</ele><time>2026-04-28T13:07:03.02Z</time></trkpt><trkpt lat="39.97447" lon="8.4127233"><ele>19.0</ele><time>2026-04-28T13:07:08.025Z</time></trkpt><trkpt lat="39.9741183" lon="8.4128817"><ele>18.0</ele><time>2026-04-28T13:07:14.014Z</time></trkpt><trkpt lat="39.9738583" lon="8.4130117"><ele>17.0</ele><time>2026-04-28T13:07:20.015Z</time></trkpt><trkpt lat="39.9736533" lon="8.4131017"><ele>17.0</ele><time>2026-04-28T13:07:26.017Z</time></trkpt><trkpt lat="39.9735083" lon="8.412815"><ele>17.0</ele><time>2026-04-28T13:07:32.013Z</time></trkpt><trkpt lat="39.973275" lon="8.4117517"><ele>19.0</ele><time>2026-04-28T13:07:38.014Z</time></trkpt><trkpt lat="39.973045" lon="8.4107133"><ele>22.0</ele><time>2026-04-28T13:07:44.013Z</time></trkpt><trkpt lat="39.9726433" lon="8.4089667"><ele>21.5</ele><time>2026-04-28T13:07:54.023Z</time></trkpt><trkpt lat="39.9726017" lon="8.4087867"><ele>21.0</ele><time>2026-04-28T13:07:55.086Z</time></trkpt><trkpt lat="39.9725583" lon="8.4086067"><ele>20.5</ele><time>2026-04-28T13:07:56.018Z</time></trkpt><trkpt lat="39.97251" lon="8.4084283"><ele>20.0</ele><time>2026-04-28T13:07:57.016Z</time></trkpt><trkpt lat="39.9724633" lon="8.4082517"><ele>20.0</ele><time>2026-04-28T13:07:58.024Z</time></trkpt><trkpt lat="39.972415" lon="8.408075"><ele>20.0</ele><time>2026-04-28T13:07:59.023Z</time></trkpt><trkpt lat="39.9723667" lon="8.4079"><ele>20.0</ele><time>2026-04-28T13:08:00.025Z</time></trkpt><trkpt lat="39.97231" lon="8.40773"><ele>20.0</ele><time>2026-04-28T13:08:01.074Z</time></trkpt><trkpt lat="39.9722583" lon="8.4075567"><ele>19.75</ele><time>2026-04-28T13:08:02.022Z</time></trkpt><trkpt lat="39.972205" lon="8.40738"><ele>19.5</ele><time>2026-04-28T13:08:03.02Z</time></trkpt><trkpt lat="39.9721533" lon="8.40721"><ele>19.25</ele><time>2026-04-28T13:08:04.021Z</time></trkpt><trkpt lat="39.972105" lon="8.4070383"><ele>19.0</ele><time>2026-04-28T13:08:05.024Z</time></trkpt><trkpt lat="39.972055" lon="8.4068717"><ele>19.0</ele><time>2026-04-28T13:08:06.019Z</time></trkpt><trkpt lat="39.9720067" lon="8.4067067"><ele>19.0</ele><time>2026-04-28T13:08:07.071Z</time></trkpt><trkpt lat="39.9719567" lon="8.4065417"><ele>19.0</ele><time>2026-04-28T13:08:08.015Z</time></trkpt><trkpt lat="39.971905" lon="8.4063833"><ele>19.0</ele><time>2026-04-28T13:08:09.023Z</time></trkpt><trkpt lat="39.9718567" lon="8.4062317"><ele>19.0</ele><time>2026-04-28T13:08:10.016Z</time></trkpt><trkpt lat="39.9718067" lon="8.4060817"><ele>19.0</ele><time>2026-04-28T13:08:11.017Z</time></trkpt><trkpt lat="39.9717533" lon="8.4059317"><ele>19.0</ele><time>2026-04-28T13:08:12.021Z</time></trkpt><trkpt lat="39.9716917" lon="8.4057817"><ele>19.0</ele><time>2026-04-28T13:08:13.074Z</time></trkpt><trkpt lat="39.97163" lon="8.4056367"><ele>18.75</ele><time>2026-04-28T13:08:14.018Z</time></trkpt><trkpt lat="39.9715633" lon="8.4054933"><ele>18.5</ele><time>2026-04-28T13:08:15.028Z</time></trkpt><trkpt lat="39.9714917" lon="8.4053483"><ele>18.25</ele><time>2026-04-28T13:08:16.021Z</time></trkpt><trkpt lat="39.9714167" lon="8.405205"><ele>18.0</ele><time>2026-04-28T13:08:17.023Z</time></trkpt><trkpt lat="39.97134" lon="8.4050583"><ele>18.0</ele><time>2026-04-28T13:08:18.02Z</time></trkpt><trkpt lat="39.9712633" lon="8.4049117"><ele>18.0</ele><time>2026-04-28T13:08:19.071Z</time></trkpt><trkpt lat="39.9711883" lon="8.4047633"><ele>18.0</ele><time>2026-04-28T13:08:20.017Z</time></trkpt><trkpt lat="39.9711167" lon="8.4046233"><ele>18.0</ele><time>2026-04-28T13:08:21.025Z</time></trkpt><trkpt lat="39.971045" lon="8.4044883"><ele>17.25</ele><time>2026-04-28T13:08:22.014Z</time></trkpt><trkpt lat="39.970975" lon="8.4043533"><ele>16.5</ele><time>2026-04-28T13:08:23.015Z</time></trkpt><trkpt lat="39.9709067" lon="8.404225"><ele>15.75</ele><time>2026-04-28T13:08:24.023Z</time></trkpt><trkpt lat="39.9708433" lon="8.4041017"><ele>15.0</ele><time>2026-04-28T13:08:25.063Z</time></trkpt><trkpt lat="39.970785" lon="8.40399"><ele>14.8</ele><time>2026-04-28T13:08:26.021Z</time></trkpt><trkpt lat="39.97073" lon="8.4038867"><ele>14.6</ele><time>2026-04-28T13:08:27.019Z</time></trkpt><trkpt lat="39.9706783" lon="8.40379"><ele>14.399999999999999</ele><time>2026-04-28T13:08:28.018Z</time></trkpt><trkpt lat="39.9706333" lon="8.403705"><ele>14.2</ele><time>2026-04-28T13:08:29.024Z</time></trkpt><trkpt lat="39.97057" lon="8.4035817"><ele>14.0</ele><time>2026-04-28T13:08:31.071Z</time></trkpt><trkpt lat="39.9705333" lon="8.4035017"><ele>13.833333333333334</ele><time>2026-04-28T13:08:33.022Z</time></trkpt><trkpt lat="39.970495" lon="8.4034183"><ele>13.666666666666668</ele><time>2026-04-28T13:08:38.018Z</time></trkpt><trkpt lat="39.970435" lon="8.4033867"><ele>13.5</ele><time>2026-04-28T13:08:40.021Z</time></trkpt><trkpt lat="39.9703483" lon="8.40342"><ele>13.333333333333332</ele><time>2026-04-28T13:08:42.028Z</time></trkpt><trkpt lat="39.9702867" lon="8.4034583"><ele>13.166666666666666</ele><time>2026-04-28T13:08:43.067Z</time></trkpt><trkpt lat="39.9702217" lon="8.4035083"><ele>13.0</ele><time>2026-04-28T13:08:44.017Z</time></trkpt><trkpt lat="39.9701467" lon="8.4035483"><ele>12.999999999999998</ele><time>2026-04-28T13:08:45.025Z</time></trkpt><trkpt lat="39.9700733" lon="8.4035783"><ele>13.0</ele><time>2026-04-28T13:08:46.015Z</time></trkpt><trkpt lat="39.9699933" lon="8.4036017"><ele>13.0</ele><time>2026-04-28T13:08:47.02Z</time></trkpt><trkpt lat="39.96991" lon="8.4036283"><ele>13.0</ele><time>2026-04-28T13:08:48.021Z</time></trkpt><trkpt lat="39.9698183" lon="8.4036533"><ele>12.999999999999998</ele><time>2026-04-28T13:08:49.071Z</time></trkpt><trkpt lat="39.9697217" lon="8.4036817"><ele>13.0</ele><time>2026-04-28T13:08:50.014Z</time></trkpt><trkpt lat="39.9696283" lon="8.4037083"><ele>13.0</ele><time>2026-04-28T13:08:51.025Z</time></trkpt><trkpt lat="39.96953" lon="8.403725"><ele>13.0</ele><time>2026-04-28T13:08:52.019Z</time></trkpt><trkpt lat="39.969435" lon="8.4037417"><ele>13.0</ele><time>2026-04-28T13:08:53.021Z</time></trkpt><trkpt lat="39.9693283" lon="8.4037483"><ele>13.0</ele><time>2026-04-28T13:08:54.017Z</time></trkpt><trkpt lat="39.9692267" lon="8.4037633"><ele>13.0</ele><time>2026-04-28T13:08:55.083Z</time></trkpt><trkpt lat="39.9691283" lon="8.4037783"><ele>12.999999999999998</ele><time>2026-04-28T13:08:56.017Z</time></trkpt><trkpt lat="39.9690317" lon="8.4037967"><ele>13.0</ele><time>2026-04-28T13:08:57.017Z</time></trkpt><trkpt lat="39.968945" lon="8.4038167"><ele>13.0</ele><time>2026-04-28T13:08:58.021Z</time></trkpt><trkpt lat="39.968865" lon="8.403835"><ele>13.0</ele><time>2026-04-28T13:08:59.023Z</time></trkpt><trkpt lat="39.9687917" lon="8.4038483"><ele>12.999999999999998</ele><time>2026-04-28T13:09:00.02Z</time></trkpt><trkpt lat="39.9687233" lon="8.4038617"><ele>13.0</ele><time>2026-04-28T13:09:01.077Z</time></trkpt><trkpt lat="39.968655" lon="8.403875"><ele>12.999999999999998</ele><time>2026-04-28T13:09:02.016Z</time></trkpt><trkpt lat="39.9685817" lon="8.4038833"><ele>13.0</ele><time>2026-04-28T13:09:03.016Z</time></trkpt><trkpt lat="39.9685033" lon="8.4038967"><ele>13.0</ele><time>2026-04-28T13:09:04.02Z</time></trkpt><trkpt lat="39.9684217" lon="8.40391"><ele>13.0</ele><time>2026-04-28T13:09:05.022Z</time></trkpt><trkpt lat="39.9683383" lon="8.4039233"><ele>12.999999999999998</ele><time>2026-04-28T13:09:06.02Z</time></trkpt><trkpt lat="39.9682533" lon="8.4039383"><ele>13.0</ele><time>2026-04-28T13:09:07.07Z</time></trkpt><trkpt lat="39.9681717" lon="8.4039667"><ele>13.0</ele><time>2026-04-28T13:09:08.021Z</time></trkpt><trkpt lat="39.9680883" lon="8.4040067"><ele>13.0</ele><time>2026-04-28T13:09:09.021Z</time></trkpt><trkpt lat="39.968005" lon="8.4040533"><ele>13.0</ele><time>2026-04-28T13:09:10.018Z</time></trkpt><trkpt lat="39.9679167" lon="8.4041067"><ele>13.0</ele><time>2026-04-28T13:09:11.022Z</time></trkpt><trkpt lat="39.9678167" lon="8.4041617"><ele>13.0</ele><time>2026-04-28T13:09:12.021Z</time></trkpt><trkpt lat="39.9677167" lon="8.4042133"><ele>13.0</ele><time>2026-04-28T13:09:13.065Z</time></trkpt><trkpt lat="39.96762" lon="8.4042733"><ele>13.0</ele><time>2026-04-28T13:09:14.021Z</time></trkpt><trkpt lat="39.9675217" lon="8.4043367"><ele>13.0</ele><time>2026-04-28T13:09:15.026Z</time></trkpt><trkpt lat="39.96743" lon="8.40441"><ele>13.0</ele><time>2026-04-28T13:09:16.02Z</time></trkpt><trkpt lat="39.96734" lon="8.404485"><ele>13.0</ele><time>2026-04-28T13:09:17.03Z</time></trkpt><trkpt lat="39.9672533" lon="8.40456"><ele>13.0</ele><time>2026-04-28T13:09:18.019Z</time></trkpt><trkpt lat="39.9671717" lon="8.4046383"><ele>13.0</ele><time>2026-04-28T13:09:19.068Z</time></trkpt><trkpt lat="39.9670867" lon="8.4047083"><ele>13.0</ele><time>2026-04-28T13:09:20.018Z</time></trkpt><trkpt lat="39.967005" lon="8.404775"><ele>13.0</ele><time>2026-04-28T13:09:21.022Z</time></trkpt><trkpt lat="39.9669217" lon="8.4048383"><ele>13.0</ele><time>2026-04-28T13:09:22.016Z</time></trkpt><trkpt lat="39.9668433" lon="8.4048983"><ele>13.2</ele><time>2026-04-28T13:09:23.018Z</time></trkpt><trkpt lat="39.966765" lon="8.404965"><ele>13.4</ele><time>2026-04-28T13:09:24.019Z</time></trkpt><trkpt lat="39.9666917" lon="8.4050333"><ele>13.599999999999998</ele><time>2026-04-28T13:09:25.087Z</time></trkpt><trkpt lat="39.9666133" lon="8.4051"><ele>13.799999999999999</ele><time>2026-04-28T13:09:26.014Z</time></trkpt><trkpt lat="39.966535" lon="8.4051683"><ele>14.0</ele><time>2026-04-28T13:09:27.019Z</time></trkpt><trkpt lat="39.96646" lon="8.4052417"><ele>14.0</ele><time>2026-04-28T13:09:28.021Z</time></trkpt><trkpt lat="39.966385" lon="8.4053183"><ele>13.999999999999998</ele><time>2026-04-28T13:09:29.018Z</time></trkpt><trkpt lat="39.9663117" lon="8.4053983"><ele>13.999999999999998</ele><time>2026-04-28T13:09:30.016Z</time></trkpt><trkpt lat="39.9662367" lon="8.4054817"><ele>14.0</ele><time>2026-04-28T13:09:31.081Z</time></trkpt><trkpt lat="39.96616" lon="8.4055633"><ele>14.0</ele><time>2026-04-28T13:09:32.022Z</time></trkpt><trkpt lat="39.9660867" lon="8.4056517"><ele>14.2</ele><time>2026-04-28T13:09:33.018Z</time></trkpt><trkpt lat="39.9660117" lon="8.4057417"><ele>14.399999999999999</ele><time>2026-04-28T13:09:34.016Z</time></trkpt><trkpt lat="39.9659383" lon="8.4058317"><ele>14.6</ele><time>2026-04-28T13:09:35.02Z</time></trkpt><trkpt lat="39.9658683" lon="8.4059183"><ele>14.8</ele><time>2026-04-28T13:09:36.018Z</time></trkpt><trkpt lat="39.9658" lon="8.4060033"><ele>15.0</ele><time>2026-04-28T13:09:37.07Z</time></trkpt><trkpt lat="39.9657283" lon="8.4060817"><ele>15.0</ele><time>2026-04-28T13:09:38.017Z</time></trkpt><trkpt lat="39.9656617" lon="8.4061667"><ele>15.0</ele><time>2026-04-28T13:09:39.019Z</time></trkpt><trkpt lat="39.9655917" lon="8.4062483"><ele>15.0</ele><time>2026-04-28T13:09:40.021Z</time></trkpt><trkpt lat="39.96552" lon="8.40632"><ele>15.0</ele><time>2026-04-28T13:09:41.022Z</time></trkpt><trkpt lat="39.96544" lon="8.4063933"><ele>15.0</ele><time>2026-04-28T13:09:42.02Z</time></trkpt><trkpt lat="39.9653617" lon="8.4064833"><ele>15.75</ele><time>2026-04-28T13:09:43.075Z</time></trkpt><trkpt lat="39.96528" lon="8.406585"><ele>16.5</ele><time>2026-04-28T13:09:44.019Z</time></trkpt><trkpt lat="39.9651983" lon="8.4066917"><ele>17.25</ele><time>2026-04-28T13:09:45.018Z</time></trkpt><trkpt lat="39.96512" lon="8.406805"><ele>18.0</ele><time>2026-04-28T13:09:46.019Z</time></trkpt><trkpt lat="39.9650467" lon="8.4069183"><ele>17.8</ele><time>2026-04-28T13:09:47.023Z</time></trkpt><trkpt lat="39.964975" lon="8.407025"><ele>17.6</ele><time>2026-04-28T13:09:48.021Z</time></trkpt><trkpt lat="39.9649083" lon="8.407135"><ele>17.4</ele><time>2026-04-28T13:09:49.074Z</time></trkpt><trkpt lat="39.9648417" lon="8.40724"><ele>17.2</ele><time>2026-04-28T13:09:50.017Z</time></trkpt><trkpt lat="39.964775" lon="8.4073483"><ele>17.0</ele><time>2026-04-28T13:09:51.02Z</time></trkpt><trkpt lat="39.9647033" lon="8.4074533"><ele>17.4</ele><time>2026-04-28T13:09:52.014Z</time></trkpt><trkpt lat="39.9646317" lon="8.4075617"><ele>17.799999999999997</ele><time>2026-04-28T13:09:53.016Z</time></trkpt><trkpt lat="39.96456" lon="8.4076717"><ele>18.2</ele><time>2026-04-28T13:09:54.014Z</time></trkpt><trkpt lat="39.9644833" lon="8.4077783"><ele>18.599999999999998</ele><time>2026-04-28T13:09:55.087Z</time></trkpt><trkpt lat="39.9644067" lon="8.4078883"><ele>19.0</ele><time>2026-04-28T13:09:56.017Z</time></trkpt><trkpt lat="39.9643317" lon="8.407995"><ele>19.2</ele><time>2026-04-28T13:09:57.019Z</time></trkpt><trkpt lat="39.9642583" lon="8.4080967"><ele>19.4</ele><time>2026-04-28T13:09:58.016Z</time></trkpt><trkpt lat="39.9641833" lon="8.408195"><ele>19.6</ele><time>2026-04-28T13:09:59.018Z</time></trkpt><trkpt lat="39.9641067" lon="8.4082867"><ele>19.8</ele><time>2026-04-28T13:10:00.019Z</time></trkpt><trkpt lat="39.964025" lon="8.4083767"><ele>20.0</ele><time>2026-04-28T13:10:01.074Z</time></trkpt><trkpt lat="39.9639483" lon="8.40846"><ele>20.4</ele><time>2026-04-28T13:10:02.017Z</time></trkpt><trkpt lat="39.963865" lon="8.4085567"><ele>20.8</ele><time>2026-04-28T13:10:03.016Z</time></trkpt><trkpt lat="39.9637833" lon="8.4086483"><ele>21.200000000000003</ele><time>2026-04-28T13:10:04.022Z</time></trkpt><trkpt lat="39.9636983" lon="8.40874"><ele>21.6</ele><time>2026-04-28T13:10:05.017Z</time></trkpt><trkpt lat="39.9636217" lon="8.4088317"><ele>22.0</ele><time>2026-04-28T13:10:06.013Z</time></trkpt><trkpt lat="39.96354" lon="8.4089117"><ele>22.200000000000003</ele><time>2026-04-28T13:10:07.078Z</time></trkpt><trkpt lat="39.963455" lon="8.4089817"><ele>22.4</ele><time>2026-04-28T13:10:08.014Z</time></trkpt><trkpt lat="39.963365" lon="8.4090433"><ele>22.6</ele><time>2026-04-28T13:10:09.016Z</time></trkpt><trkpt lat="39.9632733" lon="8.4091033"><ele>22.799999999999997</ele><time>2026-04-28T13:10:10.02Z</time></trkpt><trkpt lat="39.9631767" lon="8.4091583"><ele>23.0</ele><time>2026-04-28T13:10:11.025Z</time></trkpt><trkpt lat="39.963075" lon="8.40921"><ele>22.599999999999998</ele><time>2026-04-28T13:10:12.016Z</time></trkpt><trkpt lat="39.9629733" lon="8.4092717"><ele>22.2</ele><time>2026-04-28T13:10:13.076Z</time></trkpt><trkpt lat="39.9628733" lon="8.4093317"><ele>21.8</ele><time>2026-04-28T13:10:14.022Z</time></trkpt><trkpt lat="39.962785" lon="8.4093883"><ele>21.4</ele><time>2026-04-28T13:10:15.021Z</time></trkpt><trkpt lat="39.9627033" lon="8.4094417"><ele>21.0</ele><time>2026-04-28T13:10:16.02Z</time></trkpt><trkpt lat="39.9626233" lon="8.4094917"><ele>21.0</ele><time>2026-04-28T13:10:17.025Z</time></trkpt><trkpt lat="39.9625483" lon="8.409545"><ele>21.0</ele><time>2026-04-28T13:10:18.017Z</time></trkpt><trkpt lat="39.9624767" lon="8.4095983"><ele>21.0</ele><time>2026-04-28T13:10:19.075Z</time></trkpt><trkpt lat="39.9624117" lon="8.4096533"><ele>21.0</ele><time>2026-04-28T13:10:20.017Z</time></trkpt><trkpt lat="39.96235" lon="8.4097133"><ele>21.0</ele><time>2026-04-28T13:10:21.019Z</time></trkpt><trkpt lat="39.962295" lon="8.409785"><ele>21.0</ele><time>2026-04-28T13:10:22.018Z</time></trkpt><trkpt lat="39.9622483" lon="8.4098733"><ele>21.166666666666668</ele><time>2026-04-28T13:10:23.019Z</time></trkpt><trkpt lat="39.9622033" lon="8.4099633"><ele>21.333333333333332</ele><time>2026-04-28T13:10:24.022Z</time></trkpt><trkpt lat="39.962155" lon="8.410045"><ele>21.5</ele><time>2026-04-28T13:10:25.083Z</time></trkpt><trkpt lat="39.9620967" lon="8.410135"><ele>21.666666666666664</ele><time>2026-04-28T13:10:26.016Z</time></trkpt><trkpt lat="39.9620283" lon="8.4102133"><ele>21.833333333333332</ele><time>2026-04-28T13:10:27.024Z</time></trkpt><trkpt lat="39.9619533" lon="8.4102667"><ele>22.0</ele><time>2026-04-28T13:10:28.022Z</time></trkpt><trkpt lat="39.96187" lon="8.4103183"><ele>22.0</ele><time>2026-04-28T13:10:29.017Z</time></trkpt><trkpt lat="39.9617817" lon="8.4103617"><ele>22.0</ele><time>2026-04-28T13:10:30.02Z</time></trkpt><trkpt lat="39.961685" lon="8.4104033"><ele>22.0</ele><time>2026-04-28T13:10:31.075Z</time></trkpt><trkpt lat="39.9615767" lon="8.410455"><ele>22.0</ele><time>2026-04-28T13:10:32.015Z</time></trkpt><trkpt lat="39.9614567" lon="8.4105133"><ele>22.0</ele><time>2026-04-28T13:10:33.027Z</time></trkpt><trkpt lat="39.96133" lon="8.410575"><ele>22.400000000000002</ele><time>2026-04-28T13:10:34.021Z</time></trkpt><trkpt lat="39.9612117" lon="8.4106383"><ele>22.8</ele><time>2026-04-28T13:10:35.019Z</time></trkpt><trkpt lat="39.9611083" lon="8.4106967"><ele>23.2</ele><time>2026-04-28T13:10:36.028Z</time></trkpt><trkpt lat="39.961015" lon="8.41075"><ele>23.6</ele><time>2026-04-28T13:10:37.075Z</time></trkpt><trkpt lat="39.9609283" lon="8.410795"><ele>24.0</ele><time>2026-04-28T13:10:38.018Z</time></trkpt><trkpt lat="39.9608417" lon="8.4108417"><ele>24.0</ele><time>2026-04-28T13:10:39.021Z</time></trkpt><trkpt lat="39.9607467" lon="8.4108883"><ele>24.0</ele><time>2026-04-28T13:10:40.02Z</time></trkpt><trkpt lat="39.9606567" lon="8.41093"><ele>24.0</ele><time>2026-04-28T13:10:41.016Z</time></trkpt><trkpt lat="39.9605667" lon="8.41097"><ele>24.0</ele><time>2026-04-28T13:10:42.026Z</time></trkpt><trkpt lat="39.9604783" lon="8.4110067"><ele>24.0</ele><time>2026-04-28T13:10:43.07Z</time></trkpt><trkpt lat="39.9603867" lon="8.41104"><ele>24.0</ele><time>2026-04-28T13:10:44.017Z</time></trkpt><trkpt lat="39.9602917" lon="8.411065"><ele>24.0</ele><time>2026-04-28T13:10:45.022Z</time></trkpt><trkpt lat="39.9601917" lon="8.4110833"><ele>24.0</ele><time>2026-04-28T13:10:46.016Z</time></trkpt><trkpt lat="39.9600883" lon="8.4110933"><ele>24.0</ele><time>2026-04-28T13:10:47.021Z</time></trkpt><trkpt lat="39.9599917" lon="8.4110967"><ele>24.0</ele><time>2026-04-28T13:10:48.016Z</time></trkpt><trkpt lat="39.9599017" lon="8.4110967"><ele>23.799999999999997</ele><time>2026-04-28T13:10:49.07Z</time></trkpt><trkpt lat="39.959825" lon="8.4110917"><ele>23.599999999999998</ele><time>2026-04-28T13:10:50.017Z</time></trkpt><trkpt lat="39.9597333" lon="8.41107"><ele>23.4</ele><time>2026-04-28T13:10:52.018Z</time></trkpt><trkpt lat="39.9596667" lon="8.411015"><ele>23.2</ele><time>2026-04-28T13:10:55.068Z</time></trkpt><trkpt lat="39.9596317" lon="8.4109167"><ele>23.0</ele><time>2026-04-28T13:10:57.02Z</time></trkpt><trkpt lat="39.9596233" lon="8.41076"><ele>23.0</ele><time>2026-04-28T13:10:59.028Z</time></trkpt><trkpt lat="39.9596333" lon="8.4106683"><ele>23.0</ele><time>2026-04-28T13:11:00.021Z</time></trkpt><trkpt lat="39.95966" lon="8.41058"><ele>23.0</ele><time>2026-04-28T13:11:01.071Z</time></trkpt><trkpt lat="39.959695" lon="8.41049"><ele>23.0</ele><time>2026-04-28T13:11:02.037Z</time></trkpt><trkpt lat="39.9597283" lon="8.4104017"><ele>23.0</ele><time>2026-04-28T13:11:03.024Z</time></trkpt><trkpt lat="39.959755" lon="8.4103217"><ele>23.0</ele><time>2026-04-28T13:11:04.018Z</time></trkpt><trkpt lat="39.9598117" lon="8.410185"><ele>22.25</ele><time>2026-04-28T13:11:06.021Z</time></trkpt><trkpt lat="39.95987" lon="8.4100483"><ele>21.5</ele><time>2026-04-28T13:11:08.015Z</time></trkpt><trkpt lat="39.95989" lon="8.4099083"><ele>20.75</ele><time>2026-04-28T13:11:10.019Z</time></trkpt><trkpt lat="39.959885" lon="8.40977"><ele>20.0</ele><time>2026-04-28T13:11:12.017Z</time></trkpt><trkpt lat="39.95983" lon="8.4096333"><ele>19.333333333333336</ele><time>2026-04-28T13:11:14.013Z</time></trkpt><trkpt lat="39.9597817" lon="8.40957"><ele>18.666666666666668</ele><time>2026-04-28T13:11:15.021Z</time></trkpt><trkpt lat="39.9597183" lon="8.4095067"><ele>18.0</ele><time>2026-04-28T13:11:16.021Z</time></trkpt><trkpt lat="39.9596483" lon="8.409445"><ele>17.333333333333332</ele><time>2026-04-28T13:11:17.02Z</time></trkpt><trkpt lat="39.9595767" lon="8.4093867"><ele>16.666666666666664</ele><time>2026-04-28T13:11:18.019Z</time></trkpt><trkpt lat="39.9595017" lon="8.40932"><ele>16.0</ele><time>2026-04-28T13:11:19.077Z</time></trkpt><trkpt lat="39.9594217" lon="8.4092517"><ele>16.0</ele><time>2026-04-28T13:11:20.017Z</time></trkpt><trkpt lat="39.9593467" lon="8.4091883"><ele>16.0</ele><time>2026-04-28T13:11:21.018Z</time></trkpt><trkpt lat="39.9592717" lon="8.4091217"><ele>16.0</ele><time>2026-04-28T13:11:22.018Z</time></trkpt><trkpt lat="39.9591933" lon="8.40905"><ele>16.0</ele><time>2026-04-28T13:11:23.02Z</time></trkpt><trkpt lat="39.9591117" lon="8.40898"><ele>16.0</ele><time>2026-04-28T13:11:24.02Z</time></trkpt><trkpt lat="39.9590317" lon="8.4089117"><ele>16.166666666666664</ele><time>2026-04-28T13:11:25.082Z</time></trkpt><trkpt lat="39.9589517" lon="8.4088467"><ele>16.333333333333332</ele><time>2026-04-28T13:11:26.019Z</time></trkpt><trkpt lat="39.9588783" lon="8.408785"><ele>16.5</ele><time>2026-04-28T13:11:27.021Z</time></trkpt><trkpt lat="39.9588083" lon="8.408725"><ele>16.666666666666668</ele><time>2026-04-28T13:11:28.016Z</time></trkpt><trkpt lat="39.9587333" lon="8.4086667"><ele>16.833333333333336</ele><time>2026-04-28T13:11:29.024Z</time></trkpt><trkpt lat="39.95866" lon="8.40861"><ele>17.0</ele><time>2026-04-28T13:11:30.022Z</time></trkpt><trkpt lat="39.9585867" lon="8.40855"><ele>16.666666666666668</ele><time>2026-04-28T13:11:31.073Z</time></trkpt><trkpt lat="39.9585167" lon="8.4084867"><ele>16.333333333333336</ele><time>2026-04-28T13:11:32.017Z</time></trkpt><trkpt lat="39.9584433" lon="8.4084183"><ele>16.0</ele><time>2026-04-28T13:11:33.019Z</time></trkpt><trkpt lat="39.9583733" lon="8.4083433"><ele>15.666666666666668</ele><time>2026-04-28T13:11:34.024Z</time></trkpt><trkpt lat="39.958305" lon="8.4082683"><ele>15.333333333333334</ele><time>2026-04-28T13:11:35.016Z</time></trkpt><trkpt lat="39.9582383" lon="8.4081933"><ele>15.0</ele><time>2026-04-28T13:11:36.02Z</time></trkpt><trkpt lat="39.9581733" lon="8.4081233"><ele>15.0</ele><time>2026-04-28T13:11:37.065Z</time></trkpt><trkpt lat="39.95812" lon="8.40806"><ele>15.0</ele><time>2026-04-28T13:11:38.015Z</time></trkpt><trkpt lat="39.9580783" lon="8.4079983"><ele>15.0</ele><time>2026-04-28T13:11:39.024Z</time></trkpt><trkpt lat="39.958015" lon="8.4078833"><ele>15.0</ele><time>2026-04-28T13:11:41.02Z</time></trkpt><trkpt lat="39.9579617" lon="8.4077667"><ele>15.0</ele><time>2026-04-28T13:11:43.064Z</time></trkpt><trkpt lat="39.957915" lon="8.4076317"><ele>14.8</ele><time>2026-04-28T13:11:45.016Z</time></trkpt><trkpt lat="39.9578617" lon="8.4074817"><ele>14.6</ele><time>2026-04-28T13:11:47.02Z</time></trkpt><trkpt lat="39.95784" lon="8.407385"><ele>14.399999999999999</ele><time>2026-04-28T13:11:48.027Z</time></trkpt><trkpt lat="39.9578283" lon="8.4072817"><ele>14.2</ele><time>2026-04-28T13:11:49.066Z</time></trkpt><trkpt lat="39.95783" lon="8.4071733"><ele>14.0</ele><time>2026-04-28T13:11:50.017Z</time></trkpt><trkpt lat="39.9578367" lon="8.407065"><ele>14.000000000000002</ele><time>2026-04-28T13:11:51.017Z</time></trkpt><trkpt lat="39.9578433" lon="8.4069667"><ele>14.0</ele><time>2026-04-28T13:11:52.013Z</time></trkpt><trkpt lat="39.957855" lon="8.4068817"><ele>14.0</ele><time>2026-04-28T13:11:53.015Z</time></trkpt><trkpt lat="39.9579017" lon="8.4067267"><ele>14.0</ele><time>2026-04-28T13:11:55.077Z</time></trkpt><trkpt lat="39.9579417" lon="8.4066467"><ele>14.000000000000002</ele><time>2026-04-28T13:11:56.016Z</time></trkpt><trkpt lat="39.9579783" lon="8.4065667"><ele>14.0</ele><time>2026-04-28T13:11:57.018Z</time></trkpt><trkpt lat="39.9580067" lon="8.4064783"><ele>14.0</ele><time>2026-04-28T13:11:58.024Z</time></trkpt><trkpt lat="39.9580383" lon="8.4063983"><ele>13.999999999999998</ele><time>2026-04-28T13:11:59.024Z</time></trkpt><trkpt lat="39.958085" lon="8.4062567"><ele>13.999999999999998</ele><time>2026-04-28T13:12:01.062Z</time></trkpt><trkpt lat="39.9581517" lon="8.406115"><ele>14.0</ele><time>2026-04-28T13:12:03.021Z</time></trkpt><trkpt lat="39.95819" lon="8.4060483"><ele>14.0</ele><time>2026-04-28T13:12:04.015Z</time></trkpt><trkpt lat="39.95825" lon="8.405935"><ele>13.666666666666668</ele><time>2026-04-28T13:12:06.022Z</time></trkpt><trkpt lat="39.958305" lon="8.4058367"><ele>13.333333333333334</ele><time>2026-04-28T13:12:08.017Z</time></trkpt><trkpt lat="39.958375" lon="8.405795"><ele>13.0</ele><time>2026-04-28T13:12:10.021Z</time></trkpt><trkpt lat="39.9584817" lon="8.405805"><ele>12.666666666666668</ele><time>2026-04-28T13:12:12.017Z</time></trkpt><trkpt lat="39.95855" lon="8.40581"><ele>12.333333333333334</ele><time>2026-04-28T13:12:13.068Z</time></trkpt><trkpt lat="39.958625" lon="8.40581"><ele>12.0</ele><time>2026-04-28T13:12:14.019Z</time></trkpt><trkpt lat="39.9587117" lon="8.4057983"><ele>12.0</ele><time>2026-04-28T13:12:15.022Z</time></trkpt><trkpt lat="39.9588" lon="8.405785"><ele>12.0</ele><time>2026-04-28T13:12:16.016Z</time></trkpt><trkpt lat="39.958895" lon="8.4057767"><ele>12.0</ele><time>2026-04-28T13:12:17.017Z</time></trkpt><trkpt lat="39.9589933" lon="8.4057633"><ele>12.0</ele><time>2026-04-28T13:12:18.013Z</time></trkpt><trkpt lat="39.9590933" lon="8.4057517"><ele>12.0</ele><time>2026-04-28T13:12:19.065Z</time></trkpt><trkpt lat="39.9591917" lon="8.4057417"><ele>12.399999999999999</ele><time>2026-04-28T13:12:20.018Z</time></trkpt><trkpt lat="39.959295" lon="8.4057317"><ele>12.799999999999999</ele><time>2026-04-28T13:12:21.018Z</time></trkpt><trkpt lat="39.9593983" lon="8.405715"><ele>13.2</ele><time>2026-04-28T13:12:22.021Z</time></trkpt><trkpt lat="39.9594983" lon="8.405695"><ele>13.6</ele><time>2026-04-28T13:12:23.022Z</time></trkpt><trkpt lat="39.9595967" lon="8.4056667"><ele>14.0</ele><time>2026-04-28T13:12:24.024Z</time></trkpt><trkpt lat="39.959695" lon="8.4056367"><ele>14.0</ele><time>2026-04-28T13:12:25.08Z</time></trkpt><trkpt lat="39.9597967" lon="8.405605"><ele>13.999999999999998</ele><time>2026-04-28T13:12:26.016Z</time></trkpt><trkpt lat="39.9599" lon="8.4055717"><ele>13.999999999999998</ele><time>2026-04-28T13:12:27.016Z</time></trkpt><trkpt lat="39.9599967" lon="8.4055483"><ele>14.0</ele><time>2026-04-28T13:12:28.019Z</time></trkpt><trkpt lat="39.960095" lon="8.4055267"><ele>14.0</ele><time>2026-04-28T13:12:29.02Z</time></trkpt><trkpt lat="39.9602017" lon="8.4055017"><ele>14.399999999999999</ele><time>2026-04-28T13:12:30.019Z</time></trkpt><trkpt lat="39.9603033" lon="8.40548"><ele>14.799999999999999</ele><time>2026-04-28T13:12:31.065Z</time></trkpt><trkpt lat="39.9604067" lon="8.4054617"><ele>15.200000000000001</ele><time>2026-04-28T13:12:32.021Z</time></trkpt><trkpt lat="39.9605117" lon="8.405445"><ele>15.600000000000001</ele><time>2026-04-28T13:12:33.021Z</time></trkpt><trkpt lat="39.960615" lon="8.40543"><ele>16.0</ele><time>2026-04-28T13:12:34.018Z</time></trkpt><trkpt lat="39.96072" lon="8.4054117"><ele>16.0</ele><time>2026-04-28T13:12:35.017Z</time></trkpt><trkpt lat="39.9608233" lon="8.4053967"><ele>16.0</ele><time>2026-04-28T13:12:36.021Z</time></trkpt><trkpt lat="39.960925" lon="8.40538"><ele>16.0</ele><time>2026-04-28T13:12:37.075Z</time></trkpt><trkpt lat="39.961025" lon="8.4053667"><ele>16.0</ele><time>2026-04-28T13:12:38.014Z</time></trkpt><trkpt lat="39.9611217" lon="8.4053533"><ele>16.0</ele><time>2026-04-28T13:12:39.022Z</time></trkpt><trkpt lat="39.9612233" lon="8.4053417"><ele>16.0</ele><time>2026-04-28T13:12:40.017Z</time></trkpt><trkpt lat="39.9613283" lon="8.405325"><ele>16.0</ele><time>2026-04-28T13:12:41.014Z</time></trkpt><trkpt lat="39.9614333" lon="8.405305"><ele>16.0</ele><time>2026-04-28T13:12:42.019Z</time></trkpt><trkpt lat="39.9615367" lon="8.4052933"><ele>16.0</ele><time>2026-04-28T13:12:43.071Z</time></trkpt><trkpt lat="39.9616467" lon="8.4052833"><ele>16.0</ele><time>2026-04-28T13:12:44.019Z</time></trkpt><trkpt lat="39.96176" lon="8.40527"><ele>16.0</ele><time>2026-04-28T13:12:45.023Z</time></trkpt><trkpt lat="39.9618683" lon="8.4052583"><ele>16.0</ele><time>2026-04-28T13:12:46.015Z</time></trkpt><trkpt lat="39.9619767" lon="8.4052467"><ele>16.0</ele><time>2026-04-28T13:12:47.018Z</time></trkpt><trkpt lat="39.9620833" lon="8.4052367"><ele>16.0</ele><time>2026-04-28T13:12:48.018Z</time></trkpt><trkpt lat="39.9621817" lon="8.4052267"><ele>16.0</ele><time>2026-04-28T13:12:49.065Z</time></trkpt><trkpt lat="39.9622783" lon="8.4052117"><ele>15.999999999999998</ele><time>2026-04-28T13:12:50.017Z</time></trkpt><trkpt lat="39.962365" lon="8.4051933"><ele>16.0</ele><time>2026-04-28T13:12:51.025Z</time></trkpt><trkpt lat="39.9624383" lon="8.4051783"><ele>16.0</ele><time>2026-04-28T13:12:52.019Z</time></trkpt><trkpt lat="39.9625017" lon="8.4051617"><ele>16.0</ele><time>2026-04-28T13:12:53.019Z</time></trkpt><trkpt lat="39.9625933" lon="8.4051183"><ele>15.999999999999998</ele><time>2026-04-28T13:12:55.077Z</time></trkpt><trkpt lat="39.9626667" lon="8.405085"><ele>16.0</ele><time>2026-04-28T13:12:57.025Z</time></trkpt><trkpt lat="39.9627533" lon="8.40502"><ele>15.499999999999998</ele><time>2026-04-28T13:12:59.027Z</time></trkpt><trkpt lat="39.9628183" lon="8.4049033"><ele>15.0</ele><time>2026-04-28T13:13:01.064Z</time></trkpt><trkpt lat="39.9628567" lon="8.404765"><ele>14.5</ele><time>2026-04-28T13:13:03.018Z</time></trkpt><trkpt lat="39.9628533" lon="8.404675"><ele>14.0</ele><time>2026-04-28T13:13:04.018Z</time></trkpt><trkpt lat="39.96285" lon="8.4045867"><ele>13.499999999999998</ele><time>2026-04-28T13:13:05.015Z</time></trkpt><trkpt lat="39.9628483" lon="8.404495"><ele>13.0</ele><time>2026-04-28T13:13:06.022Z</time></trkpt><trkpt lat="39.96284" lon="8.4044133"><ele>12.600000000000001</ele><time>2026-04-28T13:13:07.065Z</time></trkpt><trkpt lat="39.962825" lon="8.4042933"><ele>12.200000000000001</ele><time>2026-04-28T13:13:09.023Z</time></trkpt><trkpt lat="39.9627983" lon="8.404205"><ele>11.8</ele><time>2026-04-28T13:13:11.016Z</time></trkpt><trkpt lat="39.9627683" lon="8.404085"><ele>11.4</ele><time>2026-04-28T13:13:13.066Z</time></trkpt><trkpt lat="39.9627283" lon="8.40395"><ele>11.0</ele><time>2026-04-28T13:13:15.021Z</time></trkpt><trkpt lat="39.9626933" lon="8.40379"><ele>10.333333333333332</ele><time>2026-04-28T13:13:17.015Z</time></trkpt><trkpt lat="39.962685" lon="8.403705"><ele>9.666666666666666</ele><time>2026-04-28T13:13:18.019Z</time></trkpt><trkpt lat="39.962665" lon="8.4035567"><ele>9.0</ele><time>2026-04-28T13:13:20.015Z</time></trkpt><trkpt lat="39.962645" lon="8.4034383"><ele>8.333333333333334</ele><time>2026-04-28T13:13:22.02Z</time></trkpt><trkpt lat="39.9626283" lon="8.4033283"><ele>7.666666666666667</ele><time>2026-04-28T13:13:24.024Z</time></trkpt><trkpt lat="39.9625767" lon="8.4032417"><ele>7.0</ele><time>2026-04-28T13:13:26.018Z</time></trkpt><trkpt lat="39.9624917" lon="8.40321"><ele>7.0</ele><time>2026-04-28T13:13:28.015Z</time></trkpt><trkpt lat="39.96238" lon="8.4032567"><ele>6.999999999999999</ele><time>2026-04-28T13:13:30.021Z</time></trkpt><trkpt lat="39.9622783" lon="8.4033033"><ele>6.999999999999999</ele><time>2026-04-28T13:13:32.014Z</time></trkpt><trkpt lat="39.9621733" lon="8.4033433"><ele>7.0</ele><time>2026-04-28T13:13:34.016Z</time></trkpt><trkpt lat="39.9620733" lon="8.40339"><ele>7.0</ele><time>2026-04-28T13:13:36.016Z</time></trkpt><trkpt lat="39.9619667" lon="8.40343"><ele>7.0</ele><time>2026-04-28T13:13:38.015Z</time></trkpt><trkpt lat="39.961845" lon="8.4034617"><ele>7.0</ele><time>2026-04-28T13:13:40.019Z</time></trkpt><trkpt lat="39.9617333" lon="8.403505"><ele>7.0</ele><time>2026-04-28T13:13:42.023Z</time></trkpt><trkpt lat="39.9616333" lon="8.4035733"><ele>7.0</ele><time>2026-04-28T13:13:44.016Z</time></trkpt><trkpt lat="39.96157" lon="8.4036717"><ele>7.500000000000001</ele><time>2026-04-28T13:13:46.02Z</time></trkpt><trkpt lat="39.9615183" lon="8.4037417"><ele>8.0</ele><time>2026-04-28T13:13:48.019Z</time></trkpt><trkpt lat="39.9614433" lon="8.4037817"><ele>8.5</ele><time>2026-04-28T13:13:51.015Z</time></trkpt><trkpt lat="39.9613683" lon="8.4037833"><ele>9.0</ele><time>2026-04-28T13:13:54.023Z</time></trkpt><trkpt lat="39.9612883" lon="8.4037817"><ele>9.5</ele><time>2026-04-28T13:13:57.023Z</time></trkpt><trkpt lat="39.96122" lon="8.4038183"><ele>10.0</ele><time>2026-04-28T13:13:59.016Z</time></trkpt><trkpt lat="39.96115" lon="8.4038833"><ele>10.5</ele><time>2026-04-28T13:14:01.067Z</time></trkpt><trkpt lat="39.961075" lon="8.40394"><ele>11.0</ele><time>2026-04-28T13:14:03.031Z</time></trkpt><trkpt lat="39.960995" lon="8.4039683"><ele>11.5</ele><time>2026-04-28T13:14:05.019Z</time></trkpt><trkpt lat="39.960915" lon="8.403975"><ele>12.0</ele><time>2026-04-28T13:14:07.062Z</time></trkpt><trkpt lat="39.9608317" lon="8.4040067"><ele>12.499999999999998</ele><time>2026-04-28T13:14:09.02Z</time></trkpt><trkpt lat="39.9607633" lon="8.4040467"><ele>13.0</ele><time>2026-04-28T13:14:11.019Z</time></trkpt><trkpt lat="39.9606883" lon="8.4040567"><ele>12.999999999999998</ele><time>2026-04-28T13:14:34.016Z</time></trkpt><trkpt lat="39.96066" lon="8.4039717"><ele>13.0</ele><time>2026-04-28T13:14:37.064Z</time></trkpt><trkpt lat="39.9606067" lon="8.4038933"><ele>13.0</ele><time>2026-04-28T13:14:40.018Z</time></trkpt><trkpt lat="39.9606183" lon="8.40377"><ele>13.0</ele><time>2026-04-28T13:14:43.064Z</time></trkpt><trkpt lat="39.9606383" lon="8.4036617"><ele>12.999999999999998</ele><time>2026-04-28T13:14:45.017Z</time></trkpt><trkpt lat="39.9606483" lon="8.4035417"><ele>13.0</ele><time>2026-04-28T13:14:47.015Z</time></trkpt><trkpt lat="39.96063" lon="8.40341"><ele>12.4</ele><time>2026-04-28T13:14:49.067Z</time></trkpt><trkpt lat="39.960595" lon="8.40327"><ele>11.8</ele><time>2026-04-28T13:14:51.02Z</time></trkpt><trkpt lat="39.9605667" lon="8.403135"><ele>11.2</ele><time>2026-04-28T13:14:53.014Z</time></trkpt><trkpt lat="39.9605433" lon="8.4030067"><ele>10.6</ele><time>2026-04-28T13:14:55.08Z</time></trkpt><trkpt lat="39.9605183" lon="8.4028767"><ele>10.0</ele><time>2026-04-28T13:14:57.022Z</time></trkpt><trkpt lat="39.9605183" lon="8.4027717"><ele>8.8</ele><time>2026-04-28T13:14:59.018Z</time></trkpt><trkpt lat="39.9605433" lon="8.4026617"><ele>7.6</ele><time>2026-04-28T13:15:01.068Z</time></trkpt><trkpt lat="39.960565" lon="8.4025467"><ele>6.4</ele><time>2026-04-28T13:15:03.02Z</time></trkpt><trkpt lat="39.9605767" lon="8.4024183"><ele>5.2</ele><time>2026-04-28T13:15:05.018Z</time></trkpt><trkpt lat="39.9605717" lon="8.4022933"><ele>4.0</ele><time>2026-04-28T13:15:07.062Z</time></trkpt><trkpt lat="39.9605533" lon="8.4021933"><ele>3.833333333333333</ele><time>2026-04-28T13:15:09.017Z</time></trkpt><trkpt lat="39.96055" lon="8.4020833"><ele>3.6666666666666665</ele><time>2026-04-28T13:15:11.017Z</time></trkpt><trkpt lat="39.9605567" lon="8.401965"><ele>3.5</ele><time>2026-04-28T13:15:13.067Z</time></trkpt><trkpt lat="39.9605617" lon="8.4018517"><ele>3.333333333333333</ele><time>2026-04-28T13:15:15.015Z</time></trkpt><trkpt lat="39.9605533" lon="8.40173"><ele>3.1666666666666665</ele><time>2026-04-28T13:15:17.022Z</time></trkpt><trkpt lat="39.960555" lon="8.401615"><ele>3.0</ele><time>2026-04-28T13:15:19.074Z</time></trkpt><trkpt lat="39.96055" lon="8.4015"><ele>3.0</ele><time>2026-04-28T13:15:21.017Z</time></trkpt><trkpt lat="39.9605233" lon="8.4013983"><ele>3.0</ele><time>2026-04-28T13:15:23.022Z</time></trkpt><trkpt lat="39.9604667" lon="8.4013133"><ele>3.0</ele><time>2026-04-28T13:15:25.067Z</time></trkpt><trkpt lat="39.9603967" lon="8.401255"><ele>3.0</ele><time>2026-04-28T13:15:27.018Z</time></trkpt><trkpt lat="39.96031" lon="8.401205"><ele>3.0</ele><time>2026-04-28T13:15:29.014Z</time></trkpt><trkpt lat="39.96021" lon="8.4011667"><ele>2.5</ele><time>2026-04-28T13:15:31.068Z</time></trkpt><trkpt lat="39.9601033" lon="8.4011483"><ele>2.0</ele><time>2026-04-28T13:15:33.022Z</time></trkpt><trkpt lat="39.9600067" lon="8.401145"><ele>1.5</ele><time>2026-04-28T13:15:35.019Z</time></trkpt><trkpt lat="39.9599333" lon="8.4011533"><ele>1.0</ele><time>2026-04-28T13:15:37.064Z</time></trkpt><trkpt lat="39.9598533" lon="8.401135"><ele>0.5</ele><time>2026-04-28T13:15:40.022Z</time></trkpt><trkpt lat="39.9597867" lon="8.4011"><ele>0.0</ele><time>2026-04-28T13:15:44.014Z</time></trkpt><trkpt lat="39.959725" lon="8.4011417"><ele>0.0</ele><time>2026-04-28T13:15:47.019Z</time></trkpt><trkpt lat="39.95966" lon="8.4011883"><ele>0.0</ele><time>2026-04-28T13:15:49.065Z</time></trkpt><trkpt lat="39.9595833" lon="8.401235"><ele>0.0</ele><time>2026-04-28T13:15:51.018Z</time></trkpt><trkpt lat="39.9595033" lon="8.4013317"><ele>0.0</ele><time>2026-04-28T13:15:53.018Z</time></trkpt><trkpt lat="39.959395" lon="8.4014183"><ele>0.0</ele><time>2026-04-28T13:15:55.067Z</time></trkpt><trkpt lat="39.9593333" lon="8.4014633"><ele>0.6666666666666666</ele><time>2026-04-28T13:15:56.018Z</time></trkpt><trkpt lat="39.9592717" lon="8.4015117"><ele>1.3333333333333333</ele><time>2026-04-28T13:15:57.016Z</time></trkpt><trkpt lat="39.95921" lon="8.4015533"><ele>2.0</ele><time>2026-04-28T13:15:58.019Z</time></trkpt><trkpt lat="39.9591483" lon="8.4015967"><ele>2.6666666666666665</ele><time>2026-04-28T13:15:59.016Z</time></trkpt><trkpt lat="39.95909" lon="8.4016417"><ele>3.333333333333333</ele><time>2026-04-28T13:16:00.015Z</time></trkpt><trkpt lat="39.9590317" lon="8.4016867"><ele>4.0</ele><time>2026-04-28T13:16:01.073Z</time></trkpt><trkpt lat="39.9589133" lon="8.4017617"><ele>4.0</ele><time>2026-04-28T13:16:03.019Z</time></trkpt><trkpt lat="39.9588667" lon="8.4018183"><ele>3.9999999999999996</ele><time>2026-04-28T13:16:04.02Z</time></trkpt><trkpt lat="39.9588183" lon="8.40188"><ele>4.0</ele><time>2026-04-28T13:16:05.023Z</time></trkpt><trkpt lat="39.958765" lon="8.4019267"><ele>4.0</ele><time>2026-04-28T13:16:06.02Z</time></trkpt><trkpt lat="39.9586983" lon="8.4019617"><ele>3.9999999999999996</ele><time>2026-04-28T13:16:07.064Z</time></trkpt><trkpt lat="39.9586283" lon="8.4020033"><ele>4.0</ele><time>2026-04-28T13:16:08.017Z</time></trkpt><trkpt lat="39.958565" lon="8.4020567"><ele>4.0</ele><time>2026-04-28T13:16:09.021Z</time></trkpt><trkpt lat="39.9585083" lon="8.4021267"><ele>3.9999999999999996</ele><time>2026-04-28T13:16:10.021Z</time></trkpt><trkpt lat="39.9584567" lon="8.4022117"><ele>4.0</ele><time>2026-04-28T13:16:11.018Z</time></trkpt><trkpt lat="39.9584167" lon="8.4023017"><ele>4.0</ele><time>2026-04-28T13:16:12.019Z</time></trkpt><trkpt lat="39.9583733" lon="8.4023833"><ele>4.0</ele><time>2026-04-28T13:16:13.067Z</time></trkpt><trkpt lat="39.9583267" lon="8.4024533"><ele>3.9999999999999996</ele><time>2026-04-28T13:16:14.014Z</time></trkpt><trkpt lat="39.95821" lon="8.40242"><ele>4.0</ele><time>2026-04-28T13:16:16.022Z</time></trkpt><trkpt lat="39.9581483" lon="8.4024033"><ele>4.0</ele><time>2026-04-28T13:16:17.02Z</time></trkpt><trkpt lat="39.95808" lon="8.402395"><ele>4.0</ele><time>2026-04-28T13:16:18.02Z</time></trkpt><trkpt lat="39.957975" lon="8.4024733"><ele>4.0</ele><time>2026-04-28T13:16:20.015Z</time></trkpt><trkpt lat="39.95786" lon="8.40248"><ele>4.0</ele><time>2026-04-28T13:16:22.021Z</time></trkpt><trkpt lat="39.957755" lon="8.4023917"><ele>4.0</ele><time>2026-04-28T13:16:24.022Z</time></trkpt><trkpt lat="39.9576967" lon="8.40233"><ele>3.9999999999999996</ele><time>2026-04-28T13:16:25.067Z</time></trkpt><trkpt lat="39.95763" lon="8.402275"><ele>4.0</ele><time>2026-04-28T13:16:26.016Z</time></trkpt><trkpt lat="39.9575617" lon="8.4022217"><ele>4.0</ele><time>2026-04-28T13:16:27.018Z</time></trkpt><trkpt lat="39.9574933" lon="8.4021783"><ele>4.0</ele><time>2026-04-28T13:16:28.022Z</time></trkpt><trkpt lat="39.957425" lon="8.4021367"><ele>3.9999999999999996</ele><time>2026-04-28T13:16:29.021Z</time></trkpt><trkpt lat="39.95736" lon="8.4020933"><ele>4.0</ele><time>2026-04-28T13:16:30.017Z</time></trkpt><trkpt lat="39.957295" lon="8.4020433"><ele>3.4999999999999996</ele><time>2026-04-28T13:16:31.067Z</time></trkpt><trkpt lat="39.95723" lon="8.402005"><ele>3.0</ele><time>2026-04-28T13:16:32.017Z</time></trkpt><trkpt lat="39.9571233" lon="8.40198"><ele>2.5</ele><time>2026-04-28T13:16:34.014Z</time></trkpt><trkpt lat="39.9570483" lon="8.4019733"><ele>2.0</ele><time>2026-04-28T13:16:36.017Z</time></trkpt><trkpt lat="39.95697" lon="8.40199"><ele>1.5</ele><time>2026-04-28T13:16:39.02Z</time></trkpt><trkpt lat="39.9569017" lon="8.4020117"><ele>1.0</ele><time>2026-04-28T13:16:41.014Z</time></trkpt><trkpt lat="39.9567717" lon="8.4020317"><ele>1.1428571428571428</ele><time>2026-04-28T13:16:43.067Z</time></trkpt><trkpt lat="39.9567" lon="8.4020417"><ele>1.2857142857142856</ele><time>2026-04-28T13:16:44.014Z</time></trkpt><trkpt lat="39.95663" lon="8.4020533"><ele>1.4285714285714284</ele><time>2026-04-28T13:16:45.022Z</time></trkpt><trkpt lat="39.95656" lon="8.4020767"><ele>1.5714285714285714</ele><time>2026-04-28T13:16:46.014Z</time></trkpt><trkpt lat="39.9564983" lon="8.402125"><ele>1.714285714285714</ele><time>2026-04-28T13:16:47.024Z</time></trkpt><trkpt lat="39.956435" lon="8.40218"><ele>1.857142857142857</ele><time>2026-04-28T13:16:48.013Z</time></trkpt><trkpt lat="39.9563767" lon="8.4022417"><ele>2.0</ele><time>2026-04-28T13:16:49.061Z</time></trkpt><trkpt lat="39.9563133" lon="8.402295"><ele>2.6666666666666665</ele><time>2026-04-28T13:16:50.011Z</time></trkpt><trkpt lat="39.9561883" lon="8.4023733"><ele>3.333333333333333</ele><time>2026-04-28T13:16:52.012Z</time></trkpt><trkpt lat="39.956125" lon="8.4024067"><ele>4.0</ele><time>2026-04-28T13:16:53.016Z</time></trkpt><trkpt lat="39.9557067" lon="8.402605"><ele>4.0</ele><time>2026-04-28T13:17:00.015Z</time></trkpt><trkpt lat="39.9554083" lon="8.402695"><ele>4.0</ele><time>2026-04-28T13:17:05.017Z</time></trkpt><trkpt lat="39.9552317" lon="8.40279"><ele>4.0</ele><time>2026-04-28T13:17:08.018Z</time></trkpt><trkpt lat="39.95517" lon="8.4028367"><ele>4.0</ele><time>2026-04-28T13:17:09.017Z</time></trkpt><trkpt lat="39.9545517" lon="8.4027517"><ele>4.0</ele><time>2026-04-28T13:17:19.06Z</time></trkpt><trkpt lat="39.9541083" lon="8.4024433"><ele>4.0</ele><time>2026-04-28T13:17:26.013Z</time></trkpt><trkpt lat="39.9537967" lon="8.4024933"><ele>4.0</ele><time>2026-04-28T13:17:31.06Z</time></trkpt><trkpt lat="39.9535483" lon="8.4030017"><ele>5.5</ele><time>2026-04-28T13:17:38.027Z</time></trkpt><trkpt lat="39.953535" lon="8.4031033"><ele>7.0</ele><time>2026-04-28T13:17:39.014Z</time></trkpt><trkpt lat="39.953335" lon="8.4035583"><ele>7.0</ele><time>2026-04-28T13:17:46.02Z</time></trkpt><trkpt lat="39.9526783" lon="8.4034567"><ele>7.0</ele><time>2026-04-28T13:17:53.015Z</time></trkpt><trkpt lat="39.952575" lon="8.403455"><ele>7.0</ele><time>2026-04-28T13:17:54.014Z</time></trkpt><trkpt lat="39.9520417" lon="8.40343"><ele>5.0</ele><time>2026-04-28T13:17:59.018Z</time></trkpt><trkpt lat="39.95124" lon="8.4035083"><ele>5.0</ele><time>2026-04-28T13:18:06.019Z</time></trkpt><trkpt lat="39.95074" lon="8.4036017"><ele>5.0</ele><time>2026-04-28T13:18:11.017Z</time></trkpt><trkpt lat="39.950355" lon="8.40374"><ele>5.0</ele><time>2026-04-28T13:18:17.016Z</time></trkpt><trkpt lat="39.9502033" lon="8.4033233"><ele>5.0</ele><time>2026-04-28T13:18:23.014Z</time></trkpt><trkpt lat="39.9502067" lon="8.4032283"><ele>5.0</ele><time>2026-04-28T13:18:24.011Z</time></trkpt><trkpt lat="39.9502317" lon="8.40272"><ele>4.5</ele><time>2026-04-28T13:18:30.008Z</time></trkpt><trkpt lat="39.950005" lon="8.402395"><ele>4.0</ele><time>2026-04-28T13:18:36.012Z</time></trkpt><trkpt lat="39.9499" lon="8.402335"><ele>4.0</ele><time>2026-04-28T13:18:38.015Z</time></trkpt><trkpt lat="39.9495" lon="8.4024933"><ele>4.0</ele><time>2026-04-28T13:18:45.011Z</time></trkpt><trkpt lat="39.9492317" lon="8.4027217"><ele>4.666666666666666</ele><time>2026-04-28T13:18:50.012Z</time></trkpt><trkpt lat="39.94918" lon="8.4027817"><ele>5.333333333333333</ele><time>2026-04-28T13:18:51.015Z</time></trkpt><trkpt lat="39.949135" lon="8.402845"><ele>6.0</ele><time>2026-04-28T13:18:52.015Z</time></trkpt><trkpt lat="39.9488" lon="8.4032033"><ele>6.5</ele><time>2026-04-28T13:19:01.067Z</time></trkpt><trkpt lat="39.948525" lon="8.4033067"><ele>7.0</ele><time>2026-04-28T13:19:06.014Z</time></trkpt><trkpt lat="39.94847" lon="8.4033617"><ele>7.5</ele><time>2026-04-28T13:19:07.062Z</time></trkpt><trkpt lat="39.9484133" lon="8.403415"><ele>8.0</ele><time>2026-04-28T13:19:08.011Z</time></trkpt><trkpt lat="39.9478383" lon="8.403755"><ele>8.0</ele><time>2026-04-28T13:19:17.013Z</time></trkpt><trkpt lat="39.9477717" lon="8.4037817"><ele>7.999999999999999</ele><time>2026-04-28T13:19:18.018Z</time></trkpt><trkpt lat="39.9477017" lon="8.4038017"><ele>8.0</ele><time>2026-04-28T13:19:19.064Z</time></trkpt><trkpt lat="39.9476333" lon="8.403815"><ele>8.0</ele><time>2026-04-28T13:19:20.025Z</time></trkpt><trkpt lat="39.9475617" lon="8.4038117"><ele>7.999999999999999</ele><time>2026-04-28T13:19:21.017Z</time></trkpt><trkpt lat="39.9474917" lon="8.403795"><ele>8.0</ele><time>2026-04-28T13:19:22.016Z</time></trkpt><trkpt lat="39.947425" lon="8.4037683"><ele>8.0</ele><time>2026-04-28T13:19:23.026Z</time></trkpt><trkpt lat="39.9473617" lon="8.4037367"><ele>7.666666666666666</ele><time>2026-04-28T13:19:24.015Z</time></trkpt><trkpt lat="39.9473083" lon="8.4036883"><ele>7.333333333333333</ele><time>2026-04-28T13:19:25.069Z</time></trkpt><trkpt lat="39.9472533" lon="8.403635"><ele>7.0</ele><time>2026-04-28T13:19:26.018Z</time></trkpt><trkpt lat="39.947195" lon="8.4035733"><ele>6.666666666666666</ele><time>2026-04-28T13:19:27.02Z</time></trkpt><trkpt lat="39.9471333" lon="8.403505"><ele>6.333333333333333</ele><time>2026-04-28T13:19:28.017Z</time></trkpt><trkpt lat="39.9470717" lon="8.4034267"><ele>6.0</ele><time>2026-04-28T13:19:29.016Z</time></trkpt><trkpt lat="39.9470167" lon="8.403345"><ele>6.0</ele><time>2026-04-28T13:19:30.023Z</time></trkpt><trkpt lat="39.946965" lon="8.4032617"><ele>6.0</ele><time>2026-04-28T13:19:31.063Z</time></trkpt><trkpt lat="39.946915" lon="8.4031767"><ele>6.0</ele><time>2026-04-28T13:19:32.011Z</time></trkpt><trkpt lat="39.94687" lon="8.4031067"><ele>6.0</ele><time>2026-04-28T13:19:33.018Z</time></trkpt><trkpt lat="39.9468233" lon="8.40304"><ele>6.0</ele><time>2026-04-28T13:19:34.015Z</time></trkpt><trkpt lat="39.946775" lon="8.402975"><ele>6.0</ele><time>2026-04-28T13:19:35.015Z</time></trkpt><trkpt lat="39.94669" lon="8.4028717"><ele>2.0</ele><time>2026-04-28T13:19:37.06Z</time></trkpt><trkpt lat="39.9466083" lon="8.40279"><ele>2.0</ele><time>2026-04-28T13:19:39.019Z</time></trkpt><trkpt lat="39.9465317" lon="8.4027317"><ele>2.0</ele><time>2026-04-28T13:19:41.019Z</time></trkpt><trkpt lat="39.9464617" lon="8.4026783"><ele>2.0</ele><time>2026-04-28T13:19:43.061Z</time></trkpt><trkpt lat="39.9463867" lon="8.40265"><ele>2.0</ele><time>2026-04-28T13:19:46.014Z</time></trkpt></trkseg></trk></gpx>